ECMWFNIL_925_thetae_003.txt.gz
Theta_e
329 329 330 330 330 330 331 333 336 336 336 335 335 335 333 333 332 333 334 333 333 333 334 335 335 335 336 338 339 341 341 340 339 339 339 340 340 341 342 342 342 342
329 329 329 330 329 328 328 330 333 335 335 334 334 333 332 333 333 332 330 329 330 331 331 333 334 334 335 335 336 337 338 337 338 339 339 339 340 341 341 341 342 341
330 329 329 330 329 328 327 328 330 332 333 332 333 333 332 333 333 330 329 328 329 330 331 332 333 333 333 333 334 335 336 337 337 338 337 338 339 339 339 339 340 340
329 329 330 329 328 327 326 327 329 331 332 331 332 332 332 333 333 331 331 330 330 331 333 333 332 333 333 332 332 333 334 335 336 337 336 336 337 338 338 338 339 339
329 329 329 328 328 328 328 328 329 330 331 331 331 331 332 333 332 333 333 333 333 334 333 333 333 333 333 333 332 332 332 333 334 335 336 336 336 338 338 338 338 338
328 329 329 329 329 329 330 330 329 329 329 329 329 329 330 331 332 333 334 333 334 334 334 334 334 333 333 333 333 332 332 332 332 333 334 334 334 335 336 337 336 336
327 328 328 329 329 329 329 329 329 329 329 329 329 329 329 330 330 331 332 332 334 335 334 334 333 333 333 332 333 333 332 333 332 332 332 333 333 333 335 336 336 336
327 327 327 328 328 327 327 327 328 329 329 329 329 329 329 329 329 330 330 332 335 335 334 332 333 333 333 332 332 332 332 331 331 331 332 332 332 332 334 335 336 338
327 327 326 326 326 325 326 327 327 328 329 330 329 329 328 328 328 329 329 332 335 335 332 331 332 333 333 332 332 331 331 330 330 330 330 330 331 331 332 333 335 337
328 327 326 325 325 325 325 326 328 328 329 329 330 330 329 328 329 329 329 331 335 335 331 331 333 333 332 332 332 332 331 330 329 330 329 330 330 330 331 332 334 336
328 327 326 325 325 324 324 326 328 328 327 328 330 330 330 329 329 330 330 331 334 335 332 331 333 333 331 332 332 332 330 330 330 331 331 331 331 331 332 332 332 334
329 327 325 325 325 325 325 327 327 326 326 328 329 330 330 330 330 330 330 330 332 333 333 332 333 333 331 331 331 329 329 330 330 330 330 331 331 332 332 332 332 332
329 327 326 325 325 326 326 326 326 325 326 327 328 329 330 330 330 330 330 330 330 331 332 333 334 333 331 330 330 328 328 328 328 328 329 329 330 330 331 331 332 332
328 327 326 325 325 326 327 326 326 326 326 327 327 328 329 330 330 330 329 329 329 330 332 334 335 332 329 328 327 327 327 326 326 326 326 327 328 329 329 330 332 333
326 326 325 325 325 326 327 326 326 326 327 327 327 328 329 330 330 329 329 328 329 331 333 335 335 332 328 326 325 327 328 325 324 324 325 326 327 328 328 329 331 333
325 325 325 325 326 327 327 326 325 325 325 326 327 328 329 329 329 328 328 329 330 331 333 335 335 331 328 325 324 326 328 325 323 323 324 326 327 326 325 325 327 331
325 325 326 327 327 328 328 326 324 324 325 326 327 329 329 329 328 327 327 329 330 331 333 335 334 330 327 325 322 324 327 325 322 322 323 325 325 324 324 323 324 326
326 327 327 328 328 329 328 325 323 324 325 327 328 329 328 327 327 326 327 328 329 331 332 334 334 330 327 325 323 323 326 325 321 320 322 323 324 323 322 322 322 323
328 328 329 329 329 329 327 325 323 323 325 327 328 328 327 326 326 326 326 327 328 329 331 333 334 330 327 327 325 323 324 325 321 319 320 322 322 322 321 321 321 322
329 330 330 330 330 328 326 325 324 322 324 327 328 327 326 326 326 325 325 325 325 326 330 333 334 331 328 329 327 323 323 324 322 319 320 321 321 321 320 320 320 321
329 330 330 330 330 328 326 325 324 323 325 327 326 325 326 326 325 324 323 324 323 322 327 333 334 331 329 330 329 325 322 323 323 320 319 320 320 320 319 319 319 320
331 331 331 331 330 328 326 324 323 324 325 326 325 324 324 325 325 324 323 324 323 321 324 331 334 331 329 329 330 326 322 323 325 322 319 320 320 319 319 318 318 319
332 331 331 331 329 327 325 324 324 324 324 324 324 323 323 325 325 324 324 323 323 322 323 328 331 331 329 329 329 325 321 322 326 325 321 320 321 320 320 319 318 318
331 331 331 330 329 327 325 324 324 324 323 323 323 323 324 325 326 325 324 323 323 323 323 325 329 330 329 329 327 324 322 322 326 327 325 323 322 322 322 321 320 319
328 329 330 330 329 326 324 324 324 324 323 322 321 322 323 324 324 324 324 324 323 323 322 323 327 328 329 328 326 324 323 323 325 328 327 325 324 323 323 323 323 321
325 328 330 329 328 325 324 324 324 323 322 321 321 322 321 321 322 323 324 324 324 323 323 322 324 326 328 328 328 326 326 325 325 327 328 327 326 325 324 324 324 323

ECMWFNIL_925_thetae_006.txt.gz
Theta_e
340 339 338 337 337 338 337 337 337 337 338 337 337 337 336 336 336 336 336 336 337 337 337 336 337 337 337 337 338 338 339 340 341 340 339 338 339 338 339 341 342 340
339 338 337 336 337 337 337 337 336 337 337 337 336 336 335 335 335 335 336 335 336 336 337 336 336 336 336 336 336 337 337 338 339 340 339 340 340 339 339 340 340 338
338 337 337 335 335 335 335 336 336 337 336 336 336 335 334 335 335 335 336 336 336 337 337 336 335 335 335 335 335 336 337 338 338 338 339 339 340 340 340 339 339 338
338 336 336 335 334 334 334 336 337 337 336 335 335 334 334 335 335 336 337 337 337 336 336 335 335 335 334 335 335 336 336 336 336 337 337 337 338 339 340 340 339 338
337 336 336 335 335 334 334 335 336 336 336 335 335 334 334 335 336 336 336 336 336 335 334 334 334 334 334 335 334 334 335 335 334 335 335 335 336 337 337 337 338 339
337 336 335 335 334 334 334 335 335 335 335 335 335 334 334 335 335 335 336 336 336 335 335 334 334 334 334 335 335 334 334 333 332 333 333 334 334 334 335 334 335 337
336 336 336 335 334 333 334 335 334 335 335 334 335 335 335 335 335 335 336 337 337 337 337 337 336 335 335 336 335 334 334 334 333 333 333 333 333 333 334 334 334 334
336 335 335 334 333 333 334 334 333 333 334 334 334 334 335 335 335 335 335 336 337 338 339 338 337 336 335 335 335 335 335 335 335 334 334 334 334 334 334 333 333 333
336 335 334 333 333 332 332 331 330 331 332 333 333 333 333 334 334 335 335 336 338 338 339 340 339 337 335 335 335 335 335 335 334 334 333 333 332 331 332 333 333 334
336 335 334 332 331 331 331 329 329 329 329 331 332 332 333 334 334 336 336 337 338 339 339 338 338 337 336 336 335 335 334 334 333 333 332 331 329 329 330 331 331 332
336 334 332 331 331 330 330 329 329 329 330 330 331 331 332 333 334 336 337 338 339 338 339 338 338 338 338 337 335 334 334 333 332 332 331 329 328 328 328 330 331 331
335 333 332 331 331 331 330 330 330 329 329 329 328 329 330 331 332 333 336 339 339 338 338 338 338 338 338 338 336 334 333 332 331 331 330 329 327 327 327 329 330 330
334 332 332 331 330 330 330 330 330 329 328 328 327 328 328 329 330 332 335 337 339 339 338 338 339 338 338 337 335 333 332 331 331 330 329 328 327 327 327 328 328 328
333 332 332 331 331 331 331 331 330 330 330 329 328 328 328 328 330 331 333 336 337 338 338 339 339 338 338 337 335 333 331 331 330 330 329 328 326 326 326 327 327 326
334 332 332 331 331 331 331 332 332 331 330 329 328 328 328 329 331 332 334 335 336 338 339 339 338 338 338 336 332 330 331 330 330 329 328 327 326 326 326 325 325 325
334 332 332 332 332 332 332 333 333 331 329 328 328 328 328 330 333 334 334 334 334 336 337 338 338 338 337 332 328 326 328 330 329 328 328 328 327 326 325 324 324 323
334 333 333 332 332 333 333 334 334 331 328 328 329 329 330 332 334 334 334 333 333 335 336 337 338 338 336 331 327 325 326 328 329 328 328 328 327 325 324 323 322 322
334 333 333 332 332 333 334 335 335 331 329 329 328 329 330 331 332 332 333 334 334 334 335 335 336 336 335 331 328 327 326 327 327 328 328 328 327 325 324 323 321 320
335 333 333 332 333 334 335 336 335 331 329 329 328 328 329 330 331 331 333 334 334 334 333 333 333 335 334 332 329 328 329 327 326 327 328 328 327 326 325 323 322 320
335 334 333 333 334 335 336 337 334 331 329 328 327 328 329 330 330 331 332 332 331 331 331 331 332 332 333 332 330 329 330 328 326 327 328 327 328 328 325 324 323 322
335 334 334 335 335 336 337 336 332 329 329 329 328 328 328 330 330 331 332 331 331 329 329 329 329 329 330 331 330 329 330 328 326 328 329 328 328 328 326 325 324 323
335 334 334 335 336 337 337 334 330 329 329 329 330 329 329 329 329 329 330 332 331 329 328 328 328 327 329 331 330 329 329 328 328 329 330 330 329 329 327 326 325 324
334 334 334 335 335 336 336 332 328 327 328 330 330 329 328 327 327 327 328 330 330 329 328 328 328 327 328 328 328 329 329 328 327 328 329 331 331 330 329 327 326 325
334 334 334 333 334 335 334 331 328 328 329 330 329 328 327 327 326 326 326 327 328 327 327 327 326 326 327 327 326 327 328 328 328 328 329 331 332 332 330 328 327 326
334 333 333 333 333 333 331 330 329 329 329 329 328 327 327 327 326 326 326 326 326 326 325 326 326 327 327 326 325 325 327 329 330 331 331 331 333 333 331 329 328 327
334 333 334 333 332 332 332 332 331 330 329 329 328 327 327 328 327 328 327 326 324 324 324 325 326 327 328 327 324 325 327 329 331 333 331 330 332 333 332 329 328 328

ECMWFNIL_925_thetae_009.txt.gz
Theta_e
339 340 339 338 338 338 338 337 336 336 336 337 338 338 338 339 339 339 339 339 338 338 338 339 339 338 338 338 337 338 338 339 340 340 339 341 343 342 342 342 343 343
339 340 339 338 338 337 336 336 336 336 338 338 339 338 338 338 338 339 339 338 338 338 338 338 337 337 337 336 336 337 338 339 341 340 339 340 342 341 341 341 341 341
340 339 339 338 337 337 335 335 336 337 338 338 339 338 337 337 337 338 338 338 338 338 338 338 337 335 336 336 336 337 337 339 339 339 338 340 340 339 339 339 340 340
340 339 338 337 337 336 335 335 335 336 337 337 337 337 337 337 337 337 337 337 337 338 337 336 336 335 335 334 335 336 336 337 337 336 336 336 336 336 336 337 337 337
339 339 338 337 337 336 335 335 336 335 336 337 337 336 336 337 337 336 336 336 336 336 335 335 334 334 334 334 335 336 335 334 333 333 333 334 335 335 335 335 336 336
339 338 338 337 337 336 335 335 336 335 335 336 336 336 336 336 336 336 336 336 336 335 336 335 335 335 334 334 335 336 336 335 335 335 335 336 336 336 336 336 335 334
340 339 339 338 337 336 336 335 335 334 334 335 335 336 335 335 335 336 336 336 336 336 337 337 337 338 336 335 336 335 336 336 336 336 337 337 336 336 335 333 331 331
340 339 339 338 337 336 336 334 334 333 333 333 334 335 334 335 334 335 335 336 336 337 338 339 339 339 338 336 335 335 336 336 336 335 335 336 335 334 332 330 329 329
339 338 337 337 336 335 334 334 332 331 331 332 333 332 333 334 333 334 335 336 337 338 339 340 340 339 339 339 338 337 338 337 335 335 335 335 334 332 330 330 329 329
339 338 337 336 335 333 333 333 331 330 330 330 331 331 331 332 333 333 334 335 336 338 341 341 341 340 340 339 338 338 338 337 336 335 335 334 333 331 330 329 329 330
338 338 337 335 334 333 332 331 331 329 330 330 330 330 330 330 331 332 332 333 334 338 342 343 341 340 340 339 337 336 337 337 336 335 334 333 332 331 329 329 329 329
338 337 336 335 334 333 332 332 331 330 329 329 330 329 329 328 329 329 331 331 332 335 341 342 341 341 341 340 338 337 338 337 335 335 334 332 331 330 328 329 329 328
337 337 336 334 333 333 333 332 331 331 331 331 331 331 330 329 328 329 330 330 331 333 337 340 341 341 341 340 340 339 339 337 336 335 333 331 329 329 328 328 328 327
335 335 335 334 333 333 333 332 333 332 332 332 332 331 330 329 329 328 329 330 331 333 336 338 338 338 338 338 339 340 339 337 335 334 332 329 329 329 328 327 326 326
335 335 334 333 333 333 333 333 333 333 333 333 332 332 331 330 330 330 330 331 333 335 337 337 336 336 337 337 336 338 337 334 333 332 330 329 329 329 328 327 326 326
337 336 335 334 334 334 334 334 333 334 335 334 333 331 331 331 331 331 332 331 333 334 335 335 334 335 335 335 335 335 334 332 332 331 328 328 329 329 328 327 326 327
337 337 336 335 335 334 335 334 334 336 336 335 333 332 331 331 330 331 331 331 332 334 335 335 335 334 334 333 335 336 334 332 331 330 328 327 328 328 328 328 328 327
337 337 336 335 335 335 335 335 336 336 337 336 333 331 331 330 330 330 331 331 333 335 336 336 334 333 333 332 333 334 334 331 331 330 328 326 327 328 329 329 329 328
336 336 336 335 336 335 335 335 335 337 338 336 333 331 330 329 330 330 331 331 333 334 335 334 332 332 333 331 328 329 331 331 331 331 328 327 328 329 329 330 329 329
336 337 336 335 335 335 336 336 336 338 339 335 332 331 330 330 330 331 331 332 332 332 331 331 330 330 329 329 326 327 328 330 331 330 330 328 328 328 329 330 331 330
336 336 336 336 336 335 336 337 339 340 337 333 331 330 330 331 331 330 331 331 331 331 330 330 330 328 327 328 327 327 327 329 331 331 330 329 328 329 330 331 332 331
336 335 336 336 336 336 336 337 339 339 335 332 331 331 331 331 329 330 330 329 330 331 331 331 330 328 326 327 328 328 328 329 331 333 332 328 327 329 331 332 333 333
336 335 335 336 335 335 334 334 337 338 334 330 331 331 331 330 329 330 330 329 330 331 330 330 329 329 327 326 326 328 329 330 332 333 332 327 326 327 331 334 335 333
336 335 336 335 334 333 333 333 335 335 333 331 332 332 330 329 330 329 329 329 330 330 330 328 327 327 327 326 326 326 328 330 331 332 332 328 325 326 331 335 336 333
336 336 336 335 333 332 332 332 333 333 332 332 333 332 329 329 329 329 329 330 330 330 329 328 328 329 327 325 325 325 327 329 329 330 332 329 326 326 330 333 333 333
336 337 336 335 333 331 331 332 332 334 334 333 333 332 329 329 329 329 330 330 330 329 329 328 330 330 326 324 324 325 326 329 329 330 331 330 327 326 327 328 328 329

ECMWFNIL_925_thetae_012.txt.gz
Theta_e
337 338 340 340 339 340 340 339 338 338 337 337 338 339 340 340 340 340 340 340 340 340 340 339 339 339 338 338 338 337 337 338 338 339 339 339 339 338 338 338 338 339
338 339 340 339 339 339 339 338 338 337 337 338 339 339 339 339 339 339 339 340 340 340 340 339 339 339 338 337 337 336 337 337 337 338 338 337 337 337 336 336 336 337
339 340 341 340 339 339 338 337 336 336 337 338 338 338 338 338 338 339 339 339 339 339 339 339 338 338 337 336 336 336 336 336 336 336 336 335 335 335 335 336 335 335
340 340 340 339 339 338 337 336 336 336 337 337 337 338 338 338 338 338 338 338 338 338 338 337 336 336 336 336 335 335 336 336 336 334 334 334 334 335 336 336 336 335
341 341 340 339 338 338 337 336 335 336 336 336 336 337 337 337 337 338 338 338 337 337 337 336 336 336 336 336 335 335 336 337 336 335 335 336 336 336 336 336 335 334
340 340 340 339 339 338 337 336 336 336 336 335 335 336 336 336 336 337 337 337 337 337 337 336 337 337 337 337 337 336 336 336 336 337 336 336 336 336 336 335 333 332
340 339 339 339 339 338 338 337 336 336 335 334 334 335 335 335 335 336 336 336 336 336 337 337 338 339 338 338 338 337 337 336 336 336 336 335 336 336 335 334 332 331
341 340 340 340 339 339 338 337 336 335 334 334 334 333 334 334 334 335 335 335 335 336 336 337 337 338 338 338 338 338 338 338 337 337 336 336 336 336 335 333 331 331
341 341 340 339 340 338 338 337 335 334 333 332 332 332 333 332 332 333 334 334 334 335 336 336 337 338 338 338 338 338 339 339 338 339 338 337 336 335 334 333 331 330
341 341 339 339 339 337 337 336 334 332 331 331 331 330 330 331 331 332 332 333 333 334 335 335 336 338 338 337 337 337 337 337 337 338 338 337 336 334 333 331 330 330
340 340 339 338 338 336 335 334 333 332 330 329 328 329 329 331 331 331 331 331 332 332 333 333 334 337 338 337 337 337 337 336 336 337 337 337 336 334 331 330 330 329
341 340 340 338 337 336 335 333 332 331 330 329 330 331 331 331 331 331 330 330 330 331 331 332 333 335 336 336 337 337 337 337 337 336 336 336 335 333 330 329 329 328
340 340 339 338 337 335 334 333 333 332 332 332 332 333 333 332 332 331 330 331 330 331 331 332 333 334 335 335 336 336 335 336 337 336 335 335 334 332 330 329 329 328
339 338 338 337 336 334 334 333 333 333 333 334 334 334 334 333 333 331 331 331 331 332 332 332 334 337 337 336 335 335 334 333 334 335 334 333 332 331 329 329 329 328
336 336 336 336 336 334 334 334 334 334 334 334 334 335 335 334 333 332 332 332 332 332 332 332 335 337 336 335 334 333 333 333 332 333 333 332 331 330 329 329 329 328
336 336 336 336 335 334 334 334 335 335 335 335 335 336 336 335 333 332 332 332 332 332 331 333 335 334 333 333 333 333 333 333 332 332 332 332 332 330 329 329 329 329
337 337 337 336 335 335 334 335 335 336 335 335 336 337 337 335 333 332 332 331 331 332 332 334 335 333 332 331 331 332 332 330 330 330 330 331 332 330 329 328 328 328
338 338 339 338 337 336 336 336 336 336 336 336 337 338 337 335 333 332 331 331 331 332 333 334 333 332 332 330 330 331 330 328 328 329 330 330 331 331 329 328 329 329
338 339 339 338 338 337 337 337 336 336 337 337 338 338 336 334 332 331 331 331 332 333 333 332 331 331 330 329 329 329 328 328 329 329 330 331 332 331 330 329 330 330
338 338 338 337 337 337 337 337 336 337 337 337 338 338 335 333 332 331 332 332 333 333 332 330 330 330 330 329 328 327 327 328 328 329 330 332 333 332 331 330 330 330
339 338 338 338 337 337 337 337 337 337 337 338 339 337 334 332 332 332 332 332 333 333 332 332 332 331 331 329 328 327 326 326 327 329 331 332 332 331 331 330 329 327
339 339 338 338 338 337 338 337 338 338 338 339 339 337 334 332 332 332 332 331 331 331 332 333 332 331 330 329 328 327 327 326 326 328 331 332 331 330 330 329 327 326
340 338 338 338 338 338 338 338 338 337 337 338 339 337 333 332 332 332 331 330 331 331 331 332 332 331 329 328 327 327 326 325 325 328 332 332 330 329 329 328 327 326
339 338 338 338 338 337 337 337 336 335 335 336 337 336 333 332 332 332 330 330 330 330 331 331 331 330 328 327 328 326 325 325 325 329 331 330 329 328 328 327 326 325
339 338 338 338 338 337 337 335 334 333 333 334 335 334 333 333 333 331 330 330 330 329 330 331 331 330 330 330 329 326 325 325 326 329 331 330 329 328 328 328 326 325
338 338 338 337 337 337 336 334 333 332 332 332 333 334 334 333 333 332 330 330 329 329 330 330 330 330 330 330 327 325 325 326 327 329 331 331 331 331 330 328 326 326

ECMWFNIL_925_thetae_015.txt.gz
Theta_e
337 337 336 338 339 339 339 339 337 337 337 337 336 337 339 339 339 339 339 339 339 339 339 339 339 339 338 338 337 336 336 335 336 336 336 335 335 334 334 335 335 335
338 336 337 338 339 338 338 337 336 337 337 336 336 337 338 338 338 339 338 338 338 338 338 338 338 338 337 337 337 336 335 335 336 336 335 335 334 334 334 335 335 335
338 337 338 339 338 337 338 338 338 337 335 334 336 337 338 338 337 336 337 337 338 338 337 337 337 336 336 336 336 335 335 335 336 335 335 334 334 334 334 335 336 336
338 337 339 339 339 338 338 338 337 335 334 335 337 337 337 336 336 336 336 336 337 337 337 337 336 336 336 336 335 335 335 335 336 336 335 334 334 335 335 335 335 335
338 338 338 339 339 339 338 337 336 335 335 336 336 336 335 336 336 336 335 335 335 335 336 336 337 336 337 337 337 337 337 336 336 336 336 336 335 336 335 335 335 334
338 339 339 338 338 338 338 337 337 335 335 336 335 334 334 335 335 334 334 335 335 335 335 335 336 336 337 338 338 338 338 337 336 336 336 336 336 335 335 335 334 333
339 340 340 340 338 338 338 337 336 335 335 334 334 334 334 334 334 334 334 334 334 333 333 333 334 335 336 337 338 338 338 337 337 337 337 336 336 336 336 335 334 332
339 340 340 339 338 338 338 337 336 336 334 334 334 335 334 333 333 334 334 334 333 333 333 333 333 333 334 336 338 338 338 338 338 338 337 337 337 336 336 334 333 332
339 339 339 338 338 338 338 338 338 336 335 335 335 334 333 333 333 333 332 332 332 332 333 333 333 333 333 334 335 337 337 337 337 337 337 337 337 337 335 333 333 331
339 339 339 339 339 339 339 338 337 336 335 335 333 332 332 332 332 331 331 331 331 332 332 332 333 333 333 333 333 335 336 337 337 336 336 337 337 336 334 332 332 331
341 340 340 340 340 339 338 338 337 335 334 332 330 330 331 332 332 331 331 331 332 332 332 333 333 333 333 333 332 333 335 335 336 337 337 337 336 335 334 333 331 330
341 341 340 340 339 338 337 337 336 335 333 331 331 332 332 332 331 331 331 331 331 331 332 332 333 333 332 332 333 334 334 335 336 336 335 335 334 334 334 333 331 330
341 340 340 339 338 338 337 336 335 334 332 332 332 333 332 332 332 332 332 332 332 331 331 331 331 332 332 332 334 335 335 335 335 334 333 331 331 332 332 332 331 330
340 339 339 339 339 338 337 336 335 333 333 332 332 332 331 331 333 333 333 333 332 331 331 331 331 332 332 333 333 334 334 334 334 333 332 329 329 331 331 331 331 329
340 339 339 339 338 337 336 335 334 333 332 332 332 332 332 332 333 334 334 333 332 332 331 332 332 332 332 333 333 332 333 333 333 332 330 328 329 330 328 328 329 329
341 340 340 339 338 337 336 335 334 333 332 332 333 333 333 334 334 335 335 334 333 332 331 331 331 332 333 333 333 332 331 332 333 331 328 328 329 329 326 327 328 329
341 340 339 338 337 337 336 335 334 333 333 333 334 334 334 334 335 336 336 334 333 332 331 330 331 332 333 333 332 331 330 331 331 330 328 329 331 330 329 329 330 330
338 338 337 336 336 335 335 334 334 333 334 334 335 335 335 335 336 337 337 334 333 332 331 331 331 332 333 332 331 330 330 329 330 330 329 329 330 330 330 331 331 331
337 335 335 335 335 335 335 334 334 333 334 335 335 335 335 336 336 337 337 334 332 331 331 331 332 333 332 331 330 329 329 328 328 328 328 328 328 329 331 331 331 331
338 336 335 334 335 335 335 335 335 334 335 335 335 335 336 337 337 338 336 334 332 331 331 332 332 332 331 331 331 330 328 327 326 326 326 326 327 328 330 331 330 330
340 338 336 336 336 337 337 336 336 336 336 336 336 336 336 337 338 337 336 334 332 332 332 332 331 331 331 332 332 331 329 328 327 326 326 325 325 326 329 330 329 328
340 339 338 338 338 338 338 337 337 337 336 336 336 336 336 337 338 337 335 333 332 332 332 331 331 331 332 331 331 330 328 327 327 326 324 324 325 327 328 329 329 328
341 339 339 339 339 339 339 338 337 337 336 336 336 337 337 338 338 338 335 333 332 332 331 331 331 330 330 330 329 328 328 327 325 323 323 325 327 329 329 329 328 327
342 340 339 339 339 339 338 338 337 337 336 336 337 337 337 338 337 335 332 331 331 330 329 329 329 329 328 328 328 328 328 326 323 323 324 327 329 330 329 328 328 328
343 341 340 340 339 338 338 338 337 337 337 337 337 336 336 336 335 332 331 331 330 329 329 328 328 328 327 328 329 328 327 324 323 324 326 328 330 330 329 328 328 328
344 343 341 340 340 339 339 338 337 337 337 336 335 335 336 335 334 332 331 331 330 330 329 328 328 328 327 328 328 327 325 324 324 326 328 328 329 328 326 325 325 326

ECMWFNIL_925_thetae_021.txt.gz
Theta_e
348 344 340 336 334 335 335 336 336 337 338 338 338 337 336 335 337 338 337 337 336 336 337 337 337 338 338 337 336 336 336 335 335 334 334 334 335 334 333 332 333 333
344 342 338 335 334 335 335 335 335 336 337 338 338 337 335 335 336 337 336 335 335 337 337 337 336 337 336 336 335 335 335 335 335 334 334 334 334 334 334 333 333 333
343 339 337 334 334 336 336 335 335 336 337 338 337 335 334 335 335 336 335 336 336 337 337 336 336 336 336 336 336 335 335 335 335 335 334 334 334 334 334 333 333 333
344 339 336 334 334 336 335 335 336 336 337 336 334 332 335 336 336 336 336 336 336 335 335 335 335 336 335 335 336 336 335 335 335 335 335 335 335 335 334 333 333 334
344 339 336 334 335 336 335 335 336 337 336 333 332 333 336 336 336 336 335 335 333 332 332 332 332 334 334 335 335 335 336 335 336 336 336 336 336 335 335 335 335 334
343 339 336 335 336 335 335 336 336 336 335 334 333 333 335 336 336 336 335 334 332 332 332 332 331 332 332 333 334 334 334 334 335 337 337 337 336 336 335 335 335 335
342 338 336 336 336 335 335 334 335 336 337 336 334 332 334 336 336 335 335 333 332 332 332 332 332 332 332 332 332 333 332 333 334 336 337 337 337 337 336 336 335 335
341 337 336 337 336 336 335 334 335 337 337 336 334 333 333 335 335 334 334 333 333 333 332 333 333 333 333 332 332 332 331 332 333 335 336 336 337 337 337 336 337 336
340 337 337 337 336 336 336 336 337 337 337 336 335 332 332 334 334 333 333 332 333 333 332 333 333 333 333 333 333 332 332 332 332 333 334 335 336 336 336 336 336 336
340 338 338 338 337 336 337 337 337 338 337 336 334 331 331 332 332 333 333 333 333 333 333 333 333 333 333 333 333 333 333 332 333 333 333 334 334 335 336 335 336 335
340 339 339 339 338 337 337 337 337 338 337 335 332 330 331 332 333 333 334 334 334 333 333 333 333 332 332 332 332 332 332 333 333 333 333 333 334 334 335 335 335 336
339 339 340 339 338 337 336 337 337 336 335 332 331 330 332 333 333 333 333 333 332 332 332 331 331 331 331 331 330 330 331 331 332 333 333 333 334 334 334 335 335 335
340 340 340 338 338 337 337 338 338 335 332 331 331 332 333 334 332 331 330 330 330 330 331 331 330 331 331 331 330 330 331 331 331 332 333 333 333 333 333 333 334 333
339 338 340 339 338 337 337 338 337 334 331 331 333 333 334 334 333 330 329 330 330 330 331 331 331 332 331 331 331 330 331 331 331 331 332 332 332 331 331 332 332 332
334 333 339 339 337 337 338 338 337 335 332 332 333 335 335 335 334 331 330 330 331 331 331 332 332 332 332 332 331 330 330 330 330 331 332 332 332 331 331 331 331 331
333 334 339 338 337 338 337 337 338 334 329 331 334 335 336 336 334 331 331 331 331 331 332 333 333 333 332 331 331 331 330 330 330 331 332 332 332 331 330 330 330 330
334 336 339 337 336 337 337 338 339 333 329 332 335 335 335 337 334 332 332 332 331 332 333 334 335 334 333 332 331 331 331 331 331 331 332 332 331 331 329 329 328 329
331 334 339 338 336 339 337 336 337 336 335 335 336 335 336 336 333 332 332 332 332 332 333 334 335 335 335 334 333 333 331 331 331 331 332 331 330 329 328 327 327 326
329 333 338 338 339 339 333 329 333 338 338 336 336 336 336 336 334 332 332 331 332 333 334 334 335 335 335 335 334 333 332 332 332 332 332 330 329 329 328 327 326 326
332 335 338 339 339 336 330 327 332 338 338 335 335 336 337 336 334 332 332 332 333 334 334 334 335 335 333 332 332 333 332 332 332 332 332 331 330 329 327 326 326 325
335 338 339 339 337 332 330 331 333 336 337 336 337 336 337 336 334 332 333 332 333 334 334 335 335 335 333 331 331 331 332 332 331 331 331 331 331 330 328 327 325 323
336 339 340 339 335 331 332 333 334 335 336 337 337 337 336 335 333 333 333 332 333 334 334 335 335 335 335 332 331 330 331 330 329 328 329 329 331 331 329 326 324 322
336 339 340 338 335 333 332 331 333 335 337 337 337 337 336 335 334 333 333 333 334 334 335 336 336 336 335 333 331 330 329 328 328 327 327 328 330 330 328 326 325 324
337 339 339 338 337 336 333 331 334 336 337 337 337 337 336 334 334 333 333 334 335 336 336 336 336 336 334 331 330 329 328 328 327 327 327 327 328 328 327 325 324 325
338 339 339 337 336 334 332 333 334 336 336 336 337 336 335 334 334 334 335 336 336 336 336 335 335 334 332 330 329 329 328 328 327 327 327 327 327 326 325 324 324 325
339 340 338 335 333 332 331 332 333 335 336 336 336 336 335 335 336 336 336 337 335 334 333 333 333 332 331 330 329 329 328 327 326 327 327 327 326 325 325 325 324 324

ECMWFNIL_925_thetae_024.txt.gz
Theta_e
356 355 353 354 353 344 336 335 335 335 335 335 335 336 337 337 336 335 337 339 338 337 337 336 337 337 337 337 337 336 336 335 335 335 334 334 334 333 333 333 333 333
355 354 354 355 351 341 335 334 334 335 334 334 336 337 338 337 335 336 338 339 338 336 336 337 337 337 336 337 336 335 335 335 334 334 334 334 333 333 334 333 333 333
355 354 354 355 351 340 335 334 334 334 335 335 337 337 337 337 335 336 337 337 336 335 335 336 337 336 335 335 335 335 335 334 334 334 334 334 334 334 334 334 333 333
355 355 355 355 350 341 336 335 335 335 335 336 337 337 337 336 335 335 336 336 335 334 335 336 337 336 335 335 335 335 335 334 334 334 334 334 334 335 334 335 334 334
355 355 355 354 349 341 336 335 334 335 335 335 336 337 337 335 334 334 335 334 334 334 335 335 335 334 334 334 335 335 335 334 334 335 335 335 335 336 336 335 335 334
354 355 356 353 346 339 335 334 334 335 335 334 335 337 335 333 333 334 334 334 334 334 333 332 332 332 332 333 333 333 333 332 333 334 335 335 335 336 336 336 336 335
354 355 354 349 341 337 335 334 334 335 334 333 335 335 332 332 334 335 334 335 334 334 332 331 331 331 330 331 331 331 331 331 331 332 333 333 334 335 335 336 336 336
354 354 352 346 340 336 335 334 335 335 333 333 335 333 331 332 335 335 335 335 335 334 333 331 332 332 332 332 332 332 332 332 332 331 331 331 332 332 333 334 336 336
353 353 351 345 341 337 335 334 335 335 333 333 334 333 332 333 333 334 334 334 334 334 333 332 332 332 332 333 333 333 333 333 332 332 332 331 331 331 331 332 334 335
350 352 350 344 340 337 334 334 335 334 332 332 334 335 334 333 332 332 334 334 334 334 333 333 332 332 332 333 333 333 333 333 333 333 332 332 332 332 332 332 333 334
349 350 347 341 338 337 335 334 335 334 333 332 335 336 335 334 332 332 332 333 334 333 333 332 332 333 333 333 332 332 332 332 332 331 332 333 332 332 332 332 333 333
346 345 341 338 337 337 335 335 335 335 335 334 335 336 336 335 334 332 332 332 333 333 333 333 333 334 333 332 332 331 331 330 330 330 331 331 332 332 332 332 333 333
341 339 338 338 337 334 331 335 337 336 336 336 336 336 336 334 333 331 330 331 332 333 333 333 333 333 332 331 330 330 330 330 330 330 330 330 331 331 331 332 332 332
339 341 340 337 337 330 323 331 338 337 336 336 336 336 335 333 331 330 330 332 333 333 331 330 331 331 331 330 331 331 331 331 330 330 330 330 330 330 331 332 332 331
342 345 338 333 336 330 320 327 337 337 335 336 336 335 333 331 330 330 331 333 334 332 329 329 330 330 330 330 331 331 331 331 330 330 330 329 330 330 331 332 332 331
343 342 335 333 336 329 319 326 336 338 336 336 337 335 331 328 328 331 332 334 335 332 329 330 330 330 330 330 331 331 331 330 330 330 330 330 330 330 331 331 331 330
342 339 336 337 338 332 325 327 333 337 337 337 337 334 329 327 328 331 333 335 336 334 330 330 331 330 331 332 333 333 332 331 332 332 331 331 330 331 331 331 330 328
341 339 338 338 339 338 335 331 333 337 337 337 337 331 327 328 329 330 333 335 336 334 331 331 331 331 332 334 335 334 334 334 334 334 333 331 331 331 331 331 329 329
339 337 338 338 337 338 339 337 336 337 337 337 336 330 328 328 328 329 333 335 336 334 332 332 331 331 332 334 334 335 335 335 334 333 333 331 331 332 331 331 330 330
336 334 335 334 331 332 336 338 337 336 336 338 336 334 333 331 329 331 334 335 336 334 333 332 332 332 333 333 334 335 334 332 332 332 332 331 331 331 330 330 331 331
334 332 332 330 327 327 333 337 337 336 337 335 331 332 334 334 334 335 336 335 335 334 333 332 331 332 333 333 334 334 332 331 331 331 331 330 329 329 328 328 330 331
333 332 331 330 329 330 334 338 337 337 335 329 325 327 331 334 335 336 336 335 336 335 334 332 332 332 333 334 335 334 332 331 330 330 329 328 328 328 327 327 329 329
332 331 330 330 330 332 335 337 338 337 332 327 328 330 333 335 336 336 336 336 336 335 334 332 332 332 334 335 335 334 332 330 330 329 328 328 328 328 327 327 328 327
330 328 327 329 332 333 336 338 338 335 331 330 332 334 335 335 335 335 336 336 335 334 333 332 332 333 335 336 335 333 331 330 329 328 328 328 327 327 326 327 327 325
330 327 327 330 332 333 335 337 336 333 331 332 333 333 333 333 333 335 336 336 335 334 333 333 334 335 335 335 333 332 330 329 328 328 328 327 327 326 326 327 326 325
331 330 329 331 333 335 336 336 334 332 332 332 332 332 332 333 334 335 336 336 335 334 333 334 335 334 333 333 332 330 329 329 328 328 327 326 326 326 326 326 326 325

ECMWFNIL_925_thetae_027.txt.gz
Theta_e
353 353 352 353 353 354 354 354 351 346 341 338 337 336 336 336 336 336 336 336 335 336 338 338 337 337 336 337 338 338 339 338 339 338 337 336 337 338 338 336 335 335
353 352 352 353 353 354 355 353 351 348 342 338 336 336 335 336 336 336 336 336 335 337 338 338 337 336 337 339 338 338 339 338 338 338 336 336 337 337 337 337 336 335
353 352 353 354 354 355 355 353 351 347 339 336 336 335 335 335 336 336 336 335 335 338 339 338 337 337 337 339 338 339 339 338 338 338 336 335 336 336 336 336 336 336
353 353 354 355 355 355 354 353 350 344 337 335 335 334 334 335 336 337 336 335 336 338 338 337 336 337 337 337 337 338 338 337 337 336 335 335 335 335 335 336 336 336
355 355 355 355 355 355 353 353 350 342 335 335 334 334 334 336 337 337 336 336 336 338 337 336 335 336 337 337 336 337 338 338 336 334 334 336 335 335 336 336 336 336
355 355 355 355 355 354 353 353 351 342 335 334 334 334 336 337 337 337 336 336 336 336 336 336 336 336 337 337 335 335 336 337 336 333 333 336 336 335 334 334 335 336
355 355 355 354 353 353 353 354 350 341 335 334 335 335 336 337 337 336 335 334 335 335 335 335 335 335 334 333 333 333 333 333 333 332 332 333 334 333 332 332 333 334
354 354 353 352 352 353 353 354 349 341 335 335 335 334 335 336 336 335 332 333 333 334 335 334 333 333 332 331 331 331 332 332 331 331 331 331 332 331 331 331 331 332
354 353 352 352 353 353 353 353 349 341 335 334 334 334 335 335 335 332 331 332 334 334 334 334 333 332 332 332 332 332 332 333 333 332 332 332 332 332 332 333 333 333
353 352 351 351 352 352 354 353 346 338 334 334 334 334 334 333 331 330 331 333 334 334 334 333 332 332 332 333 333 332 333 333 333 333 333 333 333 333 334 335 335 335
351 350 350 350 350 352 354 350 342 336 334 333 335 335 333 331 330 330 332 333 334 333 333 332 331 332 332 333 333 332 332 333 333 333 332 332 331 332 332 333 334 335
350 348 348 348 350 352 352 346 339 336 334 334 334 331 328 330 330 330 332 333 332 332 331 331 330 331 332 333 332 333 333 333 333 332 331 330 330 330 330 331 332 332
349 347 347 347 350 350 347 342 338 335 334 334 333 326 324 328 331 332 334 333 332 331 330 330 331 331 332 333 333 333 333 333 332 330 330 330 330 330 330 330 330 330
348 346 345 347 349 346 342 341 339 335 333 334 333 329 328 330 329 331 335 334 332 331 330 330 331 331 332 333 333 333 332 331 330 330 330 330 330 330 330 330 330 331
348 345 344 345 348 347 343 341 339 335 332 332 334 333 329 327 327 331 336 336 334 332 330 330 331 332 332 332 331 331 330 330 330 330 331 331 330 330 330 329 329 330
346 345 343 343 345 345 342 338 336 334 331 330 333 332 324 322 328 334 336 336 335 333 331 330 331 333 333 331 330 330 330 331 331 331 332 332 331 331 331 331 330 330
346 345 342 342 343 340 338 337 334 331 331 332 331 328 321 321 331 336 336 336 335 333 331 330 331 334 333 330 330 330 331 332 332 332 333 332 332 332 332 332 332 331
346 344 342 341 341 338 337 338 333 329 332 334 329 324 321 325 334 337 335 333 330 328 328 329 332 334 333 330 330 331 332 333 334 334 334 334 334 334 334 333 332 332
345 344 342 340 339 338 339 337 332 329 331 330 326 325 328 331 336 337 333 329 326 326 328 329 331 334 335 331 330 331 332 334 334 334 334 334 334 334 334 333 332 332
345 343 342 339 338 339 338 334 330 328 327 325 325 330 335 336 337 336 330 326 326 328 328 327 327 332 335 333 331 331 332 333 333 334 334 334 332 332 332 332 332 332
345 343 341 339 338 337 335 333 331 327 323 322 325 331 336 336 337 336 330 326 327 327 325 324 325 330 335 334 332 332 332 332 333 334 334 332 331 331 331 331 331 331
344 342 340 338 336 334 332 332 331 327 322 323 327 333 337 337 337 335 330 328 328 328 327 327 328 332 335 335 333 332 331 332 334 334 333 332 331 330 330 329 328 328
342 341 340 337 334 333 332 332 330 329 328 330 333 337 338 337 337 336 332 331 332 332 329 328 329 332 334 335 335 333 331 333 334 333 332 331 330 329 328 328 327 327
341 340 339 336 333 332 333 332 332 333 334 335 337 338 338 336 336 334 332 331 331 330 328 328 331 334 334 335 335 332 332 334 334 333 332 330 329 329 328 327 327 326
339 339 339 336 333 332 332 333 333 335 337 337 337 337 337 335 333 332 330 328 327 328 330 333 335 336 335 335 334 332 333 334 333 332 330 329 329 330 329 328 327 327
339 339 338 336 334 333 332 332 334 335 336 336 336 337 336 335 333 332 333 333 332 333 334 335 335 335 335 334 333 334 335 333 332 330 329 330 332 331 330 329 328 328

ECMWFNIL_925_thetae_030.txt.gz
Theta_e
364 364 363 363 362 360 359 358 357 357 355 353 351 349 347 346 345 344 343 343 342 343 343 343 343 342 341 340 340 340 340 340 341 341 340 340 339 339 339 338 338 337
364 364 364 363 363 361 360 359 357 357 356 354 352 349 348 346 345 344 343 342 343 343 343 343 343 343 342 341 340 340 340 340 341 341 340 340 339 339 338 338 337 337
364 365 364 362 362 362 361 359 359 358 356 355 353 351 349 347 346 344 343 343 343 343 343 343 343 343 343 342 340 339 339 339 341 340 340 339 339 338 337 337 337 336
365 364 364 362 362 362 361 360 359 358 356 354 352 350 348 346 344 344 343 343 343 343 343 343 343 342 342 342 340 340 339 340 340 340 339 339 339 338 336 336 336 335
365 364 364 363 362 361 361 359 358 358 356 354 352 350 348 345 343 342 343 343 343 343 342 343 343 342 342 341 340 340 340 340 340 339 339 339 338 337 336 336 336 336
365 364 364 363 362 361 360 358 358 357 355 353 351 349 346 344 342 342 342 343 343 342 341 342 342 342 341 341 340 340 340 339 339 339 339 338 337 336 336 336 336 336
365 365 364 363 361 359 358 358 357 356 354 353 350 347 343 342 342 341 343 343 342 341 341 341 341 341 341 341 340 341 340 339 339 339 338 338 337 336 336 336 336 337
365 366 364 361 360 357 357 357 357 355 353 352 350 345 342 341 340 342 344 343 342 342 341 340 341 341 341 340 340 340 339 338 338 338 338 337 337 337 336 336 337 337
365 365 362 360 358 357 356 357 356 355 353 352 350 345 340 340 341 344 343 340 340 338 336 336 340 341 340 339 339 339 338 338 338 338 338 337 337 337 337 337 337 337
365 363 361 359 357 356 356 357 356 354 353 352 349 344 340 340 341 340 337 336 336 331 327 333 340 341 340 339 339 339 339 338 338 338 338 338 338 337 337 336 336 336
364 362 360 358 357 356 356 356 355 354 353 351 347 344 341 339 336 333 333 334 334 327 323 331 338 340 340 339 339 339 338 338 338 338 339 339 339 338 337 337 336 336
364 361 359 358 356 356 356 356 354 353 352 350 346 343 341 338 333 331 332 333 332 327 322 325 332 339 341 339 338 339 339 339 339 338 339 339 339 338 337 337 337 337
363 360 358 357 356 355 355 355 354 352 350 348 344 341 340 338 335 333 332 331 330 327 323 323 329 337 339 336 336 338 337 338 338 338 339 339 338 337 337 336 336 336
362 360 358 357 355 355 355 354 352 351 349 346 342 341 339 335 334 334 332 330 329 325 324 327 332 335 335 333 332 332 333 336 338 339 339 338 338 337 337 335 335 334
362 360 358 356 354 355 355 353 352 350 348 345 342 340 338 333 331 332 331 331 330 326 328 334 334 331 331 331 330 330 333 337 339 339 339 337 337 337 337 336 335 334
362 360 358 355 353 354 354 353 351 349 348 346 342 339 338 334 330 331 332 333 331 328 332 337 334 328 329 331 329 329 333 337 338 338 338 337 337 337 337 337 336 335
362 359 357 354 353 354 354 352 350 349 348 346 340 336 335 331 327 330 335 335 330 329 334 336 332 328 329 331 328 327 331 335 337 338 338 338 337 338 337 337 336 336
360 358 356 354 353 354 353 352 350 349 347 344 340 338 335 331 330 334 337 335 334 336 337 335 330 329 331 332 329 328 330 333 335 337 338 338 339 339 339 339 339 338
358 356 355 354 353 353 353 352 350 348 347 344 343 341 339 337 337 338 338 337 337 337 336 334 333 333 333 332 328 327 330 332 333 336 337 338 339 341 341 341 341 341
357 356 355 353 352 352 352 351 349 347 347 345 344 342 340 339 338 338 340 340 337 334 334 336 336 334 331 329 326 326 330 332 332 334 337 338 339 341 341 341 342 341
357 355 354 352 351 351 351 350 349 348 346 345 343 341 339 338 337 338 340 337 332 332 336 337 336 333 330 328 325 325 329 333 332 334 337 338 339 340 341 342 340 338
356 354 354 352 351 351 350 349 349 348 346 345 343 340 338 336 334 336 338 333 328 332 338 336 333 332 332 329 325 325 328 332 333 334 337 338 339 340 341 341 338 335
355 353 353 352 351 350 349 348 348 347 345 342 340 338 336 334 332 337 339 334 329 333 338 337 333 332 331 327 324 325 328 332 334 336 338 339 339 341 340 338 336 335
355 353 352 352 350 349 348 348 348 346 342 339 337 335 333 332 333 337 338 333 331 334 338 337 334 334 333 330 328 328 331 334 337 338 339 339 341 340 337 335 334 334
354 353 352 351 350 349 348 348 348 344 339 336 333 331 331 332 335 337 337 334 334 335 337 336 335 335 336 336 336 335 334 335 338 340 340 340 340 338 335 334 335 335
352 352 351 350 349 348 348 348 345 341 338 335 332 330 329 332 335 336 336 337 336 335 335 336 336 336 338 338 337 336 335 335 338 340 340 339 338 336 335 336 337 336

ECMWFNIL_925_thetae_033.txt.gz
Theta_e
364 363 363 364 363 361 359 358 357 356 354 353 351 350 350 349 348 346 345 347 345 343 344 344 344 343 340 340 340 340 340 340 340 341 340 341 340 339 340 340 339 339
365 364 364 364 364 362 361 360 358 357 356 354 352 351 350 348 348 346 345 346 344 343 344 344 344 343 341 340 340 340 340 340 340 340 340 340 339 339 339 339 339 339
366 365 365 364 363 363 362 360 359 358 357 356 355 353 350 348 348 347 345 345 345 344 344 344 343 343 342 341 340 340 340 339 339 339 339 340 340 340 339 339 338 338
367 365 365 365 364 363 362 361 360 360 358 357 356 353 350 348 348 347 346 345 345 345 344 344 343 342 342 342 341 340 339 339 340 339 340 340 340 340 339 338 337 337
368 367 366 365 364 363 363 362 361 360 359 357 356 353 350 349 348 348 347 345 345 345 344 344 344 342 342 342 341 340 340 339 340 340 341 340 340 340 338 338 338 338
369 368 367 366 365 364 364 363 362 361 359 357 356 354 351 350 349 347 346 345 344 345 344 344 343 343 343 343 341 340 340 340 340 340 341 340 340 339 338 338 338 338
369 369 368 367 366 365 365 364 363 362 360 358 356 354 352 351 348 345 345 345 344 344 343 342 343 343 343 343 341 340 340 341 340 340 340 340 339 339 338 338 338 338
369 370 369 368 367 366 366 365 363 362 360 359 357 355 354 352 348 344 344 345 344 344 342 342 343 343 343 343 342 341 342 341 340 340 340 340 339 339 338 338 338 338
369 370 370 368 367 366 366 364 362 361 360 359 357 356 354 351 347 344 343 345 345 345 343 341 343 344 343 343 343 342 342 341 339 340 340 340 339 339 339 338 339 339
369 369 370 368 367 367 365 363 360 360 360 359 357 356 354 351 347 344 344 345 345 344 342 341 342 343 343 342 341 341 341 340 339 339 339 339 339 339 338 338 339 338
370 369 370 368 367 366 364 362 359 359 360 359 358 356 353 350 346 343 344 347 345 344 343 342 342 342 342 341 340 340 340 340 340 339 339 339 339 339 339 339 339 338
370 369 369 369 368 365 363 361 359 359 360 359 359 357 353 350 346 343 346 347 344 343 343 342 341 341 342 341 339 340 340 339 339 339 339 339 339 339 339 338 339 339
371 370 369 369 368 365 362 360 359 360 360 358 358 356 353 349 345 346 348 347 343 341 340 339 339 341 343 341 338 339 339 338 339 339 340 340 339 339 338 337 338 338
371 371 370 369 367 365 362 360 360 360 360 359 357 354 353 349 346 347 348 345 342 340 339 338 339 341 343 341 337 337 338 339 340 340 340 340 339 339 338 337 336 336
372 372 370 368 366 365 363 362 361 361 360 359 357 354 352 349 346 346 345 342 339 338 339 339 340 341 341 340 338 337 338 341 340 338 338 338 339 339 338 337 337 337
373 372 370 368 366 365 364 363 362 361 360 359 357 355 352 349 346 344 341 338 337 337 340 341 341 340 337 336 338 339 339 340 337 333 332 336 339 338 337 337 338 338
372 371 369 368 365 365 364 363 362 360 360 359 357 356 353 348 345 342 340 338 337 337 339 339 340 339 332 328 334 338 339 338 334 330 332 336 338 338 337 337 338 337
371 370 369 366 365 364 362 361 361 360 360 359 356 356 353 347 344 342 339 338 337 337 338 337 339 339 330 323 326 331 333 335 333 333 335 336 337 338 338 339 339 338
370 369 368 366 364 363 360 360 359 359 360 358 356 355 351 346 344 341 337 336 337 338 337 337 341 342 334 325 325 327 329 331 332 334 335 336 337 338 338 340 341 341
369 368 366 365 364 362 360 359 359 359 360 357 356 355 350 346 342 339 337 337 339 339 337 338 343 342 333 326 326 328 328 329 331 335 336 336 337 338 338 341 343 344
368 366 364 365 364 360 360 359 358 359 359 356 356 355 351 347 342 339 337 338 339 338 337 339 341 337 327 324 327 329 330 329 331 335 337 336 337 338 338 341 343 345
367 365 362 363 362 360 360 359 358 358 357 357 356 354 352 348 342 338 339 340 341 341 339 338 337 332 325 325 328 330 331 329 330 334 336 337 338 338 338 341 343 345
367 364 361 361 361 360 359 357 357 357 356 356 355 353 352 348 343 341 342 343 343 341 337 335 334 332 330 330 330 330 329 329 331 334 335 337 339 339 338 341 344 345
366 363 360 359 359 359 357 355 356 355 355 355 353 352 350 348 345 343 343 342 340 336 333 330 330 333 334 333 331 329 327 329 333 335 335 338 339 339 340 342 344 343
363 361 360 358 358 357 356 355 355 354 354 353 351 350 348 347 344 342 341 340 336 332 330 328 329 334 335 333 331 328 325 328 334 336 336 338 340 340 342 344 343 341
361 360 358 356 356 356 356 355 354 354 352 350 349 347 344 342 341 338 338 339 336 333 331 330 330 334 335 333 332 330 328 329 335 338 338 339 340 341 343 343 340 338

ECMWFNIL_925_thetae_036.txt.gz
Theta_e
364 364 364 364 363 362 361 359 359 358 356 354 351 350 350 350 350 349 348 347 344 343 343 344 344 342 341 340 340 340 340 339 340 341 340 340 340 339 339 340 339 339
364 364 364 364 364 363 362 360 358 357 355 353 351 350 350 350 349 348 347 348 345 344 344 344 344 343 341 340 339 340 340 340 341 341 340 340 340 339 339 339 339 338
364 365 364 364 364 364 363 360 359 358 356 354 352 351 350 349 350 348 347 348 346 344 345 345 344 343 341 341 340 340 340 340 341 341 340 340 340 340 339 339 338 338
365 365 364 364 364 364 362 361 360 358 357 356 353 352 352 350 350 348 347 347 346 344 344 345 345 343 342 341 340 340 341 341 340 340 339 339 340 339 339 340 339 338
365 365 364 363 364 364 363 361 360 359 358 357 356 353 352 351 349 348 347 347 346 344 344 344 344 343 342 342 341 340 340 340 339 339 339 340 340 339 338 339 339 338
366 366 364 363 364 363 363 362 361 361 359 358 357 355 354 351 349 349 347 346 346 344 344 344 344 344 342 342 342 341 340 340 340 340 340 340 340 340 340 339 338 338
366 366 364 364 364 363 363 363 362 362 360 359 358 356 354 351 349 349 348 347 346 345 345 344 344 344 343 341 342 341 341 341 340 340 339 339 340 340 340 339 338 338
367 367 365 364 365 364 363 364 363 362 361 360 359 357 355 352 349 349 348 347 345 345 345 345 345 344 343 343 343 342 341 340 340 340 340 340 340 340 339 339 338 338
367 367 366 365 365 364 364 364 364 363 362 361 360 358 356 352 350 349 349 347 345 344 345 345 344 344 343 344 344 343 341 341 341 341 342 341 340 340 339 339 339 339
368 369 367 366 366 366 365 364 364 364 363 361 360 359 356 353 351 350 349 347 345 344 345 345 344 344 344 344 344 342 340 339 340 340 341 341 340 339 339 339 339 339
368 369 369 367 367 367 366 364 365 365 364 362 361 359 357 355 352 350 349 347 345 344 344 344 343 343 345 344 342 342 339 338 339 340 340 341 340 339 339 339 339 339
368 368 370 368 367 367 366 365 364 365 365 363 361 360 358 356 354 351 348 346 345 345 345 343 342 343 344 343 342 342 340 340 341 340 340 340 340 340 339 339 339 339
369 367 369 369 366 366 366 365 364 364 364 363 362 361 359 357 356 352 349 346 345 346 345 343 342 343 344 342 340 340 339 341 342 341 340 340 340 339 339 339 339 339
369 367 367 367 367 365 365 365 364 363 363 362 361 361 359 357 356 353 349 346 345 346 345 343 342 342 343 342 340 338 338 341 342 341 340 340 340 339 340 340 339 339
370 368 366 366 367 366 365 365 365 363 362 361 361 360 359 357 356 352 349 347 346 346 345 343 341 341 343 340 336 335 338 341 341 341 340 340 340 340 340 340 339 338
371 369 367 367 368 368 366 366 366 364 362 361 361 360 359 358 356 351 348 348 348 347 345 344 342 342 342 337 330 331 336 340 341 340 340 340 341 341 340 340 338 337
371 370 370 368 369 369 368 367 366 364 362 361 362 361 359 358 355 352 349 349 350 347 344 343 342 340 341 336 331 333 338 339 340 340 340 341 341 339 339 339 338 337
372 372 372 370 370 370 370 368 366 363 363 362 363 362 360 358 356 352 350 350 350 346 343 341 339 338 340 336 331 334 338 338 339 340 340 340 337 332 331 336 339 338
373 374 373 372 372 371 369 368 366 365 364 363 363 363 361 359 357 353 351 350 349 345 342 340 337 337 339 335 330 334 337 336 339 340 338 337 333 325 326 334 340 339
374 375 374 373 372 370 369 369 366 365 364 362 363 362 362 360 357 353 351 348 346 344 341 340 337 336 338 336 332 336 337 336 339 339 336 334 330 325 329 337 340 339
376 375 374 372 371 369 368 367 365 364 363 362 362 362 361 361 356 352 349 346 344 342 340 339 336 336 337 335 332 335 337 338 338 337 335 332 327 326 333 338 338 339
376 374 373 371 369 368 367 365 364 363 361 361 361 361 360 358 354 350 347 344 343 342 340 337 335 335 337 336 332 334 338 339 336 334 333 329 326 329 335 337 337 339
374 373 372 370 368 367 366 364 363 361 361 361 361 360 359 355 351 348 345 343 342 340 338 337 335 336 338 336 331 331 335 336 334 333 330 327 329 334 336 337 337 338
373 371 369 369 368 366 364 363 362 360 361 361 361 360 358 354 350 348 345 343 342 340 339 338 338 341 342 338 332 330 331 333 333 332 330 329 332 336 337 337 339 338
371 369 367 366 365 363 362 361 361 359 360 360 359 358 357 355 351 348 344 343 342 341 341 339 340 342 341 337 334 332 331 332 332 332 332 332 334 336 337 338 339 339
369 367 365 364 362 361 361 360 358 358 358 359 357 356 355 354 351 348 345 343 342 342 341 339 339 339 335 332 331 330 330 330 332 333 333 334 335 335 337 339 340 341

ECMWFNIL_925_thetae_039.txt.gz
Theta_e
362 362 362 361 361 360 360 359 357 355 354 354 355 354 354 353 352 351 350 348 345 344 343 340 338 340 341 341 340 340 339 337 337 338 339 339 337 338 340 339 339 338
362 362 362 361 361 360 360 358 356 356 355 354 354 354 354 353 351 350 350 348 345 343 341 340 339 338 341 342 341 342 340 337 338 338 338 340 339 338 339 340 338 337
362 363 363 362 361 360 359 358 357 356 356 355 354 353 352 351 350 349 350 348 345 343 341 342 340 334 338 342 341 341 340 338 339 340 339 340 340 338 338 340 339 338
363 363 363 362 362 361 360 360 358 357 357 356 355 353 350 350 349 348 348 348 346 343 340 343 341 335 338 342 340 340 341 338 339 341 340 339 339 338 339 339 339 338
364 363 363 362 362 362 362 361 360 358 358 356 354 352 349 349 349 348 348 348 347 344 340 341 342 337 340 342 338 338 340 339 339 340 340 340 339 338 339 339 339 338
364 363 362 362 362 363 363 362 361 359 357 356 354 352 349 349 349 349 348 347 347 345 341 341 342 340 340 342 339 337 338 338 339 340 340 341 339 338 339 339 338 339
364 363 362 362 362 362 363 363 361 360 358 356 354 351 350 349 349 349 348 347 347 345 342 342 343 342 341 342 341 339 338 338 338 339 339 340 339 338 339 338 337 338
364 364 362 362 363 362 363 362 362 361 358 357 355 352 351 350 349 349 348 347 347 346 344 342 343 343 342 341 342 342 339 338 337 338 338 339 339 339 339 337 337 338
364 364 363 363 363 363 363 363 362 361 359 357 356 354 352 351 350 349 348 347 347 346 344 342 343 344 342 340 341 342 341 339 338 338 339 339 339 339 339 339 339 339
364 364 363 363 363 362 363 363 362 361 360 358 357 355 354 352 351 350 349 347 347 346 345 343 342 343 343 340 340 342 342 340 339 339 340 340 339 339 339 339 340 339
365 364 364 363 363 362 362 362 362 362 360 359 358 357 355 354 352 351 349 348 347 346 345 343 342 343 344 342 340 341 342 341 340 340 340 340 339 338 338 339 339 339
365 365 364 364 363 363 362 362 362 362 361 360 359 358 357 356 353 351 350 348 347 346 345 344 343 343 344 344 342 341 341 341 340 340 339 340 340 339 339 339 339 338
366 365 365 364 363 363 362 363 362 362 362 361 360 360 358 357 355 352 351 349 348 347 345 344 344 343 344 344 343 342 341 341 341 340 339 340 341 341 341 340 338 338
365 365 365 364 363 363 362 363 362 362 362 362 361 360 359 358 356 353 351 350 348 348 346 345 345 344 344 344 342 341 342 343 342 341 340 340 341 341 341 340 339 339
366 365 365 365 364 363 362 362 362 361 362 362 362 361 360 359 357 355 353 351 349 348 347 345 345 345 344 344 340 339 342 344 342 341 340 339 339 340 341 340 340 339
366 366 365 365 365 364 363 362 362 361 362 363 362 361 361 359 358 356 354 351 350 349 347 346 345 345 344 344 340 334 338 343 342 341 340 339 340 341 340 340 340 339
366 365 365 365 365 365 364 363 363 363 362 363 363 362 361 360 359 357 355 353 351 349 348 346 345 345 344 344 342 333 332 340 343 341 341 340 340 341 340 340 339 339
366 365 365 365 366 365 365 364 364 364 363 363 364 363 362 361 359 358 356 354 352 349 348 347 346 345 343 343 343 336 332 337 341 341 341 341 340 340 340 340 339 340
367 367 366 365 365 365 365 365 364 364 364 363 363 363 362 361 359 358 356 355 353 350 349 347 346 345 344 342 342 339 334 336 339 340 341 341 340 340 340 340 340 340
368 368 367 365 366 366 366 366 365 365 364 364 364 363 362 361 359 358 356 355 353 351 349 347 346 345 344 343 342 340 337 335 336 339 341 341 340 340 340 340 339 338
369 368 368 367 366 366 367 367 366 365 365 364 364 363 361 361 359 358 356 354 352 351 349 348 346 345 344 343 342 340 338 335 335 338 340 341 341 340 340 339 336 331
370 369 369 369 368 368 369 368 367 366 365 364 364 363 362 361 360 359 357 354 351 350 349 348 347 345 345 344 342 341 339 337 336 338 340 340 340 340 340 339 333 326
371 370 371 370 370 370 369 369 368 366 365 365 364 363 363 362 361 360 357 354 351 350 349 348 346 345 345 344 342 341 340 338 337 339 340 340 340 339 338 335 329 324
372 371 372 371 371 370 369 368 368 366 365 364 363 363 363 362 362 360 357 354 352 350 349 347 345 345 344 343 341 339 339 337 336 338 340 339 338 337 336 333 328 325
372 372 372 371 370 369 368 368 367 365 365 364 362 362 361 360 361 359 356 353 351 349 348 346 345 344 343 341 339 338 338 336 336 338 339 337 337 336 333 331 327 327
373 372 372 370 369 368 367 366 365 365 364 362 361 361 360 359 359 357 354 351 348 347 346 344 343 342 341 339 338 337 337 336 336 338 337 336 335 334 332 329 327 330

ECMWFNIL_925_thetae_042.txt.gz
Theta_e
357 357 357 358 358 357 356 355 356 356 356 356 356 356 355 355 355 354 353 352 351 348 347 347 348 347 343 339 338 338 336 334 335 337 339 337 336 336 335 334 335 337
358 357 357 358 358 358 357 356 355 356 356 355 355 355 355 354 355 354 353 353 351 349 348 347 347 344 340 338 340 339 336 335 336 339 340 338 337 336 335 336 337 338
359 358 358 358 358 358 358 357 356 356 356 355 354 355 354 354 354 353 352 352 350 349 348 347 346 342 339 339 341 339 336 337 338 339 339 339 337 336 335 337 338 338
359 358 359 358 359 358 358 358 357 357 356 356 355 354 354 353 353 352 352 351 350 350 348 347 345 341 339 340 341 339 337 338 339 337 337 337 337 335 335 338 338 338
359 359 359 359 359 359 359 359 359 358 357 356 354 353 353 353 352 352 352 351 350 350 348 346 344 340 338 340 341 339 339 340 339 337 336 336 336 336 336 338 338 339
360 359 360 360 360 359 359 359 360 359 357 355 354 353 353 352 352 352 351 351 350 349 347 345 343 340 337 339 341 340 340 341 340 337 336 337 337 337 338 337 338 339
360 360 360 360 360 360 360 359 359 359 358 356 354 353 353 353 353 352 351 351 349 348 347 345 343 340 338 338 340 341 341 341 340 338 337 338 339 339 338 338 338 339
361 361 360 360 360 360 360 359 359 359 357 357 355 354 354 353 353 352 352 351 349 347 347 345 342 341 339 338 339 340 341 340 340 339 338 339 340 339 339 338 338 338
361 362 361 361 361 360 361 360 359 359 357 357 356 354 354 353 353 352 351 350 349 347 346 345 343 342 341 338 337 339 341 340 340 339 338 338 339 340 340 339 338 338
362 362 362 361 362 361 361 361 360 359 358 357 356 355 354 354 352 351 350 349 348 347 346 345 344 343 341 340 337 338 340 340 339 339 339 338 339 339 340 339 338 338
362 363 362 362 361 361 361 361 360 360 359 358 357 356 355 354 352 351 349 348 347 347 346 346 345 343 342 340 338 338 340 340 338 338 338 338 339 339 340 340 339 338
362 363 363 362 362 361 361 361 361 360 359 359 357 356 355 354 352 350 349 348 348 347 346 346 345 344 342 341 339 338 340 340 339 338 338 338 338 338 339 339 338 338
363 363 363 362 362 362 361 361 361 360 360 359 358 357 355 354 352 351 349 349 348 347 347 346 345 345 343 342 341 340 340 341 340 340 339 338 338 338 338 339 339 339
363 363 363 362 362 361 361 361 361 360 360 360 359 358 356 355 353 351 350 349 348 347 347 346 345 345 344 343 342 341 340 341 341 341 340 339 339 338 339 339 339 339
363 363 363 362 362 362 361 360 360 361 360 360 359 358 357 356 354 353 351 349 349 348 347 346 345 345 344 343 343 342 341 340 340 341 341 341 340 339 339 340 339 339
364 364 363 363 362 361 361 360 360 360 360 360 360 359 358 357 355 354 352 350 349 348 347 347 346 345 345 344 343 342 341 340 340 341 341 341 340 339 340 340 340 340
364 363 363 363 363 362 361 361 360 360 360 360 360 359 358 358 357 355 354 352 351 349 348 348 347 346 345 344 343 342 341 340 340 341 340 340 340 339 339 340 340 340
364 364 364 363 363 362 361 361 360 360 360 360 360 360 359 358 358 357 355 354 352 350 350 348 347 346 345 345 344 343 342 340 341 341 341 340 340 340 339 339 339 340
365 364 364 363 363 362 362 362 361 360 360 360 360 360 360 359 359 357 357 355 353 352 351 350 349 347 346 345 344 344 343 341 341 341 341 341 340 340 340 339 339 339
365 365 364 363 363 363 362 362 361 360 360 360 360 360 360 360 359 358 357 357 355 354 352 351 350 348 347 346 345 345 345 343 342 341 340 341 340 339 339 339 339 338
366 365 365 364 363 363 363 362 361 361 360 360 360 360 360 360 360 359 358 357 356 355 353 352 350 349 348 346 345 346 345 344 343 341 340 340 340 339 339 339 339 339
366 365 365 364 363 363 363 362 362 361 361 360 360 360 360 360 360 360 359 358 357 356 353 352 351 350 348 347 346 347 346 344 343 341 340 339 339 339 339 339 339 339
366 366 365 364 364 363 363 362 362 362 361 361 360 360 361 361 361 360 359 359 357 356 354 353 351 350 349 347 347 347 346 344 342 342 340 339 338 338 339 340 340 339
366 365 365 364 363 363 363 362 363 362 362 362 361 361 361 360 361 361 360 359 357 356 355 353 352 350 349 348 348 347 346 344 342 341 340 339 338 338 339 339 340 339
366 366 365 365 364 363 363 363 363 363 363 362 362 362 361 361 361 360 359 359 357 356 355 354 352 351 349 348 348 347 346 344 342 341 340 339 338 337 338 339 339 340
365 365 365 365 364 364 363 363 363 363 363 362 362 362 362 361 361 360 359 358 357 356 355 354 353 351 349 348 348 347 346 344 342 341 340 339 338 337 338 338 339 339

ECMWFNIL_925_thetae_045.txt.gz
Theta_e
355 356 355 355 355 354 354 354 355 356 356 357 357 357 356 355 355 356 357 357 356 355 355 354 351 347 346 346 345 344 342 339 338 337 338 338 336 334 335 337 338 337
355 356 355 355 355 354 354 354 355 356 356 356 356 356 356 355 354 355 356 356 355 355 354 352 349 347 347 348 347 345 342 338 338 339 339 338 335 334 335 336 337 335
355 356 355 355 355 354 354 354 355 356 356 356 356 356 355 354 354 356 356 355 354 354 352 350 348 348 349 349 348 346 343 339 338 339 338 336 335 335 335 336 335 334
356 355 355 355 355 355 354 354 355 355 355 355 355 355 354 354 355 356 355 354 353 352 350 349 349 348 349 349 349 347 344 341 338 338 337 334 335 337 336 336 335 335
356 356 355 355 355 355 355 355 355 355 355 354 354 354 354 354 355 355 355 354 353 352 350 350 349 349 349 349 348 347 345 341 338 338 337 335 336 338 338 336 336 335
356 356 356 356 355 355 355 356 356 355 355 354 354 354 354 354 355 355 355 354 353 352 351 351 351 349 348 348 347 348 346 341 339 339 337 335 337 339 339 338 336 336
357 356 356 356 356 355 355 355 355 356 355 355 354 354 355 355 355 355 354 354 353 353 352 351 351 350 348 347 347 346 343 339 339 339 337 336 338 338 339 339 337 335
357 357 357 357 356 356 356 355 356 356 356 356 355 355 355 354 354 354 354 354 353 353 352 351 351 350 348 347 346 344 341 339 339 340 338 336 338 338 337 337 337 336
357 357 357 357 357 356 357 356 356 356 356 356 356 355 354 354 354 354 353 353 353 352 352 351 350 350 348 347 345 343 341 339 340 340 338 337 338 338 337 336 337 337
357 357 357 357 358 357 357 357 356 356 356 356 356 355 355 354 354 354 353 353 352 351 351 351 350 349 348 347 345 343 341 339 339 340 339 338 339 339 338 336 337 338
358 358 357 358 358 358 358 357 357 357 357 357 357 356 355 355 354 353 353 352 351 351 350 350 349 349 348 347 345 344 341 339 338 339 339 339 340 340 338 337 337 338
358 358 358 358 358 358 358 358 358 357 357 357 357 356 356 355 354 353 352 352 351 351 350 350 349 348 348 347 345 343 342 339 338 338 339 340 340 340 339 338 338 339
359 359 359 358 358 358 358 358 358 358 358 357 357 357 356 355 354 353 352 352 351 351 350 349 349 348 347 346 345 343 342 340 339 338 338 339 340 340 339 339 338 338
359 360 359 359 359 359 358 359 359 358 358 358 357 357 356 356 355 353 352 352 351 351 351 350 348 348 347 345 344 343 342 341 340 338 337 338 339 339 339 339 338 338
360 360 360 360 360 359 359 359 359 359 358 358 358 357 357 356 355 354 353 352 351 351 350 350 348 348 347 346 344 343 342 342 341 339 338 337 338 338 338 338 338 338
360 360 360 361 360 360 360 359 359 359 359 359 359 358 357 356 355 354 353 352 351 350 350 349 349 348 347 345 345 344 343 342 342 341 339 338 337 338 338 338 337 337
361 360 360 361 360 361 360 360 360 359 359 359 359 358 358 357 356 354 353 352 351 351 350 349 349 348 347 346 345 344 344 343 342 341 340 339 338 338 338 338 338 338
361 361 361 361 361 361 360 360 360 359 360 359 359 359 358 357 356 355 354 353 352 351 350 349 349 348 347 346 345 345 344 344 343 342 341 340 339 338 338 338 338 338
361 361 361 361 361 361 361 360 360 360 359 359 359 359 358 358 357 356 355 354 353 352 351 350 349 348 347 346 346 345 345 345 344 343 342 341 340 339 338 338 338 338
362 362 362 361 362 361 361 361 360 360 359 359 359 359 358 358 358 356 356 355 354 353 352 351 350 349 348 347 346 346 345 345 345 344 343 342 341 340 339 338 338 338
363 363 362 362 362 361 361 360 360 360 359 359 359 358 358 358 358 357 357 356 355 354 353 352 351 350 349 348 347 346 346 346 346 344 343 342 341 340 339 339 339 338
363 363 362 362 362 361 361 361 360 360 359 359 359 358 358 358 358 358 357 356 356 355 354 352 352 351 350 349 348 347 346 346 346 344 343 342 342 341 340 339 339 339
363 363 363 362 362 362 361 361 361 360 359 359 358 358 358 358 357 358 357 357 356 355 354 354 353 352 352 350 349 348 347 347 346 344 343 342 341 341 340 339 339 339
363 363 363 362 362 362 362 361 361 360 360 359 359 358 358 358 358 358 357 357 357 356 356 355 354 353 353 352 351 349 348 347 347 345 343 341 340 340 339 339 340 340
362 363 363 363 362 362 362 361 361 361 360 360 359 359 358 358 358 358 358 358 357 357 357 356 355 355 354 353 352 350 349 349 347 345 342 340 340 339 339 339 339 339
362 362 363 363 363 363 362 361 361 361 360 360 359 359 358 358 358 358 358 358 358 357 357 356 356 355 354 354 352 351 350 349 347 344 342 340 340 339 338 338 338 338

ECMWFNIL_925_thetae_048.txt.gz
Theta_e
354 354 353 353 353 352 352 353 353 353 354 354 354 354 354 354 353 354 355 355 354 355 356 356 357 356 355 355 354 353 348 345 344 343 342 341 338 337 337 336 335 337
354 354 354 353 353 353 353 353 353 353 353 353 353 353 354 353 353 353 354 355 355 355 356 356 356 356 355 354 355 353 349 345 344 343 342 341 339 337 337 337 335 335
354 354 354 354 353 353 353 353 353 353 352 352 353 353 353 353 352 352 354 355 355 355 355 355 355 356 355 354 355 354 349 345 344 343 343 343 339 338 337 337 336 335
354 354 354 354 354 353 353 353 353 353 353 352 352 352 352 352 352 353 354 355 355 356 355 355 355 355 354 354 354 354 348 345 344 344 344 343 339 337 338 337 336 334
354 354 354 354 354 354 353 353 353 353 353 352 352 351 351 352 353 354 355 355 355 356 355 355 355 355 354 353 354 353 349 346 346 346 346 344 340 338 338 337 335 334
354 354 354 354 354 354 353 353 353 353 353 353 352 351 351 352 354 355 355 355 355 355 355 355 355 354 353 353 353 351 349 347 347 347 347 345 341 339 338 337 335 335
354 354 354 354 354 354 354 353 353 353 353 353 352 351 351 352 354 354 354 354 354 354 354 354 355 354 353 352 351 350 348 347 348 348 347 345 342 340 338 336 335 336
354 354 354 354 354 354 354 354 353 354 353 353 352 352 352 352 353 354 354 354 354 353 354 354 355 354 352 351 350 349 348 348 348 348 347 345 343 341 338 337 336 336
354 355 354 354 354 354 354 354 354 354 353 353 353 352 352 352 352 354 354 354 354 353 354 354 355 354 352 351 350 349 349 348 348 347 346 345 344 342 339 337 337 337
354 355 354 354 354 354 354 354 354 354 354 353 353 352 352 353 352 353 353 353 353 353 354 354 354 354 352 351 351 349 349 349 348 347 345 345 344 342 340 337 337 337
354 355 354 354 355 354 354 354 354 354 354 354 354 353 353 353 353 353 353 353 353 353 353 353 353 353 352 351 351 350 350 349 348 347 345 345 344 342 339 338 338 338
354 355 355 355 355 354 355 355 354 354 354 354 354 354 354 353 353 353 353 353 353 353 353 353 353 352 352 352 351 351 350 349 348 347 345 344 343 342 340 339 338 338
354 355 355 355 355 355 355 355 355 355 355 354 354 354 354 353 353 353 353 353 353 352 352 352 352 352 352 351 351 350 349 348 347 346 345 344 343 341 340 339 338 338
354 354 355 355 355 355 355 355 355 355 355 355 355 355 354 354 353 353 353 353 353 352 352 352 351 351 351 351 350 350 349 348 347 346 344 343 342 341 340 339 339 338
354 354 354 355 355 355 356 356 356 356 356 355 355 355 355 355 354 353 353 353 352 352 352 352 351 351 351 351 350 349 348 347 346 346 345 343 342 341 340 339 338 338
355 355 355 355 355 355 356 356 356 356 356 356 356 355 355 355 355 354 353 353 352 352 352 351 351 350 351 351 350 349 348 347 347 346 345 343 342 340 340 339 338 338
355 355 356 356 356 356 356 356 356 356 356 356 356 356 356 355 355 355 354 353 353 352 351 351 351 350 351 351 350 349 348 347 347 346 345 343 342 340 340 339 338 338
356 356 357 357 356 357 356 356 356 356 356 357 357 357 356 356 355 355 354 354 353 352 352 351 351 351 351 350 350 349 349 348 347 346 345 343 342 341 340 338 337 337
356 356 357 357 357 357 357 357 357 357 357 357 357 357 357 356 356 356 355 354 353 353 352 352 351 351 351 350 350 350 349 348 347 346 344 343 342 341 339 338 338 338
356 357 357 357 358 357 358 358 357 357 357 357 357 357 357 357 356 356 355 355 354 353 352 352 351 351 351 350 350 350 349 348 347 346 344 343 342 340 340 341 340 339
357 357 357 358 358 358 358 358 358 358 358 357 358 357 357 357 357 356 356 355 354 354 352 352 351 351 351 350 350 350 349 348 347 345 344 343 341 340 341 343 342 339
357 358 358 358 358 358 358 358 358 358 358 358 358 358 358 358 357 357 357 355 355 354 353 352 352 351 351 350 350 350 349 348 346 344 343 343 342 342 342 343 342 340
358 358 358 358 358 359 358 359 359 359 359 359 358 358 358 358 357 358 357 356 356 355 354 353 352 352 351 350 350 350 348 347 345 343 343 343 342 343 343 342 341 340
358 359 359 359 359 359 359 359 359 359 359 359 359 358 358 358 358 358 357 357 356 355 355 354 353 353 352 351 351 350 349 347 344 343 343 343 343 343 342 342 341 340
359 360 360 360 360 360 360 359 359 359 359 359 359 359 358 358 358 357 357 357 357 356 355 354 354 353 352 352 351 350 349 347 344 343 343 343 343 343 341 341 340 340
359 360 360 360 360 360 360 360 360 360 360 359 359 359 358 358 358 358 357 357 357 356 356 355 355 354 353 353 352 351 350 348 345 344 343 343 344 343 341 340 339 339

ECMWFNIL_925_thetae_051.txt.gz
Theta_e
355 354 353 353 354 353 354 353 352 353 354 354 354 353 351 350 351 351 352 353 354 356 358 358 357 356 353 354 356 356 356 354 354 353 348 345 345 345 343 342 340 337
355 355 354 354 353 352 352 351 351 351 351 352 352 351 351 350 350 350 351 353 353 355 357 358 358 356 354 354 356 356 356 355 354 353 350 346 345 344 343 342 340 337
356 356 355 354 354 352 352 352 351 351 351 351 351 351 351 351 351 351 351 352 353 354 356 357 358 357 356 355 355 356 356 355 355 354 352 348 345 344 343 341 339 337
356 356 355 355 355 354 353 353 353 351 351 352 352 351 352 352 352 352 352 352 352 353 355 357 357 357 357 356 355 355 356 356 355 354 353 349 345 343 342 342 340 338
356 356 356 356 356 355 354 354 353 353 352 352 352 352 352 352 352 353 352 353 353 353 355 357 357 357 357 357 356 355 356 355 355 354 353 350 345 343 343 343 341 338
356 356 356 356 356 356 356 354 353 353 353 353 352 352 352 352 352 353 353 353 353 354 355 355 356 357 357 357 356 355 356 355 354 354 353 350 346 344 344 344 342 339
357 357 356 356 357 356 356 355 354 354 353 353 353 352 352 352 353 353 352 353 353 354 354 353 354 356 355 356 356 355 355 355 354 354 353 350 347 345 345 346 344 340
357 357 356 357 357 357 357 356 355 354 353 353 353 353 353 352 353 352 352 353 353 353 353 352 352 354 353 354 355 355 355 354 353 353 352 350 347 346 346 346 345 342
357 358 357 357 357 357 357 357 356 355 354 353 354 353 353 352 352 353 352 352 352 352 352 351 351 353 352 352 353 354 354 354 353 353 352 350 347 346 346 346 345 343
358 358 357 357 357 357 357 357 357 356 355 354 354 354 354 353 352 353 353 352 352 352 353 352 351 351 352 352 353 353 354 354 353 352 351 350 348 347 347 346 345 344
358 358 358 358 357 357 357 357 357 357 356 355 355 355 355 354 353 353 353 353 352 352 352 352 351 351 351 353 353 353 353 354 353 352 350 349 348 347 347 346 346 344
357 358 357 357 358 357 357 357 357 357 357 356 355 355 355 355 354 353 353 353 352 352 352 351 351 351 351 352 353 353 353 353 352 351 350 349 348 347 347 347 346 345
357 358 357 358 358 358 357 357 357 357 357 357 356 356 356 356 355 354 354 353 352 352 352 352 351 352 352 352 353 352 353 353 352 351 350 349 348 347 347 347 347 345
357 357 358 358 358 358 358 357 357 357 357 357 357 357 356 356 356 356 355 353 353 352 352 352 352 352 352 353 353 353 353 352 352 351 350 349 348 347 346 346 347 346
357 357 358 358 358 358 358 358 358 358 358 358 357 357 357 357 356 356 356 355 354 353 353 353 353 352 352 353 353 353 352 352 351 351 350 349 347 347 346 345 346 345
355 357 358 358 358 358 358 358 358 358 358 358 358 357 357 357 357 357 357 356 355 354 353 353 354 352 352 352 352 352 352 351 351 350 349 349 348 346 346 345 344 343
354 356 358 358 358 358 358 358 358 358 358 358 358 358 357 357 357 357 357 357 356 355 355 354 354 353 352 352 352 352 352 351 351 350 349 348 348 346 346 345 344 343
355 356 357 358 358 359 358 358 359 359 359 359 359 359 358 358 358 358 357 357 357 357 356 355 354 353 352 352 352 351 351 351 350 350 349 348 347 347 346 344 344 343
356 357 357 357 358 358 358 358 359 359 359 360 359 359 359 359 359 358 358 358 357 357 357 356 355 354 353 352 352 351 351 350 350 350 349 348 347 346 346 345 344 344
357 357 358 358 358 358 359 359 359 360 360 359 359 359 359 359 359 359 359 358 358 358 357 356 356 355 354 353 352 352 350 350 349 349 349 348 348 347 346 345 345 345
357 358 359 359 359 359 360 359 360 360 360 360 360 360 360 360 359 359 359 359 359 358 357 357 356 355 354 353 352 351 351 349 349 349 349 348 348 347 346 346 346 346
357 358 359 360 360 360 360 360 360 360 361 360 360 360 360 360 360 360 359 359 359 358 358 358 357 356 354 354 352 352 351 349 348 348 349 348 348 347 346 346 346 345
358 359 360 360 361 361 361 360 361 361 361 361 361 360 360 360 360 360 360 359 359 359 358 358 358 357 355 354 353 351 351 349 347 348 349 348 348 347 346 346 346 345
358 359 360 360 360 361 361 361 361 361 361 361 360 360 360 360 360 360 360 360 360 359 359 358 358 358 356 354 353 352 351 349 347 348 349 349 348 347 346 346 345 345
357 358 359 360 361 361 361 361 362 362 361 361 361 361 361 361 360 360 360 360 360 360 359 358 359 358 356 355 354 352 351 349 348 348 349 349 349 348 346 346 345 345
358 358 359 360 361 361 361 361 362 362 362 362 362 361 361 361 360 360 360 360 360 360 360 358 359 359 357 356 354 353 352 350 348 348 349 350 350 349 348 346 346 345

ECMWFNIL_925_thetae_054.txt.gz
Theta_e
361 361 361 361 361 361 361 361 361 362 361 360 361 361 362 361 361 361 362 365 365 363 362 361 360 359 359 359 360 360 359 359 357 357 355 354 353 351 349 349 347 344
361 362 362 362 362 361 361 361 361 362 362 361 361 361 362 363 363 363 363 365 365 364 363 361 360 360 359 359 360 360 360 359 358 357 356 355 354 352 350 349 348 346
363 363 363 362 362 362 361 361 362 362 362 362 362 361 362 363 364 364 364 364 365 364 364 362 361 361 359 359 359 360 360 359 358 357 356 356 354 353 351 349 347 346
364 363 363 362 361 362 362 361 362 362 361 361 362 361 362 362 363 365 365 364 364 364 364 363 362 361 360 359 359 359 359 359 358 357 357 356 355 353 351 349 347 346
364 364 363 363 362 362 362 361 361 362 362 361 361 361 362 362 363 364 365 365 364 364 364 364 362 361 361 360 359 358 358 358 358 358 357 356 355 353 352 350 347 346
365 365 364 364 363 362 362 362 361 362 361 361 361 361 362 362 363 363 363 364 364 363 363 364 363 361 361 361 359 358 358 357 358 358 357 356 355 354 352 350 348 348
365 365 364 364 364 363 363 363 362 362 362 362 362 362 362 363 363 363 362 363 363 363 363 363 363 362 361 361 360 360 359 357 357 358 356 356 355 354 352 351 350 349
365 365 365 365 364 364 363 363 363 363 362 362 362 362 362 363 363 364 363 363 363 363 363 363 364 363 362 362 362 361 360 358 357 358 356 355 355 354 352 352 351 350
365 365 365 365 365 364 364 363 363 364 363 363 362 362 363 363 363 363 363 363 363 364 365 364 364 364 363 363 363 362 361 358 357 357 356 355 354 353 353 353 352 351
365 364 365 365 364 364 364 363 363 363 364 363 362 362 363 363 363 363 364 365 364 364 365 365 364 364 364 363 364 363 361 360 358 358 356 355 355 355 355 354 353 352
365 364 364 364 364 364 363 363 362 362 363 363 363 362 362 363 363 363 364 365 365 365 365 365 365 365 364 364 364 363 362 362 360 359 357 357 357 357 357 355 354 352
365 364 363 364 364 363 362 363 362 362 362 363 363 363 362 363 363 364 364 365 366 365 365 365 365 365 365 364 364 364 363 363 362 360 358 358 358 358 357 356 355 353
364 364 363 363 363 363 362 362 361 361 361 362 363 363 363 362 363 364 364 364 365 366 365 366 366 365 365 364 364 364 364 363 362 361 360 359 359 358 357 356 355 354
364 364 363 363 363 364 363 362 362 361 361 361 362 363 363 362 362 363 364 364 365 365 365 365 366 366 366 365 365 364 363 363 363 361 360 360 359 358 357 357 355 354
364 364 364 363 364 365 364 363 362 362 362 362 362 363 363 362 362 362 364 365 365 365 365 365 365 366 365 365 365 364 363 362 362 361 360 360 359 358 357 357 356 355
364 364 364 365 364 365 365 364 363 363 363 363 363 363 363 363 362 362 363 364 365 365 365 365 365 365 363 361 362 363 363 362 361 361 360 359 359 359 357 357 356 355
365 365 365 365 365 365 366 365 364 363 364 364 364 364 364 364 363 363 363 363 364 365 365 365 365 364 361 359 359 360 361 362 361 361 360 359 359 359 358 357 356 355
365 366 366 366 366 366 365 366 365 364 364 364 364 365 365 365 364 364 363 362 363 364 365 364 364 363 359 358 358 357 358 360 361 360 360 359 359 359 358 357 356 355
365 366 367 366 367 366 366 367 366 365 365 365 365 365 365 365 365 364 364 363 363 364 364 364 364 363 360 358 357 356 355 356 359 360 360 359 358 359 358 358 357 356
365 366 367 367 367 366 366 367 366 366 365 365 365 365 365 366 365 365 365 365 364 364 364 364 364 363 361 358 357 356 355 354 357 359 359 358 358 358 358 358 358 356
366 366 366 366 367 367 367 366 366 366 366 365 365 365 365 366 366 365 365 365 365 365 364 364 364 362 362 360 358 356 355 354 355 357 358 357 357 357 357 357 357 356
365 365 365 365 366 366 366 366 366 366 366 365 365 364 365 366 366 366 366 365 366 365 364 364 364 362 361 360 359 357 356 354 354 356 358 357 356 356 356 356 355 355
365 364 365 365 365 366 366 366 366 366 366 366 365 364 365 366 366 366 366 365 365 365 363 363 363 363 361 359 359 358 356 354 354 355 357 357 356 355 355 355 355 354
365 364 365 365 365 366 365 366 365 366 366 366 366 365 364 364 365 366 365 365 364 363 363 363 363 363 362 360 359 358 356 354 354 355 356 356 356 355 354 355 354 353
364 364 364 365 365 365 365 365 366 365 366 366 365 365 365 364 364 365 366 366 364 362 362 362 362 363 362 361 360 358 356 354 354 356 356 356 356 355 354 354 353 353
363 364 364 364 365 365 365 365 366 365 365 365 365 366 365 364 364 364 365 365 365 364 363 362 361 362 362 361 360 359 357 355 355 356 356 356 356 355 354 354 353 353

ECMWFNIL_925_thetae_057.txt.gz
Theta_e
364 363 363 361 360 358 358 361 364 365 363 361 359 360 360 360 359 359 360 361 364 365 364 362 363 363 363 363 364 363 361 360 359 358 357 356 354 352 351 351 350 347
363 363 363 362 361 360 359 360 361 363 364 362 359 359 360 361 360 360 360 362 364 366 365 364 364 364 363 362 364 364 363 361 360 359 358 357 354 353 352 352 351 348
364 364 363 362 360 360 360 359 361 362 363 364 362 359 359 361 363 363 362 362 363 365 366 364 364 364 363 361 362 364 364 363 362 360 358 358 356 353 352 353 352 350
364 364 364 362 360 361 360 360 361 362 363 364 363 361 359 359 363 365 364 364 364 365 365 364 363 363 363 361 361 363 364 363 363 360 359 358 358 355 353 352 352 350
365 364 364 363 361 361 362 362 361 362 362 363 363 362 361 360 362 365 366 366 366 366 365 364 364 364 364 364 363 362 362 363 363 362 360 359 359 357 354 353 353 351
365 365 364 364 363 362 363 363 362 362 363 363 362 363 363 363 363 364 365 366 367 366 364 365 365 363 363 364 364 363 361 361 361 362 361 360 359 358 354 353 353 352
365 366 366 365 365 363 363 363 363 363 362 362 362 362 363 364 364 364 365 366 367 366 364 364 365 364 363 364 365 364 362 360 360 362 362 361 360 358 355 354 354 353
365 366 367 366 366 365 364 363 364 364 363 363 363 364 364 364 365 366 365 366 367 366 366 364 364 366 365 365 366 366 363 360 360 361 362 361 360 358 356 354 353 353
367 366 368 368 366 366 365 364 364 365 365 364 363 364 364 364 365 367 366 366 366 367 366 366 366 366 366 365 365 365 364 362 360 361 361 360 358 357 357 355 354 354
368 367 367 368 365 365 364 363 362 363 365 366 364 362 363 365 366 366 367 368 366 366 367 367 366 368 367 366 365 365 365 363 362 361 361 360 358 357 357 357 355 355
368 367 368 367 365 364 363 361 360 361 364 366 365 362 362 364 367 367 368 369 368 367 367 368 367 368 367 366 365 366 366 364 363 362 361 361 360 359 358 357 356 356
369 367 366 365 364 362 361 360 359 359 361 365 365 364 361 362 366 367 367 369 369 368 367 368 369 368 368 367 365 365 366 366 364 362 362 361 360 360 359 357 357 357
368 367 365 364 364 362 360 359 359 358 359 362 365 365 363 361 363 367 368 368 370 369 368 369 370 368 369 368 366 365 366 367 366 363 362 362 360 360 359 358 358 358
369 368 366 364 364 364 361 358 359 359 357 360 363 366 365 362 361 365 368 369 370 370 369 369 370 370 370 369 368 366 366 367 366 364 363 363 362 361 359 359 359 359
369 368 368 366 364 366 364 361 359 359 359 359 362 364 365 364 362 362 367 369 369 370 369 370 371 371 370 370 369 368 367 367 367 365 364 364 363 362 360 360 360 360
370 370 370 369 367 368 369 365 361 361 362 361 362 364 365 365 364 363 364 367 369 370 370 370 371 371 369 367 367 367 367 367 366 366 366 365 364 364 362 361 360 360
372 371 371 371 369 370 371 369 365 364 363 362 363 364 365 366 365 365 364 365 368 370 370 371 371 369 368 366 365 365 366 367 367 367 367 366 365 364 363 362 361 359
372 372 372 372 372 371 372 371 369 366 366 366 366 366 366 366 366 367 365 364 367 369 370 371 371 369 367 365 364 362 363 366 367 366 367 366 366 365 363 362 361 360
372 373 373 372 372 371 372 372 371 369 368 368 369 368 367 368 367 367 368 366 366 368 369 370 371 370 367 364 363 362 361 362 365 367 367 367 365 365 364 363 362 361
373 373 373 373 373 372 372 372 371 371 370 368 368 368 368 370 369 368 370 369 366 367 368 369 369 370 369 365 363 362 361 360 363 366 367 366 366 365 364 364 363 362
373 373 373 373 374 372 372 372 372 372 370 369 368 368 370 370 370 370 370 369 368 367 367 367 368 368 368 368 364 362 361 360 361 364 365 366 366 366 365 364 363 363
372 373 372 373 373 373 373 371 372 372 372 370 368 368 369 370 370 370 369 370 370 368 367 367 367 366 367 367 366 363 361 360 361 362 364 364 366 366 365 365 364 364
372 372 372 373 372 373 372 372 371 372 372 371 368 367 369 370 370 370 370 370 370 369 369 368 367 366 365 365 366 365 363 361 360 362 362 362 364 365 365 364 364 364
371 371 371 372 372 373 372 371 372 372 371 372 369 369 367 367 369 370 370 370 370 369 370 369 368 368 366 365 364 365 363 362 361 361 362 362 362 364 364 363 363 363
370 370 372 372 372 373 371 371 372 371 372 371 370 369 367 366 367 367 370 371 369 369 369 369 368 369 368 366 365 364 363 362 360 361 362 362 362 363 362 363 361 362
369 371 371 370 371 371 370 370 371 370 370 371 370 369 368 367 367 366 367 368 370 369 369 368 368 369 368 367 366 364 363 361 361 362 363 362 363 362 362 362 361 361

ECMWFNIL_925_thetae_060.txt.gz
Theta_e
360 360 360 361 360 359 359 362 363 362 361 362 362 361 361 361 361 361 361 360 361 362 361 360 359 359 360 360 360 360 360 360 361 360 358 356 354 352 351 351 350 348
360 360 361 361 360 358 358 361 363 365 364 362 362 362 362 360 361 360 359 360 360 361 363 360 360 359 359 361 362 361 361 361 360 361 359 358 356 353 352 351 351 350
360 361 361 361 360 359 358 358 360 364 365 364 362 362 362 360 360 359 359 360 361 362 363 362 361 361 360 362 363 362 363 361 360 361 360 359 357 355 353 352 351 352
360 361 361 360 360 360 359 357 358 361 363 364 363 361 361 360 360 359 359 360 361 362 364 364 364 363 363 362 363 363 364 362 361 361 361 359 358 357 355 352 352 351
360 360 359 360 360 360 359 357 356 359 360 362 363 363 360 358 360 361 359 359 360 362 364 365 365 364 364 364 363 363 364 364 363 362 361 360 358 358 356 353 352 352
361 360 360 360 360 359 359 357 356 357 358 359 361 363 362 359 359 362 362 361 360 362 364 366 365 364 364 364 363 362 364 364 364 363 362 361 359 359 357 355 352 353
361 360 359 360 359 358 358 357 356 356 357 358 360 362 363 361 358 360 363 364 363 362 364 366 366 365 364 364 363 362 362 363 363 364 363 362 360 360 359 357 354 353
361 360 359 360 360 359 357 357 358 358 357 359 360 361 362 362 360 358 361 364 365 363 364 365 366 365 363 364 363 362 362 362 363 363 363 363 362 360 360 358 355 353
361 362 360 359 361 360 359 358 359 359 357 359 361 361 361 362 361 361 360 362 365 365 365 364 365 365 364 363 363 363 363 362 362 362 362 363 363 361 360 359 357 354
362 364 363 362 362 362 360 358 358 360 359 358 359 360 362 361 361 362 363 362 363 365 366 365 365 364 364 364 364 363 363 363 362 361 361 363 363 362 361 359 358 356
363 365 365 364 363 363 361 360 358 360 360 359 358 360 361 362 362 362 364 364 363 364 366 366 365 365 365 363 364 364 364 363 363 361 360 361 362 362 361 360 359 356
364 365 365 365 364 362 361 360 359 359 360 361 361 360 359 360 362 363 363 365 364 364 366 366 366 365 365 364 364 365 365 364 364 362 359 360 362 362 361 360 358 357
366 363 362 364 363 361 361 360 359 359 359 362 363 362 358 358 362 363 364 365 366 365 365 366 366 366 366 365 365 365 365 365 365 363 361 360 360 361 361 359 358 357
366 363 361 363 362 360 360 360 359 358 357 359 363 364 362 359 361 364 365 365 366 367 366 366 365 366 366 366 366 366 366 366 366 365 363 362 361 361 361 361 359 357
365 365 362 362 361 360 361 360 359 359 357 358 360 363 364 362 360 361 365 367 367 367 368 366 366 366 366 366 366 366 366 366 365 365 365 364 362 361 361 361 360 359
366 365 365 363 361 363 362 360 359 360 358 357 358 360 363 365 362 359 362 366 368 369 369 369 367 366 366 365 365 364 364 365 365 365 365 365 363 363 362 361 361 360
367 367 366 366 363 363 364 361 359 359 359 357 357 358 361 364 364 362 360 362 367 370 370 370 368 367 366 366 364 363 362 363 363 364 365 365 364 363 362 362 361 359
369 370 369 367 366 364 364 363 361 358 359 358 358 359 360 362 365 365 362 360 364 369 371 371 369 368 367 366 365 363 362 362 362 364 365 366 365 364 363 362 361 360
371 371 370 369 368 366 364 364 363 360 359 360 359 359 360 361 364 365 365 362 362 367 371 371 371 370 369 368 366 364 362 361 362 363 364 365 365 364 363 362 361 361
372 373 372 370 370 368 366 366 365 363 361 360 360 362 360 361 363 365 366 365 363 364 367 370 372 371 371 369 367 365 364 363 362 363 364 364 364 364 364 363 362 362
374 374 373 372 371 370 368 368 368 368 364 361 362 363 362 363 363 365 365 366 364 364 365 368 370 371 371 371 369 367 365 364 363 363 364 364 365 365 365 364 363 362
375 375 375 374 373 372 371 370 371 371 368 365 363 364 364 365 365 365 365 366 367 366 365 366 367 368 370 371 370 369 367 366 365 363 364 364 366 366 366 366 365 364
374 376 376 375 374 374 373 372 373 373 370 369 366 365 367 367 367 367 366 366 367 368 366 366 365 366 367 369 371 370 369 367 366 365 364 364 365 365 366 366 366 365
375 376 376 376 375 375 374 373 374 373 372 370 369 367 368 368 369 368 367 368 368 368 369 367 367 365 365 366 368 369 370 369 367 365 365 365 364 364 365 366 367 367
375 376 376 375 375 376 375 374 374 373 372 372 371 368 367 368 368 370 369 369 369 369 369 369 368 368 366 366 366 366 368 369 368 365 365 365 365 364 364 364 366 366
374 376 376 375 375 375 375 374 373 373 373 373 372 369 368 367 367 369 370 371 370 370 369 368 369 370 368 368 367 366 367 367 367 366 365 365 366 365 365 364 364 364

ECMWFNIL_925_thetae_063.txt.gz
Theta_e
356 356 357 357 356 357 360 359 358 358 358 357 357 358 358 357 356 357 358 358 358 359 359 359 361 362 360 360 360 360 360 359 359 357 356 355 353 349 343 339 341 345
356 357 357 358 357 358 360 360 359 358 358 357 357 358 358 358 358 358 358 359 359 359 359 360 361 361 360 358 359 360 361 360 360 359 357 356 354 353 348 344 343 343
357 357 357 358 359 358 360 361 360 358 357 357 357 358 360 359 360 359 358 359 360 360 360 361 361 360 359 358 359 360 361 361 359 359 358 357 356 355 352 349 347 346
357 357 357 357 358 359 359 360 361 359 357 356 357 357 359 360 361 360 359 360 360 361 360 360 360 360 360 358 358 359 360 360 360 359 359 358 357 356 355 351 350 350
358 357 357 357 357 358 358 360 361 361 359 357 357 358 358 359 360 361 360 360 360 360 360 360 360 360 360 359 358 358 360 360 361 360 359 360 358 357 356 353 351 351
359 358 357 357 357 358 357 357 359 361 361 360 358 359 360 360 359 360 360 361 360 360 360 360 360 360 360 360 359 359 360 361 361 361 360 360 359 358 356 356 353 352
360 360 359 358 357 357 358 356 356 358 362 363 362 360 361 362 361 360 360 360 360 360 360 360 360 360 360 360 360 360 361 361 362 361 361 360 360 360 358 357 355 353
359 360 359 359 359 357 358 356 356 356 358 362 363 363 362 362 362 361 360 359 359 361 361 361 361 361 361 362 361 362 361 363 363 363 362 361 361 360 359 357 357 355
360 360 359 360 359 359 358 357 356 355 356 358 360 362 363 361 360 361 360 360 359 359 361 362 362 362 362 363 363 363 363 363 363 362 362 362 361 361 360 359 358 357
360 360 359 359 360 358 358 357 357 356 356 356 357 358 361 362 361 360 359 361 360 359 360 361 362 363 363 363 363 363 363 363 363 363 362 362 361 361 361 359 359 358
361 360 360 359 359 358 358 357 358 357 355 355 356 356 358 360 362 361 360 360 361 361 360 359 360 362 363 363 364 363 363 362 362 362 362 362 362 361 361 360 359 358
361 361 360 359 359 358 358 358 357 357 356 355 355 356 356 358 360 361 360 359 360 362 363 361 360 361 362 363 364 364 363 362 362 361 361 361 362 362 361 360 359 358
362 361 360 360 359 358 357 357 357 357 357 356 355 355 356 358 359 361 361 360 359 360 362 364 363 362 362 363 365 364 363 362 362 361 360 361 361 362 361 360 359 359
362 361 360 359 358 358 357 357 356 356 355 356 356 356 356 358 359 360 361 361 360 360 360 362 363 363 363 364 364 364 364 363 363 363 362 361 360 360 361 361 360 360
361 361 360 359 359 357 357 356 355 355 354 355 356 357 356 357 358 360 361 361 361 360 360 361 363 364 364 364 364 364 364 363 364 363 363 362 362 361 360 360 360 360
362 361 360 360 359 358 357 356 356 355 355 355 355 356 356 356 356 357 360 361 361 363 363 362 362 363 364 364 363 363 364 364 363 363 363 363 363 362 361 360 360 360
363 362 361 360 360 360 359 358 357 357 356 356 356 356 357 356 356 356 357 360 361 362 362 363 363 363 364 364 364 364 364 363 363 363 363 363 363 362 362 361 360 359
364 362 362 360 360 360 360 359 359 358 357 356 356 358 359 358 357 356 357 359 361 361 362 363 363 363 363 363 364 364 364 364 363 363 363 363 363 364 362 361 361 360
365 364 363 362 360 360 360 360 359 358 358 357 357 358 359 360 360 359 358 358 360 362 363 362 363 364 363 363 363 363 363 363 363 363 363 363 364 363 363 362 362 361
368 366 364 363 363 361 360 361 360 359 358 358 358 357 358 361 362 362 360 359 360 362 364 363 363 363 364 364 363 363 363 363 363 363 363 363 363 363 363 363 362 361
368 368 366 365 364 363 362 361 361 361 359 358 359 358 357 359 361 362 362 361 360 361 363 365 365 364 364 365 364 364 363 363 363 363 363 362 362 362 363 362 362 362
369 369 367 367 366 365 364 362 362 362 360 359 359 358 358 358 359 361 363 363 363 361 361 364 365 364 365 365 364 365 365 365 365 364 363 363 362 362 362 363 362 362
370 370 368 368 367 367 366 365 363 364 362 360 359 358 359 359 358 359 361 362 364 363 362 362 363 364 366 365 365 366 367 367 366 364 363 363 363 363 362 362 363 363
371 371 370 369 369 369 368 366 366 364 363 363 361 359 359 359 359 359 359 360 363 364 364 363 362 363 365 366 367 368 368 368 366 365 364 364 363 364 363 362 363 363
372 372 371 371 370 370 369 369 367 366 366 365 363 361 359 359 360 360 361 361 361 362 363 364 363 363 363 364 367 368 369 370 367 366 365 364 364 364 364 363 364 363
372 372 372 372 372 371 370 371 369 368 367 367 366 364 362 361 361 361 362 362 362 362 363 363 364 364 363 364 365 366 368 369 368 367 365 364 364 364 364 365 363 364

ECMWFNIL_925_thetae_066.txt.gz
Theta_e
353 354 353 353 354 354 352 352 352 354 353 354 354 354 354 354 354 354 355 356 356 355 355 354 354 355 358 360 360 360 360 358 356 356 354 353 352 349 344 344 345 346
353 353 353 353 353 355 355 352 352 353 354 354 354 353 354 354 355 355 354 356 357 356 356 356 355 354 356 360 361 361 360 359 358 357 357 355 354 352 347 344 343 344
354 353 353 354 353 353 355 355 354 353 354 355 354 354 354 355 355 355 354 354 356 357 356 356 356 356 356 359 361 361 360 360 359 358 358 357 355 355 352 349 344 342
354 353 353 354 353 352 353 355 356 354 355 356 355 355 354 354 355 354 354 354 355 356 356 356 357 357 357 358 361 361 359 360 360 358 359 358 357 356 355 354 351 344
354 354 354 353 354 353 353 354 356 356 355 355 356 356 355 354 355 354 355 355 355 356 357 357 358 358 358 358 360 360 359 359 360 360 360 359 358 358 356 355 353 350
354 354 354 354 354 354 354 354 355 356 356 355 356 357 357 355 355 355 355 356 355 356 357 358 358 358 359 359 360 360 358 357 359 360 360 360 359 358 358 356 354 353
354 354 354 354 354 355 355 354 355 357 357 356 356 357 358 357 356 356 356 356 356 357 357 357 358 359 359 360 360 360 359 357 357 359 360 360 359 358 358 358 356 355
355 354 354 354 355 355 355 356 355 357 357 358 357 357 357 358 357 357 357 357 358 358 358 357 357 358 359 360 360 360 360 358 357 358 359 359 360 359 359 358 358 356
355 355 355 355 355 355 356 356 356 357 358 359 357 357 357 357 357 358 358 359 359 359 359 359 358 358 359 360 360 360 360 359 358 358 358 359 359 359 359 358 358 358
356 357 356 356 356 355 355 355 356 356 357 359 359 358 356 356 356 357 357 359 359 359 359 359 359 359 359 359 359 359 359 359 359 358 358 359 359 359 359 359 359 359
357 357 356 357 356 356 355 355 355 356 356 357 360 360 358 357 357 356 357 357 357 358 358 359 359 359 359 359 359 359 358 358 359 359 359 359 359 359 358 358 358 358
358 358 357 357 357 357 356 356 355 355 355 356 357 359 360 359 358 358 358 358 358 357 358 358 359 359 359 360 359 359 359 359 359 359 359 359 359 360 359 359 358 357
358 358 357 357 357 357 357 356 356 356 355 355 355 356 359 360 360 360 359 359 359 359 359 359 358 359 359 360 360 360 361 361 360 359 359 360 360 360 360 360 359 357
358 359 358 357 358 357 357 357 356 356 355 355 354 354 356 358 359 360 360 359 360 360 360 359 359 359 359 359 360 360 361 361 361 361 360 360 360 360 360 361 360 359
359 359 358 358 358 358 357 357 357 357 356 355 355 354 354 355 356 358 359 359 359 359 359 360 360 359 359 359 360 360 361 362 361 362 362 361 361 361 360 360 360 360
360 359 358 359 358 357 358 357 356 356 356 356 355 354 354 354 354 355 357 359 359 359 359 359 360 359 359 358 359 360 360 361 361 362 362 362 361 361 361 360 360 360
360 360 360 359 359 358 357 357 356 356 356 356 355 355 355 354 354 354 354 356 358 358 359 359 358 359 359 359 359 359 359 360 361 361 361 362 362 361 361 360 359 359
361 360 360 359 359 359 358 357 357 356 356 355 355 355 355 354 354 354 354 355 356 357 358 358 358 358 358 358 359 360 360 360 361 361 362 362 362 362 361 361 360 359
363 361 361 361 360 359 358 358 357 356 356 355 355 355 355 355 355 354 354 355 356 357 358 358 357 357 358 358 359 359 360 361 361 361 362 361 362 362 362 361 361 360
364 363 362 361 361 359 359 358 357 356 356 355 355 354 354 355 355 355 355 354 355 356 357 358 358 358 358 359 358 359 359 360 361 361 361 361 362 362 362 362 361 361
366 364 363 362 361 360 360 358 358 358 357 355 355 354 353 354 354 354 355 354 354 355 356 357 357 357 358 359 358 359 359 359 361 362 362 361 361 361 361 362 361 361
366 365 364 363 361 361 360 359 359 358 357 356 355 354 354 354 354 355 355 355 355 354 355 356 356 356 358 358 358 358 359 360 361 361 362 362 362 362 362 361 362 361
367 366 365 363 362 361 359 359 359 358 358 358 356 356 355 355 354 355 355 355 355 355 354 355 355 356 356 357 357 358 360 361 362 361 361 362 361 362 362 362 361 362
367 366 366 364 363 362 361 360 359 359 359 358 357 357 356 356 355 355 356 357 357 357 356 356 355 356 357 357 358 359 360 361 361 361 361 361 361 362 361 362 361 361
367 367 367 366 364 364 362 361 360 359 359 359 358 358 357 356 356 355 356 357 358 358 359 358 357 357 358 359 360 360 361 362 362 361 360 360 361 361 362 361 361 362
367 368 367 366 366 365 364 363 362 361 360 359 359 359 358 357 357 356 356 356 357 359 359 360 360 359 359 360 360 361 362 363 363 361 361 361 361 361 361 361 362 362

ECMWFNIL_925_thetae_069.txt.gz
Theta_e
353 354 353 353 353 353 352 352 352 352 352 352 352 352 352 352 352 351 351 351 352 352 351 348 347 348 350 353 355 357 359 357 357 357 356 354 352 351 350 348 344 343
353 353 354 353 353 352 353 352 352 351 351 351 351 351 352 352 352 351 350 351 351 352 352 350 348 349 351 353 355 358 359 359 359 358 357 355 353 351 351 351 348 345
354 353 353 353 353 353 353 352 352 352 351 351 350 351 352 352 351 351 350 350 350 352 353 351 349 350 351 352 354 356 358 359 359 358 358 357 355 354 353 352 351 348
354 354 353 353 353 352 353 353 352 352 352 351 351 350 351 352 352 351 351 351 351 352 353 352 351 350 352 352 353 355 356 358 359 358 358 358 356 356 355 355 354 352
353 353 353 353 352 352 352 353 353 352 352 352 352 351 351 351 352 352 352 351 351 352 353 353 352 352 353 353 354 355 355 356 359 360 359 359 358 357 357 357 356 355
353 353 353 352 352 352 352 352 353 353 352 351 352 352 352 352 353 352 353 352 352 353 353 353 353 353 353 354 354 355 355 355 357 359 360 359 359 359 357 358 357 356
353 353 353 353 352 352 352 351 352 353 353 352 352 353 352 352 353 353 353 353 352 353 353 353 352 353 353 354 355 355 356 356 356 358 360 359 359 359 358 358 358 357
353 353 352 353 352 352 353 352 352 353 353 354 353 353 354 352 352 354 354 353 353 353 354 354 353 353 353 354 355 355 356 357 357 358 360 360 359 359 359 359 358 358
352 353 352 352 353 352 352 352 352 352 352 354 354 354 354 354 353 354 354 354 354 354 354 354 353 353 353 354 355 356 356 357 358 358 359 359 358 358 357 358 359 358
352 353 352 352 352 352 352 352 352 352 352 352 354 354 354 354 354 355 355 356 355 355 354 354 354 354 354 355 355 356 356 356 357 358 358 359 358 358 357 357 358 358
353 353 352 353 352 352 353 352 352 352 352 352 353 353 354 354 355 355 356 356 356 356 355 355 355 355 355 355 355 356 356 356 357 357 358 358 358 358 357 357 357 357
353 353 353 353 352 353 352 353 353 353 353 353 353 353 354 355 355 356 356 356 356 356 356 356 355 356 356 356 356 357 357 356 357 357 357 358 357 357 357 357 357 357
354 354 353 353 353 353 353 353 353 353 353 353 353 353 354 355 355 356 355 356 356 356 357 357 356 356 356 357 357 357 357 357 357 357 357 357 357 357 357 357 357 357
355 355 354 353 354 353 353 353 353 353 353 353 353 353 354 355 355 355 355 356 356 356 357 357 357 357 357 357 357 358 357 357 357 357 357 357 357 357 357 357 357 357
356 355 355 355 355 354 354 354 353 353 353 353 353 353 354 354 355 356 356 356 356 356 356 356 357 356 357 356 356 357 358 357 358 358 358 357 357 357 357 358 358 357
356 356 356 356 355 355 355 355 354 354 354 353 354 353 353 353 354 356 357 357 356 356 356 356 356 356 355 355 355 356 357 357 358 358 358 358 358 358 358 358 358 358
356 357 357 356 356 355 355 355 355 354 354 354 354 353 353 353 353 354 355 356 357 357 357 357 356 356 355 355 356 355 357 358 358 358 358 359 358 359 358 358 358 358
357 357 357 357 356 356 356 356 355 355 355 355 354 354 354 353 353 353 353 354 355 356 357 357 357 356 356 356 356 357 357 357 358 358 359 359 359 359 359 359 359 359
358 358 358 357 357 356 356 356 356 356 356 355 355 355 354 354 354 353 353 352 353 354 355 356 356 357 357 357 357 357 357 358 358 358 358 358 359 359 359 359 359 359
358 358 358 358 357 357 357 356 356 356 356 356 355 355 355 355 354 354 353 353 353 352 353 353 354 355 356 356 356 357 357 358 358 358 358 358 359 359 359 359 359 359
359 359 359 359 358 358 357 357 356 356 356 356 355 355 355 354 354 354 354 353 353 352 352 352 353 353 353 354 355 355 356 357 357 358 357 358 358 358 359 359 359 359
361 359 359 359 359 358 358 357 357 357 357 356 355 355 355 354 354 354 354 353 353 353 352 352 352 352 352 353 354 354 355 356 357 357 357 357 358 358 359 359 359 360
362 361 360 359 359 359 359 358 358 357 357 356 356 356 355 355 354 354 353 354 353 353 353 353 353 352 353 353 353 354 355 356 357 357 357 357 357 358 358 359 359 359
362 362 361 361 360 360 360 359 358 358 358 357 356 356 355 355 355 354 354 353 353 353 353 353 353 352 352 353 353 354 355 356 357 356 357 356 357 358 358 358 359 360
364 364 363 362 362 361 361 360 360 359 359 358 357 357 356 355 355 354 354 353 353 353 353 353 353 352 352 353 352 353 354 355 356 357 356 356 356 357 358 358 358 359
365 365 364 364 363 363 361 362 361 360 360 359 358 357 356 356 355 355 354 353 353 353 353 353 353 352 353 353 352 352 353 354 355 356 356 356 356 356 357 358 358 358

ECMWFNIL_925_thetae_072.txt.gz
Theta_e
352 351 351 351 351 351 352 352 352 353 353 353 353 352 353 353 352 351 350 350 350 351 351 350 351 351 350 348 347 348 351 353 354 355 354 354 354 352 350 348 348 348
353 352 352 351 351 352 352 352 352 352 353 353 352 352 353 353 352 352 350 350 350 351 351 350 350 351 351 349 348 349 352 353 354 356 356 355 355 354 353 350 349 350
353 353 352 352 351 352 352 352 352 352 352 352 352 352 352 352 352 352 351 350 350 351 351 350 350 351 351 351 350 349 351 353 354 356 357 356 356 356 355 354 352 351
354 353 353 352 352 352 351 352 352 352 352 352 352 352 351 352 352 352 352 350 350 351 350 350 350 350 351 352 351 350 351 352 354 355 357 357 357 357 356 356 355 354
353 353 353 352 352 352 352 352 352 352 352 351 351 351 351 351 351 351 351 350 350 351 350 349 349 349 351 352 352 350 350 351 352 354 356 357 357 357 357 356 356 356
353 353 353 353 352 352 352 352 352 351 351 351 351 351 351 350 350 350 350 350 350 351 350 350 349 349 350 352 353 351 350 350 351 352 354 355 355 356 357 357 357 357
353 353 353 352 352 352 352 352 352 352 351 351 351 351 350 350 350 349 349 349 349 350 351 350 350 350 350 351 353 353 352 351 352 352 353 353 354 355 355 356 357 357
353 353 352 353 352 352 352 352 352 352 352 351 351 351 351 350 350 350 349 349 349 350 350 350 350 350 350 352 353 353 353 353 353 354 354 354 355 355 354 355 356 357
353 353 353 353 352 352 352 352 352 352 351 352 351 351 351 350 351 351 350 350 350 350 350 350 351 351 351 352 353 353 353 353 353 354 354 355 355 354 354 354 356 357
353 353 352 352 352 352 352 352 352 352 351 351 351 351 351 351 351 351 351 351 350 350 351 351 351 351 351 352 352 353 353 353 353 354 354 354 354 354 355 355 356 356
352 352 352 352 352 352 352 352 352 352 351 351 351 351 351 351 351 351 351 351 351 351 351 351 351 351 352 352 352 352 353 352 353 354 354 354 354 354 355 356 356 355
352 352 352 352 352 352 352 352 352 351 351 351 351 351 352 352 352 352 352 352 352 352 352 352 351 352 352 352 353 353 353 353 353 353 354 354 354 355 355 355 356 356
352 352 352 352 352 352 352 352 352 352 351 351 351 351 351 352 352 352 353 352 352 352 352 352 352 352 353 353 353 353 353 353 353 353 354 354 354 355 355 355 355 355
352 352 352 352 352 352 352 352 351 352 351 351 352 351 351 351 352 352 352 352 352 352 352 353 353 353 353 353 353 354 354 354 354 354 354 355 355 355 355 355 355 355
352 352 352 352 352 351 352 352 351 352 351 351 352 352 352 351 351 352 352 352 352 352 353 353 354 354 353 353 353 354 354 354 354 354 355 355 355 356 356 356 356 355
352 352 352 352 352 351 352 352 352 352 351 352 352 352 352 352 352 352 352 352 352 352 353 354 354 353 353 353 353 354 354 354 354 355 355 355 356 356 356 356 356 356
352 352 352 352 352 352 352 352 352 352 351 352 352 352 352 352 352 352 352 353 353 353 353 353 353 353 353 353 354 354 355 355 355 355 355 355 356 356 356 356 356 356
353 353 353 352 352 352 352 352 352 352 352 352 352 352 352 352 352 352 352 353 353 353 354 354 353 353 353 353 354 354 355 355 355 355 355 355 355 355 355 356 356 356
354 354 354 353 353 353 353 353 352 352 353 352 352 352 352 352 352 352 352 352 352 354 354 354 354 354 353 354 354 354 354 354 355 355 355 355 355 355 355 356 356 356
354 354 354 354 354 354 354 354 353 353 353 353 353 353 352 352 352 352 352 352 352 353 353 353 354 354 354 354 354 355 355 355 355 355 355 355 355 355 356 356 356 357
355 355 355 355 355 354 354 354 354 354 354 354 354 353 353 353 353 352 352 352 352 352 352 352 352 352 353 354 354 355 355 355 356 355 356 355 355 356 356 356 357 357
356 356 355 355 355 355 355 355 355 355 354 355 354 354 354 354 353 353 353 352 352 352 352 352 352 351 352 352 352 353 354 355 355 356 356 356 356 356 356 356 356 356
356 356 356 356 356 356 356 356 355 355 355 355 355 355 354 354 354 354 354 353 353 352 352 352 352 352 351 351 351 351 352 353 354 354 355 355 355 355 355 355 356 356
357 357 357 357 357 356 356 356 356 356 356 355 355 355 355 355 355 354 354 354 353 353 353 352 352 352 352 351 351 351 351 352 352 353 353 354 353 354 354 354 355 355
358 358 357 357 357 357 357 357 357 357 356 356 356 356 355 355 355 354 354 354 354 354 353 353 353 353 352 352 352 352 351 351 351 352 352 352 353 353 353 354 354 354
358 359 358 358 358 358 357 357 357 357 357 357 356 356 356 356 355 355 355 354 354 354 353 353 353 353 353 353 352 352 352 352 352 352 352 352 352 352 353 353 354 354

ECMWFNIL_925_thetae_075.txt.gz
Theta_e
354 354 353 353 353 353 353 352 351 350 349 350 350 351 351 351 351 352 352 352 352 352 351 350 351 351 351 351 350 351 351 350 350 351 354 356 355 354 354 353 351 349
354 354 353 353 353 352 352 352 350 350 349 348 349 349 349 350 351 352 351 352 352 352 351 350 350 350 351 351 350 352 353 352 351 352 355 358 357 355 354 354 353 351
355 354 353 353 353 352 352 352 351 350 350 349 348 349 349 350 351 351 351 351 351 352 351 350 351 350 351 351 350 352 354 352 350 350 354 358 358 357 356 356 356 354
355 354 354 353 353 353 353 354 352 351 351 351 349 349 350 351 352 352 352 351 351 352 351 350 350 350 351 351 351 353 355 355 351 348 352 357 359 359 357 357 357 357
355 355 354 354 354 354 354 353 352 352 352 351 350 350 351 351 352 352 352 351 351 352 352 351 350 350 351 351 351 354 357 358 355 350 351 354 357 359 358 356 357 357
356 355 355 355 355 354 354 353 353 352 352 352 352 351 351 351 351 352 352 351 352 353 353 352 351 350 351 352 353 356 358 359 357 354 352 352 354 356 356 354 355 357
357 356 355 355 355 355 354 353 353 353 352 353 352 351 351 351 351 351 351 351 352 353 352 351 351 350 351 353 353 355 357 358 359 358 357 355 354 354 354 352 353 354
356 356 356 356 356 355 355 354 354 353 352 353 352 351 351 351 351 351 350 351 351 352 351 350 350 349 350 352 352 353 356 358 358 358 358 358 357 356 356 354 354 355
356 357 356 356 356 356 355 355 355 354 353 352 352 352 352 351 351 351 351 350 350 350 350 349 349 349 350 351 351 351 354 356 356 357 358 358 358 358 357 356 356 357
357 357 356 356 356 356 356 355 355 355 354 352 352 353 353 351 351 351 351 350 350 349 350 349 349 349 349 350 350 351 352 354 354 355 356 357 357 357 357 357 357 357
357 357 356 356 356 355 356 355 354 355 354 353 353 354 354 353 352 351 351 350 350 350 349 350 350 350 350 350 351 351 351 353 354 353 354 354 354 355 355 356 356 356
357 357 356 356 356 355 356 355 354 355 355 354 354 354 354 354 353 352 352 350 350 350 350 350 350 350 350 350 352 352 352 352 353 353 353 353 354 354 355 355 355 355
356 356 356 356 356 355 355 355 355 354 354 354 354 354 354 355 354 354 352 351 350 350 350 350 350 351 351 350 351 352 352 352 353 354 354 354 354 354 356 356 356 356
357 356 356 356 356 355 355 355 355 354 355 354 354 355 355 355 355 355 354 352 351 350 351 351 351 351 351 351 351 352 353 353 354 354 355 356 355 355 356 356 357 357
356 356 356 355 356 355 355 355 355 355 355 354 354 354 354 355 355 355 355 354 353 353 353 353 353 352 351 352 352 352 353 355 356 355 356 357 357 357 357 356 356 357
355 355 356 356 355 355 355 355 355 355 355 355 354 354 354 355 355 355 356 355 355 355 355 355 355 353 352 351 351 351 353 355 357 356 355 356 357 357 358 357 357 357
355 355 356 355 355 355 355 354 355 355 355 355 355 354 354 355 355 355 355 355 356 356 356 356 355 353 351 350 350 350 352 355 357 357 356 356 357 357 358 358 358 358
355 356 356 355 355 355 354 354 354 355 355 355 355 355 355 355 355 355 355 355 355 356 356 356 355 353 351 351 350 349 350 353 357 358 358 358 358 358 358 359 359 359
356 356 356 356 355 355 354 354 354 355 356 355 355 355 355 355 355 355 356 356 356 356 356 356 355 354 351 350 350 350 350 351 354 357 358 359 359 359 359 359 359 359
356 356 356 356 355 355 355 355 355 355 355 355 355 356 356 355 355 356 356 356 356 356 356 356 356 355 353 351 350 350 350 351 352 355 357 359 359 359 359 359 358 358
356 356 357 357 356 355 355 356 356 356 356 355 355 356 356 356 355 355 356 356 356 356 357 357 356 355 353 353 351 351 351 352 352 354 356 358 358 359 359 358 357 358
357 357 358 357 357 356 356 356 357 356 356 356 356 356 356 356 355 356 356 356 356 356 356 356 356 355 354 353 352 352 352 353 353 353 355 357 358 358 358 358 357 358
358 358 358 358 358 358 357 357 357 357 357 356 356 357 356 357 357 356 356 356 356 356 356 356 356 355 353 353 352 352 353 353 354 354 355 356 357 358 358 358 357 357
358 358 358 358 359 359 358 358 358 358 358 357 357 357 357 357 357 357 357 357 356 356 356 356 356 355 354 353 352 352 352 353 353 354 355 356 357 357 358 358 357 356
358 358 359 358 359 359 358 359 359 358 358 358 358 358 357 358 358 357 358 358 357 357 356 355 356 356 354 354 353 352 352 351 352 354 355 356 356 357 357 357 357 355
358 359 359 359 360 359 359 359 359 359 359 359 359 359 358 359 359 358 359 359 358 358 357 356 356 356 355 355 354 353 352 351 351 353 355 356 356 356 356 357 357 356

ECMWFNIL_925_thetae_078.txt.gz
Theta_e
358 359 359 359 359 358 357 358 357 357 356 355 356 357 357 358 359 359 359 361 360 360 359 359 359 358 358 358 359 359 359 358 358 358 359 360 359 359 358 358 358 357
358 359 358 359 360 359 358 359 358 358 357 356 355 356 358 359 361 360 360 360 360 359 359 360 359 358 358 358 359 359 359 360 359 357 359 360 359 359 359 359 358 359
358 358 358 358 359 359 359 358 359 359 358 358 357 356 358 359 361 362 361 360 359 358 358 358 359 359 358 359 359 359 359 360 360 358 359 360 359 359 359 358 358 358
358 358 358 358 359 360 359 359 360 359 357 358 358 357 357 358 360 361 361 361 360 359 358 359 359 358 358 359 359 359 359 360 361 359 360 360 360 360 359 359 359 358
359 359 359 359 360 361 360 359 360 359 358 357 358 358 359 359 360 360 362 362 360 359 358 359 359 359 358 359 358 359 359 358 359 361 361 361 360 360 359 360 360 359
360 360 360 360 361 361 360 360 359 359 358 358 358 358 359 360 360 359 361 361 360 358 358 357 359 358 359 360 359 359 359 357 358 359 361 361 360 359 359 360 361 361
362 361 360 361 362 361 361 360 359 359 359 359 358 359 359 360 361 360 359 360 359 359 358 357 359 359 358 360 359 359 360 359 358 360 360 360 361 360 359 360 361 363
363 363 361 362 362 361 361 361 361 361 360 359 359 359 359 360 361 360 359 360 359 359 360 359 360 361 360 359 359 360 360 359 358 359 359 359 361 361 361 361 362 364
364 363 363 363 362 361 360 360 361 361 360 360 359 359 360 360 360 359 360 360 360 360 361 360 361 362 360 359 359 361 362 360 358 359 360 360 361 361 362 362 362 363
364 364 363 363 362 361 361 360 360 361 360 360 359 358 360 360 359 359 360 361 362 361 362 362 362 362 361 360 360 361 362 361 360 360 361 361 361 361 362 362 362 363
364 364 363 363 362 361 361 360 360 361 361 361 360 359 359 360 360 359 360 362 362 362 362 362 362 362 361 360 360 361 362 361 361 361 361 362 362 361 362 362 362 362
364 363 363 363 362 361 361 361 360 360 361 361 361 359 358 359 360 360 359 361 362 362 361 362 362 362 362 360 358 359 361 361 360 361 362 363 362 362 362 362 362 362
364 364 363 363 363 362 361 360 359 359 360 361 360 359 358 358 359 360 360 361 362 362 361 362 363 362 362 361 359 358 360 361 361 360 361 363 362 362 361 361 362 362
363 363 363 363 363 363 361 360 361 359 359 361 361 360 359 358 358 360 361 361 362 362 361 361 362 363 363 362 361 359 359 361 362 360 360 361 362 362 360 360 360 360
364 363 363 363 363 363 362 361 361 360 361 361 361 361 359 358 358 358 361 361 362 362 361 361 362 363 363 361 362 362 360 359 361 361 360 360 361 361 361 360 360 357
364 364 364 364 363 363 363 362 362 361 361 361 362 361 360 359 359 359 359 361 361 362 362 362 362 362 361 358 357 359 360 360 360 361 362 361 361 361 360 359 359 358
365 364 364 364 364 364 364 363 362 362 361 362 362 362 362 361 361 360 360 360 361 362 363 362 362 361 359 354 351 352 357 360 362 361 362 362 362 361 361 358 357 358
365 365 365 365 364 365 365 364 363 362 363 363 363 362 362 362 362 361 360 360 361 362 362 362 363 362 358 352 348 347 348 355 360 361 362 362 362 362 361 360 358 357
365 365 365 365 366 365 365 364 364 363 363 363 363 363 363 362 362 362 362 361 361 360 362 362 363 362 358 353 349 347 345 348 355 359 360 361 362 362 362 362 361 361
366 366 366 366 366 366 366 365 364 364 363 363 363 363 363 364 363 362 362 363 362 361 362 361 361 362 361 356 353 351 348 348 352 356 357 358 361 362 363 363 363 363
367 366 365 366 366 365 366 366 365 365 364 363 363 363 363 364 363 362 363 363 362 362 361 361 360 360 360 358 356 354 352 351 352 355 358 358 359 361 362 363 364 364
366 366 366 366 366 366 365 365 365 365 364 363 362 363 363 364 363 363 363 363 363 363 361 361 361 360 359 358 357 356 354 353 353 355 358 358 359 360 361 363 364 365
366 366 366 365 365 365 365 365 365 365 365 364 363 362 362 362 363 363 363 362 362 362 363 362 361 360 359 358 357 357 355 354 355 356 358 359 359 360 361 363 364 364
365 365 365 365 365 365 365 364 364 364 365 364 362 362 361 362 363 363 363 363 362 362 362 362 362 361 361 358 358 356 355 355 356 357 358 360 361 360 361 362 363 362
365 365 365 365 365 365 364 364 364 364 364 364 363 362 360 361 362 363 363 363 362 362 362 362 362 362 361 359 358 356 355 355 356 358 359 360 361 361 361 362 362 362
364 365 365 365 365 365 365 364 364 363 364 363 363 363 362 361 361 361 363 363 363 362 362 361 361 361 361 359 358 357 356 355 357 359 360 360 361 360 361 361 362 362

ECMWFNIL_925_thetae_081.txt.gz
Theta_e
360 361 361 360 359 356 355 358 357 357 354 353 354 354 353 354 355 354 356 358 360 361 361 361 362 361 360 360 360 360 359 359 359 359 360 361 360 359 358 358 357 356
361 362 362 361 361 359 358 358 358 357 356 353 352 353 354 356 356 356 356 358 361 360 361 362 361 362 360 359 360 361 361 360 359 358 359 360 360 360 359 358 358 359
361 362 362 361 361 361 359 359 358 358 357 355 352 352 354 355 357 358 357 357 359 359 359 361 361 361 361 360 359 360 360 361 361 359 358 360 361 360 359 358 357 358
361 361 362 360 361 361 361 359 359 359 358 357 355 352 353 355 357 359 359 359 360 359 359 360 360 360 361 361 360 361 360 361 361 359 359 360 361 360 360 358 358 357
362 362 361 360 360 362 362 361 360 361 359 357 356 354 353 355 356 359 360 360 360 359 358 359 360 359 360 360 361 361 359 359 359 360 361 361 361 360 359 359 360 359
363 363 362 361 361 362 364 362 361 362 360 357 357 356 355 357 357 358 360 360 360 359 356 357 359 359 359 360 361 361 360 357 357 359 361 362 361 359 357 357 359 360
363 364 363 362 362 362 363 364 362 362 360 358 357 357 356 358 359 359 359 359 359 357 354 355 358 359 358 359 361 361 360 359 357 358 360 362 361 360 358 357 358 360
363 364 363 363 362 362 364 365 364 362 361 359 357 357 357 358 360 360 359 359 358 357 355 354 356 358 358 358 360 361 361 359 359 358 360 362 362 361 360 360 359 360
363 363 363 363 363 363 364 364 364 363 362 360 358 358 359 359 360 361 359 360 360 358 358 356 356 359 359 357 358 360 361 360 358 359 360 362 361 361 362 362 360 360
364 364 363 364 363 363 364 363 363 362 361 361 360 358 359 360 360 361 361 361 361 359 360 360 359 360 360 358 357 358 361 361 359 359 360 362 361 360 361 361 360 360
364 363 363 364 363 362 363 362 360 361 362 362 361 358 359 361 361 362 363 363 362 362 362 363 362 362 362 360 358 358 359 361 361 359 360 361 361 361 362 361 361 360
364 363 363 363 363 363 363 361 358 358 360 362 361 359 358 360 362 362 362 364 364 363 363 364 364 364 363 361 359 358 359 360 361 360 361 361 361 362 362 362 361 360
364 363 363 364 364 363 361 360 358 355 358 360 361 360 358 358 361 363 362 363 364 365 364 365 365 365 365 364 360 358 360 361 360 360 361 362 362 362 361 359 359 360
365 364 363 364 364 362 360 359 358 355 356 359 361 360 358 356 358 361 361 362 364 365 365 365 366 366 366 366 363 360 358 361 362 360 360 361 362 361 360 357 355 356
367 365 364 363 364 363 361 359 359 356 355 358 361 360 358 357 355 358 361 361 362 365 365 364 365 366 366 366 365 363 358 358 361 362 360 359 360 360 359 357 355 353
368 366 364 364 364 365 363 361 359 359 357 358 361 362 360 358 356 356 359 361 362 364 365 364 364 365 366 364 364 363 361 357 359 361 361 359 359 359 358 357 355 353
370 368 365 365 365 366 365 363 361 360 358 359 361 363 361 358 357 357 357 360 362 364 365 365 364 364 364 363 361 361 361 360 357 359 362 361 359 360 359 357 354 353
370 369 368 367 367 368 367 365 363 362 361 360 363 364 364 362 359 359 358 358 360 362 363 364 363 362 362 362 360 357 358 359 358 357 359 362 361 360 360 358 356 353
370 370 370 369 369 369 369 368 365 364 364 363 364 365 365 364 361 360 361 359 359 361 363 362 363 363 361 361 359 357 354 355 357 357 356 359 361 361 359 360 358 355
372 371 371 371 371 370 370 369 367 366 366 365 365 365 366 366 364 362 363 361 360 360 362 363 362 363 363 361 360 358 354 352 353 355 356 357 358 360 360 360 360 359
372 373 371 372 372 371 371 370 368 368 367 365 364 365 367 368 366 365 364 365 363 361 362 363 362 361 363 362 360 359 357 354 353 355 356 356 357 359 361 362 363 363
373 372 372 373 372 372 372 371 370 370 369 366 365 364 366 368 368 367 366 366 366 364 361 362 362 361 361 363 362 360 359 357 356 357 357 358 358 359 360 362 363 365
373 372 372 373 372 373 372 371 371 371 369 368 367 365 366 367 368 367 367 367 367 366 364 363 361 361 361 361 362 362 360 358 358 358 360 360 360 360 361 362 364 364
372 373 372 372 373 372 372 371 372 371 370 368 367 365 364 365 367 367 367 367 367 366 366 365 362 360 360 360 361 361 360 359 359 360 361 361 361 361 362 363 364 363
372 372 372 372 373 372 371 372 372 371 371 369 368 366 363 362 364 367 367 367 366 366 366 366 363 362 361 361 360 360 360 359 360 361 361 362 362 362 363 364 364 363
372 373 372 372 372 372 371 370 371 371 370 369 368 366 364 362 362 363 366 367 366 366 365 365 364 363 362 362 361 360 359 358 360 362 362 362 363 363 364 365 364 364

ECMWFNIL_925_thetae_084.txt.gz
Theta_e
348 347 347 347 346 345 347 352 353 352 352 353 354 354 353 353 354 356 357 358 359 360 360 358 359 359 359 361 359 358 359 359 359 359 359 360 361 359 357 356 355 353
350 349 349 348 349 347 347 350 354 355 353 352 353 354 354 352 352 353 355 357 358 361 361 361 361 361 361 361 360 359 359 359 360 359 359 361 361 360 358 357 357 356
352 352 351 351 351 351 349 349 352 355 355 352 351 352 354 353 352 352 355 356 359 361 362 362 362 362 362 361 360 361 360 360 361 359 359 360 361 361 360 358 357 357
354 354 352 352 352 352 352 350 352 355 355 355 352 351 352 354 353 354 355 356 358 361 362 362 363 363 363 362 360 361 361 361 362 360 360 360 360 361 361 360 359 357
355 354 353 353 354 354 353 352 354 356 356 356 354 351 351 353 354 355 356 357 357 360 362 361 362 362 362 362 361 361 362 361 362 361 360 360 361 361 361 360 359 359
355 354 354 355 355 355 357 355 355 355 356 356 354 354 352 352 355 357 358 358 358 360 361 360 361 362 361 362 361 361 362 361 360 360 360 360 361 361 360 360 359 360
357 356 357 358 357 357 359 359 357 357 358 357 355 355 353 352 354 357 359 360 359 360 361 360 360 361 361 361 360 361 362 360 359 358 359 360 361 360 360 359 357 358
360 358 358 359 360 358 360 361 359 358 358 358 357 356 355 352 353 356 358 360 360 360 359 359 359 360 360 360 360 361 362 361 360 358 358 360 361 361 360 359 358 358
361 360 359 361 361 360 360 361 361 360 359 360 358 358 356 354 354 356 357 359 361 361 359 357 357 358 359 360 360 361 362 361 360 358 358 359 361 363 362 360 359 359
362 362 361 361 360 360 360 362 363 362 361 361 359 358 357 356 355 357 358 359 361 360 360 358 357 357 358 359 360 359 361 361 359 358 358 360 361 363 363 362 361 360
363 362 363 362 361 361 361 361 363 363 362 362 360 358 357 358 357 358 359 360 359 360 359 357 356 356 357 358 358 359 360 360 359 358 358 359 360 362 362 361 361 360
364 363 363 363 361 361 361 361 362 363 362 362 361 358 357 358 358 359 360 360 359 359 360 358 356 356 357 357 359 358 359 360 360 359 359 359 360 361 361 360 360 360
365 363 363 363 361 361 361 361 362 362 362 363 361 359 356 357 358 359 360 360 359 359 360 359 357 358 358 358 358 358 358 359 359 359 359 359 359 360 360 361 361 361
365 363 363 362 361 360 360 361 361 361 362 361 362 360 357 356 358 360 361 362 361 360 360 360 360 359 360 360 359 359 358 357 358 359 360 359 359 359 360 361 361 362
364 363 362 362 362 361 360 361 360 360 361 361 362 361 358 357 358 360 362 362 363 362 361 361 361 361 361 361 360 359 358 358 357 358 359 360 359 359 360 360 361 360
364 363 363 362 362 362 361 361 362 361 360 360 361 361 359 357 356 359 362 362 363 365 364 363 363 363 362 362 362 359 358 358 358 359 359 359 360 359 360 360 360 359
364 363 363 363 363 363 362 362 362 361 359 359 360 361 360 358 355 357 361 362 362 364 365 364 364 364 364 363 362 360 358 356 357 359 359 359 359 359 359 360 360 359
366 364 364 363 363 364 363 362 362 362 360 358 359 360 360 359 357 357 358 361 362 363 365 366 365 364 365 364 362 361 358 356 356 358 360 360 359 359 359 359 358 357
367 366 365 365 365 365 364 363 362 361 361 358 358 360 361 361 360 358 357 358 361 362 363 365 365 364 364 364 362 360 359 357 357 356 357 360 360 359 359 359 358 356
368 368 367 366 366 365 365 364 362 363 361 359 359 360 361 362 361 360 358 357 359 361 362 364 364 364 364 363 362 360 358 357 358 357 357 357 359 360 359 358 358 357
370 369 367 367 366 366 367 365 364 363 362 360 359 359 362 364 363 361 360 358 358 360 361 362 363 363 364 363 362 360 359 358 357 358 358 357 356 358 360 360 359 358
371 370 369 368 367 367 367 367 365 364 363 362 360 360 362 364 364 363 362 359 359 359 361 362 361 362 363 362 362 360 360 360 359 357 358 356 355 356 357 359 359 359
372 372 371 369 368 368 369 368 366 365 363 362 361 360 362 364 366 364 363 362 360 359 360 361 360 360 361 362 362 361 360 360 360 359 357 356 355 356 357 358 359 360
373 372 372 371 369 369 369 369 368 366 364 364 363 362 363 364 366 366 364 363 362 361 360 360 360 360 361 361 362 362 361 361 360 360 359 358 355 355 356 357 359 359
374 374 373 372 371 371 371 371 370 366 365 364 363 362 363 363 366 367 367 365 363 363 362 362 361 359 359 360 361 361 362 361 360 361 361 360 358 357 355 356 357 358
374 375 373 373 374 373 372 372 370 367 366 365 364 362 361 362 364 367 368 367 365 364 365 364 363 361 360 360 360 361 362 361 361 362 361 361 361 360 359 359 357 356

ECMWFNIL_925_thetae_087.txt.gz
Theta_e
342 343 342 343 344 344 343 340 338 340 342 344 349 353 354 354 357 358 359 360 358 358 359 356 356 356 356 356 357 358 358 358 358 358 358 358 357 357 358 355 353 352
343 343 343 342 343 343 343 343 340 339 341 342 343 347 349 352 357 357 358 359 358 357 358 357 356 356 356 357 357 357 359 358 359 358 357 359 359 358 358 357 353 351
345 344 343 343 342 343 344 344 343 342 341 342 343 344 345 348 354 356 357 358 357 357 357 356 357 357 357 358 356 356 358 358 358 359 358 358 359 359 358 358 357 355
347 345 345 343 343 342 343 346 348 346 343 343 344 345 346 346 350 354 356 357 357 357 357 356 357 358 357 356 356 355 355 355 355 357 360 359 358 359 358 358 359 358
347 347 345 345 343 342 342 345 348 349 348 346 346 348 349 348 348 351 353 356 357 356 356 357 358 359 358 357 357 357 355 354 354 356 359 360 359 358 356 357 359 359
348 347 346 345 345 344 343 344 346 349 350 349 348 349 351 351 351 349 351 354 356 356 357 357 359 360 360 358 359 359 357 356 355 356 358 359 359 358 356 356 357 359
350 348 347 346 345 345 344 344 345 347 350 351 351 350 351 353 354 352 350 351 355 357 357 358 360 361 361 360 360 360 359 358 359 358 358 358 359 359 358 357 356 357
351 350 348 348 347 346 346 345 345 346 349 352 353 352 351 351 354 353 352 351 354 357 357 358 360 360 361 361 360 360 359 359 360 359 358 357 357 358 358 359 358 357
351 351 350 349 349 348 348 347 347 347 349 351 353 353 353 351 351 352 354 353 354 355 357 359 360 360 361 362 360 360 359 358 359 359 359 358 356 355 356 358 359 359
353 352 351 352 351 349 349 349 349 349 350 351 352 353 354 352 350 352 354 355 354 355 357 358 360 360 360 361 360 359 358 357 356 358 359 359 357 355 355 355 357 358
355 354 353 353 352 352 351 351 352 351 351 352 353 354 354 353 352 353 355 357 356 356 357 358 359 359 359 359 360 359 358 357 356 356 358 359 358 357 356 355 356 356
357 355 354 354 353 353 353 353 354 354 354 354 355 355 355 355 354 352 354 357 358 357 357 358 358 359 359 358 359 359 358 358 356 356 357 357 357 357 356 355 355 356
359 357 356 354 353 353 354 354 355 356 356 356 356 356 356 356 355 354 354 355 357 357 358 358 359 359 359 358 358 358 358 358 358 357 357 357 357 355 355 354 355 357
359 358 356 355 354 354 353 355 355 356 357 357 357 357 357 357 357 355 354 354 355 357 358 359 359 359 359 358 357 358 358 358 359 358 357 358 358 357 355 355 355 355
359 359 357 356 356 355 355 355 356 357 358 359 358 358 358 357 357 356 355 355 355 357 358 359 360 359 359 358 357 357 357 358 358 358 358 357 359 359 358 357 357 356
360 360 359 358 357 356 356 356 357 357 359 360 360 359 358 358 357 357 357 356 356 358 359 360 360 359 358 357 357 357 357 358 358 358 358 358 358 358 359 358 358 358
361 360 360 359 358 358 357 357 357 358 359 361 361 360 359 359 357 357 357 357 357 359 359 359 359 359 359 357 356 356 356 357 358 358 358 358 358 358 358 358 357 358
363 361 361 360 360 360 358 357 359 358 360 361 361 361 361 359 358 357 357 357 358 359 359 359 359 359 358 358 357 356 356 356 357 358 358 357 357 358 358 358 358 357
363 363 362 361 360 360 360 358 359 359 360 361 362 362 361 359 358 357 358 358 358 360 360 360 360 359 358 358 358 357 357 356 356 357 358 357 357 356 357 357 358 358
364 363 363 361 361 361 360 360 359 360 360 360 362 362 361 360 359 357 358 359 359 359 361 361 360 360 359 359 359 358 358 358 357 357 358 358 358 357 357 357 358 358
366 364 364 363 362 361 361 361 360 360 361 360 360 361 361 361 359 358 358 360 361 361 362 362 362 361 360 360 360 360 359 359 359 359 357 357 357 358 358 357 357 358
366 366 364 363 362 362 362 361 360 360 361 360 361 361 361 361 360 359 358 359 360 361 361 362 362 361 361 361 360 360 360 360 361 360 358 358 357 357 358 358 357 357
366 366 365 364 364 363 363 362 362 360 361 361 361 360 361 361 361 360 359 358 359 361 361 362 363 362 362 362 361 361 362 362 362 361 360 359 357 357 357 358 357 357
368 367 366 365 364 364 364 364 363 362 361 362 361 361 360 361 361 360 360 359 358 359 361 361 362 362 362 362 362 362 362 362 363 362 361 360 359 357 357 357 357 358
368 367 366 365 365 364 364 364 364 363 362 361 362 361 360 361 362 361 360 360 359 358 359 360 362 362 362 362 362 362 362 363 362 362 361 361 359 358 357 357 357 358
368 368 368 366 365 365 365 365 364 364 363 362 361 361 360 359 361 362 362 361 361 360 358 358 359 361 361 361 362 362 362 363 362 361 361 361 360 359 357 356 355 354

ECMWFNIL_925_thetae_090.txt.gz
Theta_e
345 344 342 342 342 342 341 343 344 342 345 350 350 350 352 353 356 357 357 358 358 357 355 355 356 356 356 356 357 357 356 355 356 355 353 351 349 348 350 351 350 350
344 345 343 343 342 342 343 345 345 343 344 348 349 350 351 351 353 354 356 358 359 358 356 356 356 356 355 355 356 357 357 356 356 356 356 352 349 351 353 354 354 354
342 344 344 344 343 341 343 345 344 343 343 345 347 349 350 350 351 351 353 355 358 358 357 357 357 355 354 354 355 356 356 357 357 357 357 353 351 354 355 356 357 356
343 343 343 344 345 343 341 341 343 342 343 344 344 346 349 351 351 350 352 354 357 357 357 358 357 355 354 354 356 357 357 357 357 357 358 355 353 354 356 357 357 357
344 342 343 343 345 345 342 340 340 339 339 342 343 344 347 350 351 352 352 354 356 357 356 357 357 356 355 355 355 357 358 357 358 358 358 357 356 355 355 356 357 358
345 344 343 341 342 343 343 342 339 336 336 337 340 342 344 346 349 350 350 353 356 357 356 357 356 356 356 356 356 356 357 357 358 357 358 358 358 356 354 355 357 358
347 345 343 343 341 341 342 341 339 338 337 337 338 339 340 342 344 344 345 349 354 356 357 357 356 355 356 356 356 356 356 356 356 357 356 357 359 358 356 355 356 357
347 346 344 343 343 342 341 340 341 340 339 340 340 339 339 339 341 341 342 346 351 356 357 357 356 356 356 356 357 357 356 354 355 354 353 354 357 359 358 356 355 355
348 348 346 345 344 344 343 341 341 341 341 342 341 341 341 340 340 341 342 345 349 352 356 357 357 356 356 356 357 357 356 355 355 354 351 352 355 357 358 358 356 353
349 348 348 347 346 345 344 342 341 342 343 343 343 343 344 343 343 343 344 346 348 351 354 356 357 357 356 356 356 357 357 355 357 356 353 352 352 353 355 356 356 354
351 349 348 348 347 346 345 343 343 342 343 344 345 345 345 345 345 346 348 349 349 350 352 354 356 357 356 357 356 357 357 356 357 358 356 354 353 352 352 353 354 354
351 350 349 349 347 347 346 345 344 343 342 343 344 346 347 346 347 347 350 352 351 352 351 352 354 356 357 357 357 357 358 358 358 358 357 356 355 353 354 355 354 353
352 351 350 349 349 348 347 346 345 345 343 343 343 345 346 347 348 349 350 351 351 352 353 352 353 356 357 357 357 358 359 359 359 358 357 356 354 354 356 357 356 354
355 352 351 350 350 349 348 347 346 345 345 344 343 345 346 347 348 349 350 350 350 352 353 353 353 355 356 357 358 359 359 360 360 359 358 356 354 353 355 357 357 356
356 355 353 352 350 350 349 348 347 347 346 346 345 346 346 347 348 349 350 351 351 352 352 353 354 355 355 356 358 358 359 359 360 359 359 357 355 353 353 354 356 355
358 357 355 354 353 351 350 350 349 348 348 348 348 347 348 348 349 350 351 351 352 352 353 355 355 355 355 355 356 357 358 359 359 359 358 358 357 354 353 353 353 353
359 358 357 356 355 353 352 351 350 350 350 350 350 350 350 350 351 351 352 352 353 352 354 355 356 356 356 356 355 355 356 358 358 359 358 358 357 356 355 352 352 352
361 360 359 358 356 356 354 352 351 351 351 352 352 353 353 353 353 353 353 353 353 353 354 354 356 356 356 356 356 355 356 358 358 358 358 358 357 357 356 353 352 353
362 361 360 359 358 357 355 354 353 352 352 352 353 354 354 354 355 354 354 354 354 354 354 354 355 355 356 356 356 356 357 358 358 358 357 357 357 357 356 356 354 353
363 362 361 359 359 358 357 355 354 354 353 352 353 354 355 356 356 356 355 355 355 354 355 355 355 355 355 356 355 356 357 358 358 357 357 357 357 356 357 356 356 355
364 363 361 361 360 358 357 357 356 355 354 354 354 355 356 357 357 356 356 355 355 355 355 355 355 355 355 355 355 356 357 358 358 357 356 357 356 356 356 356 356 356
365 364 363 361 360 359 358 357 357 356 355 355 355 355 356 358 358 357 357 356 355 355 355 356 356 356 355 355 355 357 357 358 358 358 357 357 356 356 356 356 356 356
366 365 363 363 361 360 359 358 358 357 356 355 356 356 357 358 359 358 358 357 356 356 356 357 357 356 356 356 355 356 357 358 358 358 357 357 356 356 356 356 356 357
366 366 365 364 363 362 360 360 359 358 357 356 356 357 357 358 359 359 359 358 357 357 357 357 357 357 357 356 355 356 357 357 359 358 358 358 357 357 357 357 356 356
366 366 366 365 363 363 362 361 360 359 359 358 357 357 358 357 359 359 359 359 358 357 357 357 358 358 358 357 357 357 357 357 358 358 358 358 358 358 358 358 357 357
367 367 366 365 365 363 362 362 360 360 360 359 358 358 358 358 359 359 359 359 358 358 358 357 357 358 358 358 359 358 358 359 358 359 358 358 358 359 358 358 358 357

ECMWFNIL_925_thetae_093.txt.gz
Theta_e
349 349 349 348 348 347 348 348 348 349 349 349 349 347 346 347 350 354 355 354 355 355 355 353 353 354 353 354 354 354 355 355 355 354 351 349 348 348 348 348 348 348
349 348 348 348 347 347 346 346 347 349 348 348 348 347 347 346 349 353 355 355 355 356 356 353 353 354 354 354 355 355 355 355 355 356 355 351 348 347 347 348 348 349
348 348 348 347 347 345 345 345 345 347 347 346 346 347 348 348 349 352 355 355 356 355 356 355 352 352 353 354 355 356 355 356 355 355 356 354 351 347 346 347 347 350
348 348 347 346 345 344 343 344 344 346 346 344 343 343 346 348 349 351 354 356 356 356 356 356 354 352 352 354 355 355 355 355 356 356 356 355 353 351 348 347 348 352
347 348 347 346 345 344 343 343 343 344 343 342 341 341 343 347 349 350 352 354 355 356 355 356 356 353 353 355 354 355 354 355 355 356 356 356 355 353 349 348 351 354
346 346 347 346 345 345 344 342 342 343 342 341 342 342 342 344 348 349 350 352 353 354 355 355 356 355 354 355 356 355 354 355 355 355 357 356 357 355 351 350 352 354
345 345 345 346 345 345 344 342 342 342 342 341 343 343 343 343 346 348 349 350 350 351 352 353 355 355 356 357 356 355 354 355 355 355 356 356 357 357 355 353 353 352
346 345 344 344 344 344 344 343 342 342 341 342 343 344 343 343 343 345 346 349 349 349 349 351 353 355 355 356 355 355 354 355 356 356 357 357 357 356 356 355 354 354
346 345 343 343 342 342 344 344 343 342 341 342 343 343 342 342 343 343 344 346 347 348 349 349 351 353 355 356 356 355 354 355 356 356 356 357 357 357 356 355 355 355
346 346 345 344 342 341 342 343 344 344 343 343 342 342 341 340 340 341 343 345 347 347 348 349 349 350 354 355 356 356 355 354 355 355 355 356 356 356 356 355 354 355
346 346 345 345 344 342 341 342 343 344 344 344 343 342 340 338 337 338 342 345 346 346 347 346 345 346 351 354 356 356 355 354 355 355 355 355 354 354 354 353 353 352
348 347 346 345 344 344 341 341 341 341 342 343 343 343 341 340 338 338 340 342 343 343 342 341 341 343 347 351 354 356 356 355 355 355 355 355 354 352 352 351 350 349
349 348 348 346 345 345 343 342 341 341 341 341 341 342 342 342 342 341 341 341 341 341 341 340 340 342 345 348 351 354 356 355 355 355 355 355 355 354 352 353 351 350
351 350 349 348 347 346 345 344 343 342 341 341 341 341 342 343 344 344 343 343 343 342 342 341 342 343 345 347 350 353 355 356 356 356 356 355 356 355 355 355 354 353
351 351 350 349 349 348 347 346 345 344 343 342 341 341 341 342 343 344 345 345 345 345 344 345 345 345 346 348 350 352 353 354 355 355 356 356 355 355 355 356 356 355
352 352 351 351 350 349 348 347 346 346 344 343 343 342 342 342 342 344 345 346 346 347 346 347 348 348 347 348 350 351 352 353 355 355 356 356 356 356 357 356 355 354
353 352 353 352 351 350 349 348 347 347 345 345 344 343 343 343 343 343 345 346 346 347 348 348 349 349 348 348 349 351 352 353 354 355 355 356 356 357 357 356 355 354
354 354 354 353 352 351 350 350 349 348 347 346 345 344 344 344 343 344 344 345 345 347 347 348 348 349 348 348 349 350 351 353 354 354 355 356 356 356 357 356 356 355
355 355 355 353 353 353 351 350 349 348 349 348 347 346 345 345 345 344 344 344 345 346 347 348 348 348 348 349 348 350 350 352 354 355 355 355 355 355 356 356 356 356
356 356 356 355 355 354 352 352 351 350 350 348 347 347 347 346 346 346 346 346 345 346 347 348 348 348 349 349 349 350 351 352 354 355 355 355 355 355 355 356 356 356
358 357 357 357 356 356 354 353 352 351 351 350 350 349 348 348 348 348 347 347 348 348 348 348 349 348 349 350 350 350 351 352 354 355 355 355 355 355 355 355 355 355
360 359 358 358 357 357 356 355 354 353 352 351 351 350 349 350 349 349 350 349 349 349 350 350 350 349 350 350 350 351 352 354 355 355 356 355 355 356 356 355 356 355
359 360 360 359 359 358 357 356 356 355 354 353 352 351 350 351 350 350 351 351 351 351 351 352 351 351 352 351 352 352 353 354 355 355 356 356 355 355 355 355 356 356
356 358 359 360 360 359 358 358 357 357 356 355 354 353 352 352 352 351 352 352 352 352 353 352 352 352 352 352 353 353 353 354 354 355 355 356 355 356 356 356 356 356
357 357 359 361 361 360 360 360 358 358 357 356 355 355 353 353 353 352 352 353 353 353 353 353 353 353 353 353 353 353 354 354 354 354 355 355 355 355 355 356 355 355
358 359 361 363 363 361 361 360 359 359 358 357 356 355 355 354 354 353 354 354 354 354 354 354 354 354 354 354 354 354 354 354 355 354 354 355 355 355 355 356 356 355

ECMWFNIL_925_thetae_096.txt.gz
Theta_e
350 350 350 349 349 349 350 350 350 350 350 350 349 350 349 348 346 347 347 349 352 354 355 356 355 355 354 352 352 352 353 353 354 355 354 353 351 349 349 348 347 347
350 350 349 349 349 349 349 350 349 349 349 349 349 348 349 347 346 345 345 349 353 353 354 356 356 355 354 353 353 353 353 354 354 355 355 355 353 350 349 348 347 347
350 349 349 349 349 349 349 349 349 349 348 348 348 348 348 347 346 345 345 348 352 352 352 354 355 355 354 353 353 353 353 354 354 354 354 355 355 354 352 351 348 347
350 349 349 349 349 349 349 349 348 348 348 348 347 347 347 347 346 346 345 346 349 351 351 353 354 355 354 353 353 353 353 354 355 355 355 355 355 355 355 354 351 348
349 349 349 349 349 348 348 348 348 348 348 348 347 346 346 346 345 345 345 346 347 349 351 353 353 354 355 354 353 352 353 354 354 354 354 355 355 355 356 356 353 350
348 348 348 348 348 348 348 348 348 348 348 347 347 346 345 345 345 343 343 345 347 348 349 351 352 354 355 355 354 352 352 353 354 354 354 354 355 355 355 356 354 351
348 348 348 348 348 347 347 347 347 347 347 347 346 345 345 344 344 342 340 341 345 347 348 348 350 351 353 355 355 353 352 352 353 353 354 353 354 355 355 356 356 353
348 348 347 347 347 347 346 346 346 346 346 345 344 344 343 343 343 341 340 340 342 345 347 348 348 349 351 353 354 354 353 353 353 354 354 353 354 355 355 356 356 354
348 348 347 347 347 346 346 345 345 345 345 344 343 342 342 342 342 341 340 341 341 343 346 347 348 347 348 350 351 354 354 354 354 354 354 354 353 354 354 355 356 356
348 348 347 346 346 346 345 344 345 345 344 343 342 342 342 342 342 341 341 342 342 343 344 345 346 346 347 347 348 351 353 354 354 354 353 353 352 352 353 354 355 355
348 347 347 346 345 345 344 343 344 344 344 343 343 343 343 341 342 342 342 343 343 343 343 343 344 344 345 345 345 346 349 352 354 354 354 353 352 351 351 352 353 353
348 347 347 346 345 345 344 343 343 343 343 344 344 344 343 342 342 342 342 343 343 343 343 342 342 343 343 344 344 345 346 348 350 353 354 354 354 353 352 351 351 351
348 347 346 346 345 344 343 342 342 342 343 343 343 344 343 342 342 342 342 343 342 342 343 342 342 342 342 342 343 345 346 346 347 350 352 353 354 354 353 353 352 351
348 347 346 346 345 345 344 342 342 341 341 341 342 343 343 343 342 342 342 342 341 341 340 340 341 340 341 342 342 343 344 345 346 347 350 352 352 353 353 353 353 352
347 347 346 346 346 345 344 343 342 341 340 340 340 341 341 342 342 343 343 343 342 342 340 340 339 339 339 339 340 341 341 342 343 345 348 351 352 353 353 353 353 353
348 348 347 347 346 345 345 344 344 343 342 340 340 340 339 340 341 342 343 342 342 342 341 340 340 339 338 338 338 339 340 341 342 344 347 350 351 353 353 353 353 352
349 348 348 348 347 347 346 345 345 344 343 342 341 340 340 339 340 340 340 340 340 341 341 341 340 339 338 338 338 339 340 342 343 344 346 349 351 352 353 352 352 352
349 349 349 349 348 348 347 346 346 345 345 344 343 342 341 340 340 340 340 340 340 341 341 341 341 340 339 339 339 339 341 343 344 345 347 349 350 351 352 352 352 353
349 349 350 349 349 349 348 348 348 347 346 346 345 344 343 342 342 341 341 341 341 341 342 342 341 341 340 340 340 340 341 342 345 346 348 349 350 351 351 352 353 353
349 350 350 350 350 350 349 349 349 348 348 347 346 346 345 344 343 343 342 342 342 342 342 342 342 342 342 342 341 341 342 343 345 347 348 349 350 351 351 352 352 353
350 351 351 351 351 351 350 350 349 349 349 348 348 347 346 346 345 344 344 343 343 343 342 343 342 342 342 343 342 342 343 344 345 347 349 350 350 351 352 352 352 353
352 352 352 352 352 352 351 351 351 350 349 349 349 348 348 347 347 346 345 345 344 344 343 343 343 342 342 343 342 343 343 345 346 348 349 350 351 351 352 352 352 353
354 354 353 353 353 353 353 352 352 351 351 350 350 349 349 348 348 347 347 346 345 345 344 344 344 344 344 343 343 343 344 346 347 348 349 350 350 351 351 352 352 353
355 355 355 355 354 354 354 354 354 353 353 351 351 350 350 349 349 349 348 348 347 347 346 346 346 345 345 345 344 344 345 346 347 348 349 350 350 351 351 352 352 353
357 356 356 356 356 356 355 355 355 354 354 353 353 352 351 351 350 350 349 349 349 348 348 348 347 348 347 346 346 346 346 347 348 349 349 350 351 351 352 352 352 353
358 358 358 357 357 357 356 356 355 355 355 355 354 353 353 353 352 351 351 351 350 350 350 349 349 349 349 349 348 348 348 348 349 349 350 350 351 351 352 352 353 353

ECMWFNIL_925_thetae_099.txt.gz
Theta_e
346 346 347 349 349 350 350 349 349 349 350 351 351 350 350 350 350 350 351 353 355 355 355 356 356 356 356 354 352 352 352 353 354 354 353 353 354 354 353 352 352 352
347 345 347 348 348 349 349 349 349 349 350 351 351 349 349 349 349 350 349 351 354 355 355 355 356 356 356 356 354 353 353 353 353 354 354 355 355 356 355 355 355 354
347 346 346 347 349 349 349 349 349 349 350 350 350 349 349 348 348 349 349 349 352 353 353 354 355 355 356 356 355 355 355 353 354 355 354 354 355 356 357 356 356 355
347 346 346 348 349 349 349 349 349 349 349 350 350 350 349 348 348 348 348 348 349 349 350 352 354 354 355 355 355 356 355 354 354 355 354 355 355 355 357 357 357 357
347 346 346 348 349 349 349 349 349 349 349 349 349 350 349 348 348 347 347 347 347 347 347 349 352 353 354 354 354 355 356 355 355 354 354 354 354 355 356 356 357 359
348 348 347 348 349 349 349 349 348 348 348 349 349 349 349 348 348 347 347 347 347 347 348 348 350 352 353 354 354 354 355 356 356 353 353 354 355 355 355 355 356 357
348 348 349 349 349 349 349 349 348 348 348 349 348 348 348 348 348 347 347 346 346 347 348 348 347 349 351 352 353 353 353 354 354 352 352 354 354 354 354 354 355 356
349 350 349 349 350 350 349 349 348 347 347 348 348 348 348 348 348 347 346 345 345 345 345 345 344 346 348 350 350 351 352 354 354 352 352 354 354 353 353 353 354 355
351 351 350 350 350 350 350 349 348 347 346 346 347 347 347 347 347 347 346 345 345 344 344 342 342 343 345 347 347 347 348 351 353 352 353 355 356 355 355 355 354 355
351 351 351 350 350 350 350 349 348 347 346 345 345 346 346 345 345 346 345 344 344 343 343 342 341 341 343 345 346 345 345 346 348 350 351 353 355 356 357 357 356 355
352 352 351 350 350 350 350 348 349 348 346 344 345 345 345 343 344 344 344 343 342 342 342 341 340 341 341 344 344 344 344 343 343 345 347 350 352 353 354 356 357 357
352 352 351 350 350 349 349 348 348 348 346 345 344 344 343 342 343 344 342 341 340 341 341 340 341 340 341 342 343 344 344 343 342 342 342 343 347 350 353 354 355 356
353 352 351 350 349 348 349 348 348 348 347 345 344 343 343 343 342 342 340 340 340 341 341 341 341 340 340 341 342 344 344 343 343 343 342 342 341 346 351 353 356 356
352 352 351 350 349 348 348 348 348 347 347 346 344 342 342 342 342 341 338 338 338 339 341 341 341 341 341 342 341 343 344 344 345 343 345 345 342 342 345 348 352 355
351 351 352 350 349 348 348 348 347 347 347 346 344 343 341 341 341 341 340 339 337 338 340 341 341 341 341 341 341 342 342 345 345 343 345 346 345 344 344 343 345 350
350 350 350 350 349 349 348 347 347 347 347 345 344 343 343 341 341 341 342 341 340 339 339 341 342 340 340 339 340 341 341 343 344 342 342 344 344 345 347 346 343 345
349 350 350 350 349 348 348 347 347 347 346 345 344 344 343 342 343 342 343 344 343 342 342 342 342 340 338 339 339 340 341 342 343 343 341 342 345 347 348 348 347 346
350 350 350 349 349 349 348 348 347 347 346 345 344 343 343 342 343 343 343 344 346 346 346 345 343 340 338 338 339 339 340 341 343 346 347 346 347 349 349 349 351 351
349 351 350 349 349 348 347 348 347 347 347 346 345 344 344 343 342 343 342 343 345 345 346 345 345 342 339 339 339 339 340 340 341 346 349 350 350 350 351 351 351 351
349 350 350 350 349 348 348 349 348 348 348 348 347 346 345 344 343 343 342 341 342 343 343 345 344 343 340 339 338 337 338 338 340 343 348 351 351 351 352 352 351 350
350 350 350 350 350 350 351 350 350 349 348 349 348 348 347 346 344 345 344 343 342 343 343 344 344 343 342 340 339 338 338 339 340 343 346 350 351 351 351 351 350 351
352 350 351 352 352 353 352 352 352 350 349 349 350 349 349 348 347 347 346 346 345 344 345 345 344 344 343 342 341 340 340 341 341 342 344 348 351 352 351 349 348 350
352 350 351 352 353 354 354 353 353 352 351 351 351 351 351 350 350 349 348 348 347 346 346 346 346 346 345 344 344 343 342 342 343 343 345 347 349 350 350 350 348 349
353 351 351 353 354 355 354 354 354 353 353 353 352 352 351 351 351 351 350 350 349 348 348 347 347 348 347 346 346 345 344 343 343 344 345 347 349 349 349 350 349 347
357 355 353 353 354 355 354 354 355 355 354 354 354 353 353 352 352 352 351 352 350 350 350 349 349 349 348 348 347 346 345 344 343 345 347 349 350 350 350 351 350 348
358 359 358 356 355 356 355 355 356 356 356 355 354 353 353 353 353 353 353 353 352 352 351 350 350 350 349 349 348 347 346 345 344 345 347 349 350 352 352 353 352 351

ECMWFNIL_925_thetae_102.txt.gz
Theta_e
357 357 357 357 356 355 355 356 356 357 358 358 358 358 357 358 358 358 359 360 361 361 362 359 358 360 362 362 361 360 361 360 359 359 358 358 357 356 356 355 354 355
358 357 357 356 356 356 355 356 356 356 357 358 358 358 359 358 358 358 358 359 360 360 362 360 359 362 362 362 363 362 363 362 360 359 359 359 358 356 356 355 355 356
358 357 356 355 354 355 355 354 356 357 356 356 357 358 359 357 357 358 357 358 357 358 360 360 361 362 362 363 364 362 363 364 362 361 360 360 360 357 356 355 354 355
359 357 355 354 352 353 355 354 355 356 354 354 355 356 356 355 356 358 358 358 357 356 358 360 360 361 360 362 362 361 364 364 362 363 363 362 361 359 359 357 356 355
359 357 354 353 352 352 355 354 354 355 354 353 353 354 355 357 357 356 357 358 357 356 357 358 359 360 359 360 361 361 362 362 361 363 363 362 362 361 359 359 358 357
359 358 355 353 353 353 355 355 354 354 353 352 353 353 355 357 356 355 354 356 356 354 354 356 358 358 358 360 360 360 360 359 360 363 362 361 361 360 359 360 359 359
359 359 356 354 353 354 355 355 355 354 353 352 353 354 353 354 356 355 354 354 353 353 354 355 357 357 357 358 360 360 360 359 359 362 361 360 360 359 360 360 360 360
359 358 357 355 353 353 355 354 354 354 354 353 352 354 354 354 355 354 355 355 352 352 353 354 356 358 357 357 358 359 360 359 358 360 361 360 359 360 361 360 360 360
358 358 358 356 353 352 352 352 352 353 354 354 353 351 354 354 354 353 355 356 355 354 355 355 356 357 355 355 358 358 359 358 357 359 360 359 359 359 359 359 359 360
359 358 357 356 354 352 351 350 350 352 353 354 352 350 351 353 354 352 354 357 357 356 357 357 356 358 356 354 355 357 357 357 355 357 359 359 358 358 358 358 358 358
359 358 356 356 355 352 351 350 349 349 352 353 353 350 348 350 354 353 353 357 357 356 357 357 357 357 357 355 353 355 356 356 354 356 357 357 357 357 358 358 357 357
358 357 357 357 356 354 352 351 350 348 349 352 352 351 348 348 351 353 353 355 356 354 355 357 357 357 358 356 352 352 354 354 354 355 356 356 355 355 357 357 357 357
358 357 357 356 356 355 352 351 350 349 348 350 350 351 349 347 348 351 353 353 354 352 352 354 357 356 357 357 354 351 352 354 354 353 353 354 353 352 351 352 353 356
358 357 357 357 356 357 355 352 352 351 349 349 350 350 349 347 346 348 351 353 353 352 351 353 355 356 356 356 355 352 351 353 354 352 350 350 351 350 348 348 348 349
358 358 357 357 357 358 356 355 353 353 352 351 351 350 349 347 345 345 348 350 351 352 351 352 353 355 356 354 354 354 351 350 352 353 352 350 351 350 348 347 347 345
359 358 358 358 357 357 357 357 355 354 354 352 353 352 351 349 348 345 345 346 349 352 352 352 351 353 353 349 348 350 353 352 351 353 354 353 352 352 350 347 346 345
358 359 358 358 359 358 358 357 356 355 354 354 354 354 353 352 351 349 346 344 346 349 351 351 350 350 350 345 340 341 346 352 354 354 355 355 354 354 352 350 346 345
358 359 359 359 360 359 359 358 358 356 356 355 355 355 355 355 353 352 350 348 346 346 348 348 348 348 347 344 338 335 337 344 350 352 353 354 354 354 353 352 349 346
358 360 360 359 360 359 359 359 358 357 357 355 355 355 355 355 354 354 354 352 350 348 347 346 346 347 346 344 340 336 334 337 343 347 348 349 351 353 353 353 353 351
357 359 359 359 360 360 359 358 359 358 356 355 355 355 355 355 355 354 354 354 353 351 350 349 348 348 347 346 343 340 338 337 340 344 345 345 348 350 351 352 354 355
356 357 358 359 359 359 359 358 358 358 357 356 354 354 354 355 355 354 354 354 354 353 352 352 350 349 348 347 346 344 343 341 341 344 346 346 347 347 349 351 353 356
355 354 356 357 359 359 359 358 358 358 357 356 355 353 354 355 354 354 353 353 353 353 353 352 351 350 349 347 346 346 346 344 343 344 347 347 347 347 349 351 353 356
357 356 355 356 358 359 358 358 358 358 357 357 356 354 353 353 354 355 354 354 353 353 353 352 352 351 350 348 347 346 345 345 344 346 348 349 349 348 349 351 354 356
352 356 357 356 357 358 358 358 358 358 358 357 356 355 354 353 353 354 355 355 354 353 354 353 353 353 351 349 348 348 346 345 345 347 349 350 351 351 351 352 353 354
346 350 355 357 357 357 357 357 357 356 357 357 357 357 355 354 354 354 355 355 355 355 354 353 354 354 353 352 350 349 348 346 346 349 351 351 353 353 353 354 354 354
344 348 352 355 358 357 356 356 356 356 357 357 357 357 356 356 355 354 355 356 356 356 355 355 355 355 354 353 352 351 350 347 348 350 352 352 353 354 355 356 356 356

ECMWFNIL_925_thetae_105.txt.gz
Theta_e
356 357 358 356 355 353 352 353 353 356 359 359 360 360 359 360 360 360 360 361 361 363 365 364 362 364 365 364 362 361 362 361 361 361 359 358 357 356 357 356 354 355
357 356 357 356 356 354 353 353 352 353 356 359 359 359 358 358 358 358 360 361 360 361 363 364 363 364 364 364 363 362 364 363 362 361 359 359 359 356 357 357 355 356
358 357 357 356 354 354 353 352 353 353 353 356 358 359 359 357 357 358 358 359 360 360 362 363 364 364 363 366 367 364 366 366 362 361 361 360 359 358 357 356 354 355
358 357 356 355 351 352 352 351 353 353 352 353 355 357 358 356 356 358 358 358 358 358 360 360 363 363 362 366 367 363 365 367 363 364 364 362 361 360 358 357 355 355
359 356 356 354 351 351 352 351 351 352 351 351 352 354 355 355 355 356 357 358 357 356 357 358 360 362 363 364 364 362 364 365 363 364 365 364 363 361 358 358 357 356
362 359 355 354 352 351 352 352 352 351 349 350 350 351 353 355 355 355 355 357 356 355 354 355 358 359 359 361 362 362 361 359 359 363 363 362 361 358 358 361 359 358
363 361 357 353 352 352 352 352 352 352 350 348 349 350 350 353 356 355 355 355 354 353 352 352 355 356 356 358 360 361 360 357 359 363 363 362 360 358 360 363 361 359
362 362 360 355 351 351 352 352 353 354 352 348 348 350 349 350 353 354 354 355 354 353 352 352 354 356 355 356 357 359 359 357 357 362 364 363 361 361 361 361 362 360
361 361 360 357 351 349 349 349 352 354 354 351 349 349 349 350 350 351 353 355 355 353 353 354 354 356 356 355 355 357 358 357 355 357 360 360 359 359 359 360 361 361
361 359 358 357 352 348 347 347 348 350 352 354 351 346 348 349 350 349 351 355 355 354 354 354 355 357 357 355 355 356 357 357 355 356 356 357 357 357 357 357 358 359
361 358 355 355 353 348 347 346 346 347 348 352 351 348 345 348 351 351 350 354 356 355 355 356 356 356 356 356 354 354 355 355 354 354 354 355 354 354 355 355 356 356
361 359 355 355 354 349 346 346 344 343 345 348 350 348 346 345 349 351 351 353 356 356 355 356 356 357 356 357 354 351 353 353 352 351 352 353 353 353 353 354 354 354
361 360 357 354 354 352 348 346 345 344 343 345 347 349 347 344 345 350 352 352 355 357 355 355 357 357 356 357 356 351 350 351 350 349 349 351 351 350 350 350 351 352
361 360 359 356 354 354 352 349 346 344 344 343 344 346 348 345 343 345 350 351 353 356 354 354 356 358 357 357 357 355 350 349 351 349 348 349 349 347 347 348 347 348
361 360 360 359 357 356 355 353 349 346 346 344 344 345 346 345 343 342 345 349 351 355 354 352 353 357 358 356 358 357 352 349 350 350 348 347 347 347 346 346 346 345
360 360 360 360 360 359 359 358 354 349 347 346 346 346 345 346 344 343 343 345 349 352 354 352 349 351 355 355 355 356 354 349 347 348 349 348 347 347 346 344 343 343
359 360 361 361 361 361 361 361 359 354 350 348 348 348 348 347 347 346 343 342 345 348 351 352 348 347 350 352 353 352 353 351 347 346 347 349 349 348 348 346 343 342
357 358 360 361 361 362 362 362 362 359 356 354 351 351 352 351 351 350 347 344 342 344 348 350 349 346 346 348 349 347 346 347 346 345 344 347 349 350 349 348 345 343
357 357 359 361 361 362 363 363 363 362 360 356 355 354 354 355 355 353 352 349 346 343 343 345 347 347 346 346 347 345 341 340 342 343 342 343 347 349 350 350 348 347
354 355 357 360 361 361 363 363 363 363 361 358 356 356 357 358 358 357 357 355 352 348 346 345 344 345 346 346 346 346 343 340 340 342 341 340 343 345 348 350 351 352
356 357 357 359 359 359 360 360 361 362 362 359 357 356 357 358 359 358 358 358 357 355 353 350 347 345 347 347 346 346 345 343 343 343 342 340 340 340 343 345 349 352
356 358 359 359 359 359 360 359 359 362 362 361 359 356 356 357 358 360 359 358 358 358 357 354 351 349 348 348 347 346 346 346 345 346 346 345 343 342 342 342 345 348
352 354 357 359 359 359 359 359 360 360 360 361 360 357 356 355 357 358 359 358 358 359 359 357 355 353 351 349 349 348 347 347 347 348 351 350 349 348 347 346 346 347
348 351 353 356 358 359 358 357 358 358 359 359 359 357 356 354 355 356 358 359 358 358 359 358 357 356 354 352 351 350 349 348 347 349 352 352 353 354 353 351 351 350
346 348 351 353 355 357 356 353 352 354 355 357 356 356 357 356 355 354 355 357 357 358 358 358 358 357 356 354 352 352 351 349 348 350 353 353 354 355 355 355 355 353
343 345 348 350 352 355 354 353 352 352 353 353 353 354 353 355 356 356 355 355 355 357 357 357 357 358 356 356 354 353 352 350 349 352 354 353 355 356 356 357 357 356

ECMWFNIL_925_thetae_108.txt.gz
Theta_e
358 359 358 357 357 356 357 358 358 359 360 361 361 359 360 360 357 358 358 358 360 361 362 362 361 361 362 361 360 363 362 359 360 359 358 359 357 356 357 356 355 354
358 358 359 358 358 356 355 356 356 357 358 359 359 358 359 360 359 359 359 359 360 362 363 362 361 360 362 360 357 360 362 361 360 360 359 359 358 356 356 356 355 356
357 358 358 358 358 355 353 353 353 354 357 358 359 359 359 359 358 359 360 360 360 360 362 363 362 361 362 361 358 359 361 361 361 361 359 358 359 357 357 357 356 355
357 357 358 357 357 355 353 353 354 352 355 358 358 359 359 358 358 359 359 361 359 359 360 362 363 361 362 363 361 360 362 361 360 360 359 360 360 358 358 357 355 355
358 357 357 356 355 355 353 352 354 353 353 355 356 358 358 356 357 358 359 360 360 360 360 361 362 361 362 362 362 362 362 362 362 359 358 361 362 360 359 357 357 357
360 357 356 355 354 354 353 351 352 353 352 352 354 356 357 357 357 358 359 359 359 359 359 360 361 362 363 363 363 363 362 360 360 361 361 362 363 361 359 358 357 358
360 359 357 356 354 353 353 352 351 352 352 351 352 354 355 356 356 357 358 359 358 357 356 357 359 360 361 362 363 363 362 360 359 360 361 362 362 362 358 358 359 359
359 359 357 355 355 353 352 352 351 352 351 350 351 351 353 355 357 356 356 357 357 355 354 354 355 357 358 359 360 361 362 362 359 358 361 362 362 361 357 357 361 360
360 360 359 355 353 352 351 352 352 351 351 350 350 350 351 354 356 356 355 355 356 355 353 353 353 355 356 356 358 360 360 360 358 356 359 362 362 361 359 359 360 361
360 361 359 356 352 351 351 351 351 352 351 350 349 349 349 352 354 355 355 355 355 355 354 352 353 354 355 356 357 357 359 359 357 356 358 361 361 361 361 360 359 360
357 358 358 357 353 349 349 349 349 351 352 352 349 348 349 350 351 353 354 353 354 355 354 353 353 354 356 357 357 355 356 358 358 357 356 358 359 358 359 358 357 358
354 355 355 355 354 350 346 347 348 348 351 353 351 348 349 349 350 351 352 353 354 354 355 354 353 355 355 357 357 356 356 357 358 357 357 356 357 357 356 356 356 356
353 353 354 353 353 352 346 345 345 346 349 351 351 349 348 348 349 349 350 352 353 355 355 355 354 355 356 357 357 356 355 355 355 356 355 354 355 354 354 354 354 356
354 353 354 353 352 351 348 345 344 344 345 348 350 350 348 346 347 349 350 351 353 355 356 356 355 355 356 356 356 356 355 354 353 354 353 352 352 351 351 352 352 353
353 354 354 353 354 353 350 347 345 344 344 344 347 348 348 347 345 347 349 351 351 353 356 357 356 356 357 356 356 356 356 354 352 352 352 350 350 350 350 349 348 348
353 353 354 354 353 353 354 352 347 345 343 343 345 346 346 347 345 345 347 350 351 353 355 357 356 356 357 356 355 356 355 355 352 350 351 350 350 349 348 349 347 346
354 353 353 354 354 353 353 354 354 351 347 344 343 344 345 346 346 344 344 346 350 352 354 355 355 354 356 356 355 354 354 355 353 350 350 350 349 349 349 348 347 346
354 354 354 354 354 355 355 355 356 357 355 352 347 344 343 344 345 346 343 344 346 348 351 354 354 353 353 354 355 354 354 355 354 352 350 349 350 349 349 348 347 346
353 354 354 355 354 354 355 356 357 357 359 359 356 349 345 345 346 346 345 343 344 345 347 350 353 353 352 351 352 353 352 353 353 352 350 348 348 349 348 348 348 348
352 353 354 355 355 355 357 358 359 358 359 361 360 355 350 348 347 347 347 346 345 344 344 346 349 352 351 350 350 350 350 350 350 351 350 347 345 345 346 347 347 347
347 349 351 353 354 355 356 356 356 357 357 356 355 355 354 354 353 351 350 350 350 348 345 345 345 345 349 350 349 348 347 348 347 348 348 347 344 343 343 345 346 347
342 345 347 350 352 353 353 352 351 353 355 355 354 354 353 351 353 354 355 354 354 353 351 350 346 343 344 345 348 348 346 346 347 347 347 345 343 341 341 341 343 345
341 343 345 347 349 351 352 352 351 352 354 356 356 356 356 352 351 353 355 357 356 356 356 355 354 350 347 345 345 347 346 346 346 347 348 347 344 342 340 340 340 341
341 343 344 345 347 348 351 352 352 352 354 355 355 355 355 354 353 352 353 355 357 358 358 358 357 356 354 350 348 346 346 346 347 348 349 350 348 346 343 342 340 341
340 342 344 344 344 345 348 351 352 352 353 354 355 355 354 354 354 353 352 353 355 357 358 358 359 359 358 356 354 351 349 346 346 349 351 351 351 351 349 347 346 346
338 340 342 343 343 345 347 350 351 351 352 353 355 354 354 353 354 354 353 353 353 355 356 357 357 358 359 358 357 356 353 349 347 349 351 352 352 352 352 352 351 351

ECMWFNIL_925_thetae_111.txt.gz
Theta_e
354 351 352 353 354 355 357 359 360 359 358 359 358 358 358 357 358 358 356 357 359 357 356 356 356 357 357 356 357 358 358 357 357 357 356 356 354 355 358 356 354 354
355 355 353 355 356 356 357 358 359 360 359 359 359 359 357 357 358 358 356 358 360 358 356 356 357 358 359 358 358 360 358 357 359 358 357 357 355 354 357 356 354 355
356 357 356 356 356 357 357 357 358 359 360 360 360 359 358 358 359 358 357 357 359 360 358 358 359 360 360 359 359 361 360 358 359 359 358 357 356 355 356 356 356 356
356 357 356 357 356 356 357 356 356 357 359 359 359 358 358 360 359 358 358 357 359 361 361 359 358 357 359 360 358 358 358 357 360 361 359 358 357 356 356 356 357 356
357 357 357 357 356 357 356 355 355 355 355 358 360 358 358 359 358 358 359 358 358 361 361 361 359 357 359 362 359 356 356 357 358 360 359 358 358 357 356 357 357 357
357 358 357 357 357 357 355 354 354 354 353 354 357 359 358 359 358 357 359 360 359 360 360 361 361 359 359 361 361 358 357 359 358 359 359 358 359 358 356 357 358 357
357 357 357 357 357 356 355 353 352 353 352 353 356 357 358 359 359 357 358 359 359 359 360 360 360 361 360 360 361 360 360 360 359 359 359 359 361 360 358 359 359 357
357 356 357 357 356 356 355 352 352 353 352 353 354 355 355 357 358 358 357 358 359 359 360 360 359 361 361 361 360 361 360 360 360 359 359 359 361 361 360 359 358 358
357 357 357 356 356 356 355 353 352 352 352 352 353 353 353 355 357 357 357 357 358 357 357 359 359 358 359 360 361 360 360 360 360 359 357 357 360 361 360 359 357 357
359 358 357 357 356 356 355 354 352 351 352 351 352 352 352 353 354 356 357 357 358 357 355 355 357 357 357 358 360 359 358 359 360 361 357 355 357 359 360 360 358 358
359 359 359 358 357 355 355 354 352 351 351 351 352 351 351 352 353 354 355 357 357 356 356 355 354 355 355 356 357 357 357 357 357 359 359 356 355 357 359 360 359 360
357 358 358 357 357 356 354 353 351 351 351 351 351 351 350 350 352 353 353 355 355 355 355 355 354 353 354 354 354 356 356 356 355 356 357 357 357 357 358 359 359 359
355 355 355 355 356 356 353 351 350 350 350 351 351 350 351 349 350 351 352 353 354 354 354 354 354 353 354 353 354 354 356 356 356 355 355 356 357 358 358 357 357 358
352 354 354 354 354 354 353 351 349 348 349 350 351 351 351 350 349 349 351 352 353 354 353 353 354 353 354 354 354 354 356 356 356 355 356 356 356 356 356 356 356 355
351 354 355 353 354 353 352 350 348 348 349 349 352 351 350 350 349 349 350 351 352 353 353 352 353 354 353 353 354 355 356 356 355 355 355 356 356 355 353 354 354 353
353 354 354 354 354 354 352 351 350 348 347 349 352 353 352 350 349 348 349 349 350 351 352 353 353 353 353 353 353 353 355 356 356 355 354 354 354 354 352 351 351 351
354 354 354 353 353 354 354 353 353 351 351 351 352 353 352 351 349 348 347 348 349 349 351 353 353 353 354 354 353 353 354 354 355 355 355 354 352 352 352 351 350 349
352 353 355 354 354 354 354 354 355 355 355 352 351 352 353 350 349 349 347 345 348 350 350 352 352 353 353 354 354 353 353 354 354 354 355 354 352 352 350 350 349 349
348 349 351 352 353 354 353 354 356 357 356 354 351 350 352 351 349 349 350 347 346 348 350 351 351 351 352 353 354 354 354 354 355 354 354 354 353 352 350 349 349 348
345 346 347 349 351 352 353 354 356 357 356 356 354 351 353 352 350 349 350 351 349 346 348 350 351 352 351 351 352 353 353 354 354 354 353 353 352 351 350 350 349 348
343 344 345 346 348 349 351 352 354 356 357 357 356 355 354 354 352 350 350 351 352 351 348 347 349 351 352 352 352 352 352 352 353 354 353 352 351 351 351 351 350 349
342 343 343 344 346 347 348 350 351 353 354 355 356 355 355 355 354 353 351 350 351 353 353 350 346 346 348 350 351 351 352 352 352 353 353 353 352 351 350 350 349 348
339 341 342 343 343 344 346 348 349 351 352 353 354 354 354 355 355 354 353 352 351 351 354 354 351 348 346 347 349 349 351 351 352 352 353 352 352 351 350 349 349 348
338 339 341 341 342 344 345 346 347 348 349 351 351 352 353 353 354 355 354 354 355 352 352 354 355 354 353 351 351 350 350 350 350 351 353 352 351 351 349 348 347 346
338 338 338 340 342 343 344 346 347 348 349 350 351 351 352 352 353 354 354 355 354 354 353 353 353 354 355 355 355 354 353 351 349 349 350 351 351 351 350 348 347 345
336 337 337 338 340 342 343 345 347 347 348 349 350 350 352 352 352 353 354 354 354 354 354 353 353 353 355 355 355 356 356 355 353 349 348 348 350 350 350 350 349 347

ECMWFNIL_925_thetae_114.txt.gz
Theta_e
354 353 354 354 355 354 353 353 354 356 356 356 356 356 356 355 356 356 354 353 354 356 357 356 356 356 356 357 357 358 357 355 355 354 353 353 354 353 355 356 356 356
354 354 354 353 354 355 354 353 354 356 356 356 355 355 355 355 355 355 354 354 355 357 357 356 356 356 356 357 357 357 356 356 355 355 354 353 352 353 355 357 356 355
353 354 354 353 353 355 356 355 356 357 356 356 355 355 356 356 356 355 355 355 355 357 358 356 355 355 356 356 357 357 357 357 357 356 356 355 353 352 353 355 356 355
352 353 354 352 353 354 356 357 358 358 358 356 356 357 357 357 356 356 356 357 355 357 359 358 356 356 357 358 357 358 358 358 357 357 358 359 356 354 353 354 355 355
351 353 354 353 352 354 354 356 356 358 358 358 357 358 358 358 357 356 357 357 356 357 359 358 357 357 358 359 358 359 359 360 358 358 359 360 359 357 355 355 355 356
353 353 355 354 353 355 355 355 356 356 358 359 358 358 358 358 358 357 359 358 357 356 358 359 359 358 358 358 358 359 358 358 357 357 358 359 360 358 356 356 356 356
355 353 355 356 356 355 356 356 356 356 356 358 359 359 359 357 358 359 358 358 357 356 357 358 358 359 357 357 358 359 359 356 355 357 358 358 359 358 357 357 355 356
357 355 355 356 356 356 356 356 356 355 354 355 357 357 359 358 358 359 359 357 358 358 358 357 358 358 358 357 357 358 359 358 356 358 358 357 358 358 357 357 356 357
357 356 355 356 357 356 356 356 356 356 354 353 353 354 357 359 358 358 358 356 357 358 358 358 358 358 358 359 358 358 358 358 358 358 358 357 358 357 357 357 357 357
358 356 356 356 357 357 356 356 356 356 354 352 352 352 354 357 358 358 358 357 357 357 358 358 358 359 359 358 359 359 359 358 357 357 357 358 358 356 355 355 356 356
358 358 357 356 357 356 356 356 355 356 354 352 352 352 352 354 355 356 357 357 357 356 357 357 357 358 359 358 358 358 358 358 357 357 356 357 357 355 354 354 355 355
356 356 357 357 355 356 356 356 356 356 354 352 352 352 352 353 353 354 354 356 358 356 357 356 355 355 356 357 357 357 357 357 358 357 356 355 355 355 356 355 354 355
355 354 356 357 356 354 355 355 356 356 354 353 352 351 351 351 352 352 352 354 355 356 356 356 355 354 354 355 356 356 356 356 356 356 356 355 355 355 357 357 356 356
353 353 353 355 355 355 354 353 354 353 352 352 352 351 351 351 351 351 351 352 352 354 354 355 355 355 354 354 354 354 355 354 354 354 354 356 356 355 355 356 357 357
351 351 351 351 353 354 354 353 352 351 351 349 349 351 351 351 351 350 350 350 351 352 352 353 354 354 353 354 354 354 354 354 353 353 354 355 356 356 354 354 355 356
350 351 350 350 351 351 351 352 351 350 349 349 349 349 350 351 351 350 350 350 350 351 351 351 353 353 352 351 351 352 352 353 353 353 353 354 355 355 355 355 355 355
354 353 351 351 351 350 350 351 351 350 350 350 349 349 350 351 351 350 349 349 349 350 351 351 351 351 351 351 350 351 350 351 352 352 353 353 354 355 355 354 354 353
352 353 353 353 352 353 352 351 352 351 352 351 350 350 349 350 351 351 350 349 349 349 350 351 351 349 350 350 350 350 350 350 350 351 352 352 353 354 355 355 354 353
348 350 351 352 353 353 353 354 353 354 354 353 353 352 352 351 351 351 351 349 349 349 349 351 351 350 350 349 349 349 349 350 351 351 351 351 351 352 353 353 355 354
345 346 347 349 350 351 352 353 354 354 355 355 355 355 354 353 353 352 351 349 349 349 348 349 350 350 351 350 349 348 348 350 351 352 352 352 351 351 351 351 351 352
341 343 344 345 346 347 348 350 351 352 353 354 354 355 354 354 355 354 353 351 350 350 350 349 349 349 350 351 351 349 349 350 351 352 352 352 352 351 351 351 350 349
339 340 341 342 343 344 345 346 348 349 350 351 352 353 353 354 354 355 354 354 353 352 351 351 351 350 350 350 351 351 351 350 351 352 353 353 353 353 353 352 351 351
337 337 339 340 341 343 345 346 346 346 348 350 350 351 351 352 352 353 354 354 354 354 353 352 351 352 352 351 350 351 351 352 352 353 353 353 353 352 353 353 352 352
336 335 336 337 338 341 344 343 340 341 344 346 348 349 350 351 351 352 352 353 353 354 354 354 353 353 353 353 351 350 351 351 352 353 353 353 352 353 352 352 353 352
331 330 332 334 334 338 343 340 335 337 341 343 345 347 349 351 351 352 352 352 353 353 354 354 354 354 353 353 353 352 352 351 351 351 351 350 351 351 352 352 352 352
328 325 326 331 333 336 341 339 334 337 341 342 343 345 349 352 352 352 352 352 352 353 353 353 354 354 353 353 353 353 353 353 353 353 352 351 351 350 350 350 351 352

ECMWFNIL_925_thetae_117.txt.gz
Theta_e
351 351 351 351 353 354 354 353 353 353 354 354 355 355 356 356 356 356 357 356 354 354 353 353 354 355 356 355 354 355 356 356 356 354 353 353 352 352 353 353 355 355
352 353 353 353 354 354 355 354 353 353 353 354 354 355 355 355 356 356 355 355 354 352 352 354 355 355 355 356 356 356 356 357 355 354 354 352 352 351 352 352 355 355
351 353 354 354 354 354 354 354 354 353 352 353 354 354 355 355 355 355 355 354 353 352 353 355 356 355 355 356 356 356 356 356 355 355 355 354 352 352 350 351 353 355
350 352 354 353 352 354 354 354 354 354 352 353 354 355 355 355 354 355 355 355 353 352 354 356 356 355 355 355 355 356 356 356 355 356 356 355 354 354 352 350 351 353
350 351 352 353 353 352 353 354 354 354 354 355 356 356 355 355 355 355 356 355 354 354 354 355 355 356 355 354 354 355 357 357 357 357 357 356 355 356 355 352 351 353
350 350 350 352 352 352 353 353 353 354 355 356 357 357 356 355 356 356 356 356 355 355 355 355 356 356 356 355 355 356 357 358 358 359 358 357 356 357 358 356 354 353
351 349 349 351 352 353 353 352 353 354 354 355 356 357 357 356 356 357 357 356 356 355 356 356 356 356 357 357 357 357 357 358 358 358 359 358 357 356 357 358 357 355
352 349 348 351 352 354 354 353 352 354 354 354 355 356 357 358 357 357 357 357 356 357 358 357 356 355 357 357 358 357 355 355 356 357 357 356 355 354 355 357 358 357
353 350 349 350 352 353 354 354 353 354 354 355 355 355 356 357 358 358 358 358 357 358 358 357 357 356 356 357 357 357 354 353 354 356 356 355 355 354 354 355 357 356
354 353 351 352 353 353 354 355 355 355 355 355 355 355 354 355 356 358 358 358 357 358 358 357 357 356 357 356 357 358 355 354 354 356 356 356 355 354 354 355 356 355
356 355 355 354 353 353 354 354 356 355 356 355 355 355 355 354 354 355 356 357 358 358 358 357 356 356 357 357 357 357 357 356 355 355 356 356 355 354 354 355 356 355
356 356 356 356 355 355 354 354 354 355 355 355 355 356 355 354 353 352 353 355 357 358 357 357 357 356 357 357 357 357 358 358 356 355 356 355 354 354 353 355 355 355
357 356 357 357 356 356 355 354 355 355 355 355 354 355 355 354 353 352 352 352 354 355 356 356 356 357 356 356 356 357 357 358 358 356 355 354 354 354 354 353 353 353
355 357 357 357 356 356 356 355 356 355 355 355 355 355 355 355 353 352 351 351 351 352 353 354 355 356 356 356 356 356 356 356 357 357 356 356 355 354 353 353 354 354
352 354 355 355 354 355 356 356 355 355 355 354 355 354 355 354 354 353 352 351 351 351 351 352 354 354 354 355 355 355 354 354 354 355 356 356 355 355 353 353 353 354
349 350 351 351 352 353 355 355 355 354 354 353 353 353 353 352 352 351 351 352 351 351 351 351 352 352 352 352 352 353 354 354 353 353 354 354 354 354 353 352 352 353
350 349 349 349 350 351 351 353 353 353 352 352 350 350 350 349 349 350 350 350 351 350 351 352 352 351 350 350 351 352 353 353 353 353 353 353 353 353 353 352 351 351
351 352 352 351 351 350 350 350 350 350 350 350 350 350 350 350 350 350 350 350 351 350 350 350 350 350 350 350 350 350 351 352 353 352 353 353 352 352 351 351 352 351
348 349 350 352 352 352 352 353 352 351 351 352 351 351 351 350 350 350 351 351 351 351 350 350 349 349 349 349 350 349 350 351 353 352 353 352 352 352 351 351 351 351
342 343 345 346 347 348 350 352 352 353 353 353 353 352 352 352 352 352 351 351 351 351 350 350 349 349 348 348 349 349 349 350 352 352 352 352 352 352 351 351 350 350
339 340 341 342 343 344 345 347 348 349 350 351 352 353 353 353 354 353 353 352 352 352 351 350 349 349 349 349 348 348 348 348 350 351 352 353 353 352 352 351 350 351
336 337 338 340 343 343 341 341 341 343 346 348 349 350 350 351 352 353 353 353 353 353 353 352 351 350 349 350 349 348 347 347 349 350 352 352 352 352 351 351 351 352
330 333 335 338 341 342 338 336 336 338 342 345 346 347 348 349 350 351 352 353 353 353 353 353 353 352 352 351 351 351 350 349 349 350 351 352 352 352 352 352 351 352
326 328 332 336 339 341 338 335 336 338 341 343 344 345 347 349 351 352 352 352 352 352 353 353 353 353 353 353 352 352 352 351 350 349 350 351 351 351 352 352 352 352
326 326 329 334 337 338 336 334 337 340 341 343 344 346 348 349 349 349 349 350 352 353 353 353 354 354 353 354 353 353 353 353 352 352 351 351 351 351 352 351 352 352
328 326 327 330 333 334 333 334 339 342 342 342 342 342 342 341 340 341 342 343 347 349 351 353 354 353 354 354 354 353 354 353 353 352 352 352 352 352 352 351 352 352

ECMWFNIL_925_thetae_120.txt.gz
Theta_e
351 351 352 352 351 350 350 350 350 351 352 353 353 351 351 353 354 356 356 355 355 354 352 352 353 352 353 355 355 354 353 353 354 355 355 354 352 352 352 352 352 353
351 351 351 351 351 350 351 352 352 352 353 353 353 353 353 354 355 356 356 355 355 354 353 352 352 352 353 355 355 355 354 355 354 355 354 353 353 352 351 351 351 352
350 350 351 350 350 351 352 353 354 354 353 353 353 354 354 355 355 355 356 355 355 354 353 352 352 352 353 354 355 355 355 355 355 355 355 354 354 354 353 352 351 351
350 350 350 350 351 352 353 354 354 354 353 353 353 353 354 355 355 354 355 355 354 354 353 352 353 354 355 355 355 355 355 355 355 355 354 354 355 355 354 353 351 350
350 350 350 351 352 352 353 353 352 353 354 353 353 352 353 354 355 355 354 355 354 355 353 352 353 355 355 355 355 355 355 355 355 355 355 354 355 355 354 354 353 353
349 350 350 350 351 352 353 352 352 352 353 353 353 353 354 355 355 355 354 354 355 355 355 353 354 354 355 355 355 354 354 354 354 356 356 356 356 356 355 355 354 354
348 349 349 350 350 351 352 352 351 351 352 352 353 353 355 356 356 356 355 354 355 355 355 353 354 354 355 355 356 356 355 355 356 357 358 357 358 357 357 355 355 355
348 349 350 349 349 349 350 351 351 351 351 351 352 353 354 355 356 356 356 356 356 357 356 355 355 355 355 355 355 356 357 357 357 357 358 358 358 357 357 356 354 354
350 350 349 349 349 349 349 350 351 351 351 351 352 353 353 354 354 356 357 357 357 358 357 356 356 356 357 356 355 355 356 356 357 357 357 357 357 356 356 355 353 353
351 351 351 350 350 349 347 349 351 352 352 352 352 353 354 354 354 355 355 356 356 358 357 357 357 357 357 357 355 356 356 355 356 357 357 356 355 355 356 355 355 355
352 351 351 351 351 350 348 348 350 351 352 353 354 354 354 354 354 354 355 355 355 356 357 357 357 357 356 357 356 355 355 356 355 355 357 357 356 355 356 356 356 355
353 353 353 353 352 351 350 349 350 351 352 353 354 354 354 355 354 354 354 354 354 353 354 355 357 357 357 357 357 356 355 355 354 355 355 356 356 356 356 356 356 356
354 354 354 354 354 353 352 351 352 352 353 353 353 354 354 354 354 353 352 353 354 353 352 353 354 356 357 357 356 357 356 355 355 355 355 354 354 355 355 356 355 355
355 355 355 355 355 354 355 354 354 354 354 353 354 354 354 354 354 353 352 353 354 353 352 352 352 353 354 356 356 356 356 355 355 355 355 354 352 352 353 354 355 354
354 355 355 355 355 354 354 355 355 355 355 354 354 354 355 355 355 354 354 354 354 354 353 353 351 352 352 352 354 354 354 354 355 354 355 354 353 351 351 352 352 353
351 351 352 351 352 353 352 353 353 354 355 354 354 355 354 354 354 354 354 354 353 353 353 352 352 351 351 350 351 352 352 353 354 354 353 354 354 353 352 351 351 351
349 350 350 349 349 349 350 351 351 352 353 353 353 353 352 352 351 351 351 351 351 351 351 351 351 350 351 350 350 351 351 352 352 352 352 353 353 353 352 352 351 351
350 351 350 350 350 350 350 349 350 350 351 351 352 351 350 350 349 350 349 350 350 350 350 350 350 350 350 350 350 350 350 351 351 351 351 352 352 352 352 352 352 351
346 347 348 349 350 351 351 351 350 350 350 349 350 350 350 350 349 349 350 350 350 350 350 350 349 350 350 349 350 349 349 350 350 350 351 351 351 351 351 351 351 351
342 344 345 345 346 347 349 350 350 351 351 351 350 351 351 351 351 351 351 351 351 351 351 350 350 349 349 349 349 349 348 348 349 350 350 350 350 351 351 351 351 351
341 342 343 342 343 343 343 344 346 347 349 349 350 351 351 351 352 352 353 352 352 352 352 351 351 350 349 348 348 348 348 348 348 349 349 350 350 350 350 351 350 351
339 342 341 340 338 338 338 338 340 343 345 347 347 347 348 348 349 350 350 351 352 352 352 353 353 352 351 351 350 350 350 350 349 349 348 349 350 349 350 351 350 351
334 338 339 338 336 335 336 337 339 340 341 343 345 345 346 347 348 349 348 349 351 351 351 351 352 353 353 352 352 352 351 351 351 350 350 350 350 349 349 350 350 351
329 332 334 334 333 335 338 340 341 341 342 343 345 345 345 346 347 347 348 349 350 350 350 351 351 352 353 353 353 353 352 352 352 351 351 351 351 351 350 350 350 350
327 328 329 331 332 335 338 340 339 340 340 341 341 340 340 340 340 341 342 345 346 346 346 348 348 350 351 353 352 353 353 353 353 352 352 352 352 352 351 351 351 350
327 327 328 330 332 335 337 336 334 334 334 334 333 333 333 333 334 336 337 338 339 338 338 339 341 344 347 349 350 351 352 352 353 353 352 352 352 351 352 351 351 350

ECMWFNIL_925_thetae_123.txt.gz
Theta_e
352 352 352 352 352 353 353 352 352 353 353 354 355 354 353 352 352 354 356 355 354 353 353 352 352 352 352 352 352 353 355 354 356 356 355 356 357 356 356 356 356 356
351 352 351 352 352 352 352 351 351 351 351 352 354 353 351 350 351 353 355 356 355 355 353 352 353 352 352 354 353 354 355 354 356 357 355 356 357 357 356 356 356 356
351 351 351 351 352 352 352 351 351 351 352 352 353 353 352 352 353 354 355 356 356 357 355 353 353 352 352 353 353 355 356 355 356 358 356 356 357 357 357 356 356 356
350 351 350 351 352 352 352 351 351 352 353 354 353 353 354 353 354 355 355 355 355 356 355 353 353 353 352 352 353 356 357 355 356 356 355 355 355 356 357 358 358 358
349 351 350 350 351 351 351 352 353 353 353 354 353 353 353 353 354 355 355 355 354 355 356 355 354 354 354 354 355 356 357 357 357 355 355 356 357 357 357 358 358 359
348 350 350 350 349 350 351 352 353 353 353 353 354 353 352 353 353 354 355 355 355 357 357 357 356 355 356 356 355 356 357 357 357 355 355 357 359 359 359 359 359 359
349 350 349 350 350 350 352 353 352 352 352 353 354 353 353 353 354 355 356 355 356 356 357 357 356 355 356 356 355 356 356 356 356 355 356 358 359 360 360 360 359 359
350 350 349 350 352 352 352 353 352 351 351 351 353 354 353 354 355 356 356 356 356 356 356 356 355 354 356 357 356 356 357 358 358 357 358 359 359 359 359 359 359 358
350 350 350 350 352 353 353 353 353 352 351 351 354 355 354 353 355 356 356 355 356 357 357 357 357 356 356 357 356 357 357 358 359 359 359 360 360 359 359 359 358 358
351 351 352 352 353 353 353 353 353 353 351 351 354 357 356 354 354 355 355 354 356 356 356 357 357 357 356 356 356 357 357 358 358 359 359 360 360 360 359 359 359 359
353 353 353 353 353 353 353 353 353 353 351 351 353 355 356 356 355 354 354 354 355 355 355 355 356 356 356 357 357 357 357 358 359 358 358 358 359 359 358 358 359 360
355 355 355 355 355 355 355 355 354 354 353 352 353 354 355 356 356 356 355 354 354 355 355 354 353 354 354 355 357 358 357 358 359 359 359 358 359 359 359 358 359 359
354 355 354 355 355 354 355 356 355 355 355 354 354 354 354 355 355 356 356 355 354 355 355 354 352 352 352 352 354 356 357 357 358 359 359 358 358 358 359 358 359 358
355 356 354 353 353 353 353 355 355 356 356 356 355 355 354 354 354 354 355 355 355 355 355 354 353 353 353 351 351 352 353 355 356 357 358 359 359 358 358 358 358 357
356 356 355 354 354 353 353 354 354 355 356 356 356 356 355 355 354 354 354 355 355 355 354 354 354 354 354 352 351 351 351 354 354 355 357 358 359 358 359 359 357 357
355 354 355 355 354 354 355 355 355 355 355 355 356 355 355 355 354 355 355 355 355 354 354 354 354 354 353 352 352 351 351 354 354 353 353 355 357 357 358 358 358 358
354 353 353 353 353 353 354 355 355 355 355 355 355 355 354 355 354 354 354 354 354 353 353 353 353 353 351 350 350 350 351 353 354 355 354 354 355 356 356 357 357 358
353 353 353 353 353 353 352 352 353 353 354 354 354 354 354 354 354 353 352 352 352 352 352 352 352 351 350 350 349 349 349 350 353 356 357 356 356 356 356 356 356 356
351 351 352 352 353 353 353 352 352 352 353 353 354 354 354 354 353 353 352 351 351 350 350 351 351 350 349 350 350 350 349 348 350 353 355 356 356 356 356 356 354 354
347 348 348 349 350 351 352 352 352 352 352 352 353 353 353 353 354 354 353 352 352 351 351 352 352 351 349 349 350 350 349 348 348 349 351 353 353 353 353 353 352 352
343 343 343 344 345 346 348 348 349 350 350 350 351 351 352 352 353 353 353 353 354 354 354 354 353 352 350 350 350 350 350 349 348 349 349 350 350 349 349 349 349 349
340 339 339 339 339 340 341 344 345 347 347 348 347 348 350 351 351 351 352 352 353 353 353 354 353 352 352 352 352 351 351 351 350 350 349 349 350 349 349 349 348 348
335 335 336 337 337 338 339 340 342 343 344 345 346 347 348 349 350 350 350 351 352 352 353 353 351 351 351 351 352 353 352 352 351 351 351 351 350 350 350 350 350 349
332 334 336 338 339 341 341 342 343 343 344 345 346 347 347 348 349 349 348 349 349 349 350 349 348 349 350 351 351 352 352 353 352 352 352 352 352 352 351 351 351 351
331 334 337 337 337 338 339 340 340 340 341 341 341 341 341 342 343 343 343 343 343 343 345 346 345 345 347 349 350 351 352 352 352 353 353 353 353 352 352 352 351 351
331 334 336 335 333 333 333 333 333 333 334 334 334 334 335 336 337 337 336 336 337 338 340 342 342 341 342 343 345 347 348 349 350 350 351 351 352 352 352 353 352 352